[[{"header":{"parameterUnit":"m.s-1","parameterCategory":1,"la1":30.6,"la2":29.2853,"lo1":-89.7004,"lo2":-87.6739,"dy":0.0162,"dx":0.0183,"nx":112,"ny":82,"refTime":"2024-09-12T00:00:00:Z","depth":0,"parameterNumber":2,"parameterNumberName":"U-component_of_WINDS"},"data":[0.0,0.0,0.0,0.0,0.0,0.0,0.0,0.0,0.0,0.0,0.0,0.0,0.0,0.0,0.0,0.0,0.0,0.0,0.0,0.0,0.0,0.0,0.0,0.0,0.0,0.0,0.0,0.0,0.0,0.0,0.0,0.0,0.0,0.0,0.0,0.0,0.0,0.0,0.0,0.0,0.0,0.0,0.0,0.0,0.0,0.0,0.0,0.0,0.0,0.0,0.0,0.0,0.0,0.0,0.0,0.0,0.0,0.0,0.0,0.0,0.0,0.0,0.0,0.0,0.0,0.0,0.0,0.0,0.0,0.0,0.0,0.0,0.0,0.0,0.0,0.0,0.0,0.0,0.0,0.0,0.0,0.0,0.0,0.0,0.0,0.0,0.0,0.0,0.0,0.0,0.0,1.1478,1.2679,1.3467,1.3563,1.3467,1.2446,1.0217,0.0,0.0,0.0,0.0,0.0,0.0,0.0,0.0,0.0,0.0,0.0,0.0,0.0,0.0,0.0,0.0,0.0,0.0,0.0,0.0,0.0,0.0,0.0,0.0,0.0,0.0,0.0,0.0,0.0,0.0,0.0,0.0,0.0,0.0,0.0,0.0,0.0,0.0,0.0,0.0,0.0,0.0,0.0,0.0,0.0,0.0,0.0,0.0,0.0,0.0,0.0,0.0,0.0,0.0,0.0,0.0,0.0,0.0,0.0,0.0,0.0,0.0,0.0,0.0,0.0,0.0,0.0,0.0,0.0,0.0,0.0,0.0,0.0,0.0,0.0,0.0,0.0,0.0,0.0,0.0,0.0,0.0,0.0,0.0,0.0,0.0,0.0,0.0,0.0,0.0,0.0,0.0,0.0,0.0,0.0,0.0,0.0,0.0,0.0,0.0,0.0,0.0,0.0,0.0,1.0913,1.3028,1.3445,1.3515,1.342,1.3515,1.2679,1.0574,0.0,0.0,0.0,0.0,0.0,0.0,0.0,0.0,0.0,0.0,0.0,0.0,0.0,0.0,0.0,0.0,0.0,0.0,0.0,0.0,0.0,0.0,0.0,0.0,0.0,0.0,0.0,0.0,0.0,0.0,0.0,0.0,0.0,0.0,0.0,0.0,0.0,0.0,0.0,0.0,0.0,0.0,0.0,0.0,0.0,0.0,0.0,0.0,0.0,0.0,0.0,0.0,0.0,0.0,0.0,0.0,0.0,0.0,0.0,0.0,0.0,0.0,0.0,0.0,0.0,0.0,0.0,0.0,0.0,0.0,0.0,0.0,0.0,0.0,0.0,0.0,0.0,0.0,0.0,0.0,0.0,0.0,0.0,0.0,0.0,0.0,0.0,0.0,0.0,0.0,0.0,0.0,0.0,0.0,0.0,0.0,0.0,0.0,0.0,0.0,0.0,0.0,0.0,1.0453,1.132,1.3372,1.3515,1.3515,1.3515,1.3515,1.2654,1.0713,0.9849,0.0,0.0,0.0,0.0,0.0,0.0,0.0,0.0,0.0,0.0,0.0,0.0,0.0,0.0,0.0,0.0,0.0,0.0,0.0,0.0,0.0,0.0,0.0,0.0,0.0,0.0,0.0,0.0,0.0,0.0,0.0,0.0,0.0,0.0,0.0,0.0,0.0,0.0,0.0,0.0,0.0,0.0,0.0,0.0,0.0,0.0,0.0,0.0,0.0,0.0,0.0,0.0,0.0,0.0,0.0,0.0,0.0,0.0,0.0,0.0,0.0,0.0,0.0,0.0,0.0,0.0,0.0,0.0,0.0,0.0,0.0,0.0,0.0,0.0,0.0,0.0,0.0,0.0,0.0,0.0,0.0,0.0,0.0,0.0,0.0,0.0,0.0,0.0,0.0,0.0,0.0,0.0,0.0,0.0,0.0,0.0,0.0,0.0,0.0,0.0,0.0,0.0,1.1368,1.1923,1.3445,1.3515,1.3467,1.3573,1.3217,1.2266,1.058,0.9494,0.0,0.0,0.0,0.0,0.0,0.0,0.0,0.0,0.0,0.0,0.0,0.0,0.0,0.0,0.0,0.0,0.0,0.0,0.0,0.0,0.0,0.0,0.0,0.0,0.0,0.0,0.0,0.0,0.0,0.0,0.0,0.0,0.0,0.0,0.0,0.0,0.0,0.0,0.0,0.0,0.0,0.0,0.0,0.0,0.0,0.0,0.0,0.0,0.0,0.0,0.0,0.0,0.0,0.0,0.0,0.0,0.0,0.0,0.0,0.0,0.0,0.0,0.0,0.0,0.0,0.0,0.0,0.0,0.0,0.0,0.0,0.0,0.0,0.0,0.0,0.0,0.0,0.0,0.0,0.0,0.0,0.0,0.0,0.0,0.0,0.0,0.0,0.0,0.0,0.0,0.0,0.0,0.0,0.0,0.0,0.0,0.0,0.0,0.0,0.0,0.0,0.0,1.1648,1.2904,1.3507,1.361,1.3515,1.342,1.2397,1.1184,0.993,0.8339,0.0,0.0,0.0,0.0,0.0,0.0,0.0,0.0,0.0,0.0,0.0,0.0,0.0,0.0,0.0,0.0,0.0,0.0,0.0,0.0,0.0,0.0,0.0,0.0,0.0,0.0,0.0,0.0,0.0,0.0,0.0,0.0,0.0,0.0,0.0,0.0,0.0,0.0,0.0,0.0,0.0,0.0,0.0,0.0,0.0,0.0,0.0,0.0,0.0,0.0,0.0,0.0,0.0,0.0,0.0,0.0,0.0,0.0,0.0,0.0,0.0,0.0,0.0,0.0,0.0,0.0,0.0,0.0,0.0,0.0,0.0,0.0,0.0,0.0,0.0,0.0,0.0,0.0,0.0,0.0,0.0,0.0,0.0,0.0,0.0,0.0,0.0,0.0,0.0,0.0,0.0,0.0,0.0,0.0,0.0,0.0,0.0,0.0,0.0,0.0,0.0,0.0,1.1409,1.2574,0.0,1.381,1.3563,1.3515,1.283,1.1706,1.0029,0.0,0.0,0.0,0.0,0.0,0.0,0.0,0.0,0.0,0.0,0.0,0.0,0.0,0.0,0.0,0.0,0.0,0.0,0.0,0.0,0.0,0.0,0.0,0.0,0.0,0.0,0.0,0.0,0.0,0.0,0.0,0.0,0.0,0.0,0.0,0.0,0.0,0.0,0.0,0.0,0.0,0.0,0.0,0.0,0.0,0.0,0.0,0.0,0.0,0.0,0.0,0.0,0.0,0.0,0.0,0.0,0.0,0.0,0.0,0.0,0.0,0.0,0.0,0.0,0.0,0.0,0.0,0.0,0.0,0.0,0.0,0.0,0.0,0.0,0.0,0.0,0.0,0.0,0.0,0.0,0.0,0.0,0.0,0.0,0.0,0.0,0.0,0.0,0.0,0.0,0.0,0.0,0.0,0.0,0.0,0.0,0.0,0.0,0.0,0.0,0.0,0.0,1.0409,1.1566,1.2765,0.0,1.38,1.3621,1.3621,1.2803,1.1552,0.9899,0.0,0.0,0.0,0.0,0.0,0.0,0.0,0.0,0.0,0.0,0.0,0.0,0.0,0.0,0.0,0.0,0.0,0.0,0.0,0.0,0.0,0.0,0.0,0.0,0.0,0.0,0.0,0.0,0.0,0.0,0.0,0.0,0.0,0.0,0.0,0.0,0.0,0.0,0.0,0.0,0.0,0.0,0.0,0.0,0.0,0.0,0.0,0.0,0.0,0.0,0.0,0.0,0.0,0.0,0.0,0.0,0.0,0.0,0.0,0.0,0.0,0.0,0.0,0.0,0.0,0.0,0.0,0.0,0.0,0.0,0.0,0.0,0.0,0.0,0.0,0.0,0.0,0.0,0.0,0.0,0.0,0.0,0.0,0.0,0.0,0.0,0.0,0.0,0.0,0.0,0.0,0.0,0.0,0.0,0.0,0.0,0.0,0.0,0.0,0.0,0.0,0.0,1.0121,1.2223,1.3658,1.3616,1.3621,1.3621,1.3621,1.1975,1.0473,0.0,0.0,0.0,0.0,0.0,0.0,0.0,0.0,0.0,0.0,0.0,0.0,0.0,0.0,0.0,0.0,0.0,0.0,0.0,0.0,0.0,0.0,0.0,0.0,0.0,0.0,0.0,0.0,0.0,0.0,0.0,0.0,0.0,0.0,0.0,0.0,0.0,0.0,0.0,0.0,0.0,0.0,0.0,0.0,0.0,0.0,0.0,0.0,0.0,0.0,0.0,0.0,0.0,0.0,0.0,0.0,0.0,0.0,0.0,0.0,0.0,0.0,0.0,0.0,0.0,0.0,0.0,0.0,0.0,0.0,0.0,0.0,0.0,0.0,0.0,0.0,0.0,0.0,0.0,0.0,0.0,0.0,0.0,0.0,0.0,0.0,0.0,0.0,0.0,0.0,0.0,0.0,0.0,0.0,0.0,0.0,0.0,0.0,0.0,0.0,0.0,0.0,0.0,1.061,1.268,1.4174,1.4176,1.381,1.3621,1.3621,1.2544,1.117,0.9487,0.0,0.0,0.0,0.0,0.0,0.0,0.0,0.0,0.0,0.0,0.0,0.0,0.0,0.0,0.0,0.0,0.0,0.0,0.0,0.0,0.0,0.0,0.0,0.0,0.0,0.0,0.0,0.0,0.0,0.0,0.0,0.0,0.0,0.0,0.0,0.0,0.0,0.0,0.0,0.0,0.0,0.0,0.0,0.0,0.0,0.0,0.0,0.0,0.0,0.0,0.0,0.0,0.0,0.0,0.0,0.0,0.0,0.0,0.0,0.0,0.0,0.0,0.0,0.0,0.0,0.0,0.0,0.0,0.0,0.0,0.0,0.0,0.0,0.0,0.0,0.0,0.0,0.0,0.0,0.0,0.0,0.0,0.0,0.0,0.0,0.0,0.0,0.0,0.0,0.0,0.0,0.0,0.0,0.0,0.0,0.0,0.0,0.0,0.0,0.0,0.0,0.0,1.1136,1.3219,1.4605,1.443,1.4093,1.3847,1.3621,1.2948,1.1716,0.9797,0.0,0.0,0.0,0.0,0.0,0.0,0.0,0.0,0.0,0.0,0.0,0.0,0.0,0.0,0.0,0.0,0.0,0.0,0.0,0.0,0.0,0.0,0.0,0.0,0.0,0.0,0.0,0.0,0.0,0.0,0.0,0.0,0.0,0.0,0.0,0.0,0.0,0.0,0.0,0.0,0.0,0.0,0.0,0.0,0.0,0.0,0.0,0.0,0.0,0.0,0.0,0.0,0.0,0.0,0.0,0.0,0.0,0.0,0.0,0.0,0.0,0.0,0.0,0.0,0.0,0.0,0.0,0.0,0.0,0.0,0.0,0.0,0.0,0.0,0.0,0.0,0.0,0.0,0.0,0.0,0.0,0.0,0.0,0.0,0.0,0.0,0.0,0.0,0.0,0.0,0.0,0.0,0.0,0.0,0.0,0.0,0.0,0.0,0.0,0.0,0.0,0.0,1.1552,1.3657,1.488,1.4373,1.4337,1.414,1.3658,1.3186,1.2129,1.0272,0.0,0.0,0.0,0.0,0.0,0.0,0.0,0.0,0.0,0.0,0.0,0.0,0.0,0.0,0.0,0.0,0.0,0.0,0.0,0.0,0.0,0.0,0.0,0.0,0.0,0.0,0.0,0.0,0.0,0.0,0.0,0.0,0.0,0.0,0.0,0.0,0.0,0.0,0.0,0.0,0.0,0.0,0.0,0.0,0.0,0.0,0.0,0.0,0.0,0.0,0.0,0.0,0.0,0.0,0.0,0.0,0.0,0.0,0.0,0.0,1.4995,0.0,0.0,0.0,0.0,0.0,0.0,0.0,0.0,0.0,0.0,0.0,0.0,0.0,0.0,0.0,0.0,0.0,0.0,0.0,0.0,0.0,0.0,0.0,0.0,0.0,0.0,0.0,0.0,0.0,0.0,0.0,0.0,0.0,0.0,0.0,0.0,0.0,0.0,0.0,0.0,0.0,1.1092,1.3442,1.4777,1.3858,1.3752,1.3705,1.361,1.3186,1.2263,1.0771,0.9825,0.0,0.0,0.0,0.0,0.0,0.0,0.0,0.0,0.0,0.0,0.0,0.0,0.0,0.0,0.0,0.0,0.0,0.0,0.0,0.0,0.0,0.0,0.0,0.0,0.0,0.0,0.0,0.0,0.0,0.0,0.0,0.0,0.0,0.0,0.0,0.0,0.0,0.0,0.0,0.0,0.0,0.0,0.0,0.0,0.0,0.0,0.0,0.0,0.0,0.0,0.0,0.0,0.0,0.0,0.0,0.0,0.0,0.0,0.0,0.0,1.6673,0.0,0.0,0.0,0.0,0.0,0.0,0.0,0.0,0.0,0.0,0.0,0.0,0.0,0.0,0.0,0.0,0.0,0.0,0.0,0.0,0.0,0.0,0.0,0.0,0.0,0.0,0.0,0.0,0.0,0.0,0.0,0.0,0.0,0.0,0.0,0.0,0.0,0.0,0.0,0.0,1.2318,1.3999,1.4915,1.4362,1.4129,1.3894,1.3621,1.3148,1.2358,1.1214,1.0205,0.0,0.0,0.0,0.0,0.0,0.0,0.0,0.0,0.0,0.0,0.0,0.0,0.0,0.0,0.0,0.0,0.0,0.0,0.0,0.0,0.0,0.0,0.0,0.0,0.0,0.0,0.0,0.0,0.0,0.0,0.0,0.0,0.0,0.0,0.0,0.0,0.0,0.0,0.0,0.0,0.0,0.0,0.0,0.0,0.0,0.0,0.0,0.0,0.0,0.0,0.0,0.0,0.0,1.9585,2.0233,2.1671,2.0977,2.1444,2.2721,2.1308,2.07,2.0526,1.8049,0.0,0.0,0.0,0.0,0.0,0.0,0.0,0.0,0.0,0.0,0.0,0.0,0.0,0.0,0.0,0.0,0.0,0.0,0.0,0.0,0.0,0.0,0.0,0.0,2.046,1.9885,1.7021,0.0,0.0,0.0,0.0,0.0,0.0,0.0,0.0,0.0,0.0,0.0,1.3754,1.4636,1.5017,1.4869,1.4512,1.4093,1.3621,1.3208,1.2537,1.164,1.0616,0.9491,0.0,0.0,0.0,0.0,0.0,0.0,0.0,0.0,0.0,0.0,0.0,0.0,0.0,0.0,0.0,0.0,0.0,0.0,0.0,0.0,0.0,0.0,0.0,0.0,0.0,0.0,0.0,0.0,0.0,0.0,0.0,0.0,1.2571,1.3545,0.0,0.0,0.0,0.0,0.0,0.0,0.0,0.0,0.0,0.0,0.0,0.0,0.0,1.9042,1.9966,2.2095,2.3235,2.3368,2.5475,2.6589,2.6832,2.6829,2.6955,2.7148,2.7055,0.0,2.1462,2.0382,0.0,0.0,0.0,0.0,0.0,0.0,0.0,0.0,0.0,0.0,0.0,0.0,0.0,0.0,0.0,0.0,0.0,0.0,0.0,0.0,0.0,0.0,2.401,2.3246,2.3397,2.3326,0.0,1.8749,1.6061,1.5742,1.4066,0.0,0.0,0.0,0.0,0.0,0.0,0.0,1.3448,1.4431,1.4777,1.3894,1.3752,1.3668,1.3621,1.3515,1.3054,1.1991,1.1423,1.056,0.9341,0.8265,0.0,0.0,0.0,0.0,0.0,0.0,0.0,0.0,0.0,0.0,0.0,0.0,0.0,0.0,0.0,0.0,0.0,0.0,0.0,0.0,0.0,0.0,0.0,0.0,0.0,0.0,0.0,0.0,0.0,1.2857,1.45,1.5418,1.594,1.5912,0.0,0.0,0.0,0.0,0.0,0.0,0.0,0.0,0.0,2.1906,2.2398,2.3241,2.4503,2.5559,2.6071,2.6094,2.7244,2.7792,2.7808,2.7943,2.7997,2.8006,2.8094,2.7074,2.5217,2.3398,2.2081,2.1074,0.0,0.0,0.0,0.0,1.9668,2.0537,2.1687,2.208,0.0,2.106,0.0,0.0,0.0,0.0,0.0,0.0,0.0,0.0,0.0,0.0,2.5784,2.5739,2.5705,2.5486,2.4917,2.3021,2.0666,0.0,1.6837,1.5511,1.3494,0.0,0.0,0.0,0.0,1.3404,1.3838,1.4384,1.4558,1.4093,1.3763,1.3621,1.3621,1.3035,1.2454,1.1909,1.1072,1.025,0.9485,0.8877,0.8246,0.0,0.0,0.0,0.0,0.0,0.0,0.0,0.0,0.0,0.0,0.0,0.0,0.0,0.0,0.0,0.0,0.0,0.0,0.0,0.0,0.0,0.0,0.0,0.0,0.0,0.0,0.0,0.0,1.4771,1.6302,1.7229,1.824,1.8459,0.0,0.0,0.0,0.0,0.0,0.0,2.0408,2.1463,2.2991,2.5034,2.5674,2.6535,2.7649,2.7841,2.7902,2.7856,2.8158,2.828,2.8281,2.8437,2.853,2.854,2.8659,2.8761,2.8626,2.6265,2.5129,2.4662,2.2668,2.1856,2.1897,2.2526,2.3313,2.4257,2.5693,2.6193,2.5986,2.4785,2.365,2.2428,2.0693,0.0,0.0,0.0,0.0,2.4185,2.5723,2.6414,2.6833,2.735,2.7153,2.6805,2.6624,2.5973,2.441,0.0,1.9729,1.8383,1.5704,0.0,0.0,0.0,0.0,1.3938,1.4431,1.4326,1.4129,1.4035,1.3505,1.318,1.318,1.2442,1.19,1.1625,1.0744,0.9987,0.95,0.9308,0.8814,0.7954,0.0,0.0,0.0,0.0,0.0,0.0,0.0,0.0,0.0,0.0,0.0,0.0,0.0,0.0,0.0,0.0,0.0,0.0,0.0,0.0,0.0,0.0,0.0,0.0,0.0,0.0,0.0,0.0,0.0,1.8968,2.052,0.0,0.0,0.0,0.0,1.9134,2.123,2.2936,2.3813,2.5348,2.6601,2.7512,2.7562,2.7491,2.7324,2.813,2.8461,2.8292,2.9172,2.9602,2.9616,2.9806,2.9942,3.0016,3.0257,3.0423,3.0358,2.8696,2.748,2.6657,2.6519,2.6349,2.6188,2.637,2.6986,2.7776,2.7981,2.8063,2.8053,2.7975,2.6759,2.5434,2.615,2.5235,0.0,0.0,2.6635,2.6825,2.7803,2.7937,2.7788,2.7706,2.7464,2.7194,2.686,2.6109,2.5332,0.0,2.2685,2.056,1.9321,0.0,1.5932,1.5602,1.5188,1.4957,1.505,1.4226,1.3437,1.2909,1.2384,1.2098,1.2098,1.2049,1.171,1.1099,1.0854,1.0446,0.9829,0.9414,0.9163,0.9097,0.8049,0.0,0.0,0.0,0.0,0.0,0.0,0.0,0.0,0.0,0.0,0.0,0.0,0.0,0.0,0.0,0.0,0.0,0.0,0.0,0.0,0.0,0.0,0.0,0.0,0.0,0.0,0.0,0.0,2.2253,2.3476,0.0,2.3328,2.3986,2.4326,2.3987,2.528,2.6179,2.6408,2.7495,2.823,2.8453,2.9065,2.9459,2.9691,3.0026,3.0108,2.9908,3.0302,3.0207,2.9713,2.9908,3.0047,3.0103,3.0344,3.0462,3.0434,2.9852,2.9201,2.8476,2.793,2.7652,2.76,2.7654,2.8181,2.8904,2.9012,2.8972,2.8803,2.8203,2.7574,2.7125,2.7518,2.7204,2.6977,2.8201,2.8505,2.8665,2.9529,2.9659,2.9522,2.9361,2.9206,2.8988,2.8559,2.8077,2.7507,2.665,2.4307,2.2059,2.0819,1.9628,1.8317,1.6815,1.6269,1.5795,1.512,1.4479,1.3838,1.3332,1.2791,1.2393,1.2049,1.1275,1.0704,1.0407,0.9533,0.8922,0.8567,0.8788,0.8846,0.8623,0.8383,0.7777,0.0,0.0,0.0,0.0,0.0,0.0,0.0,0.0,0.0,0.0,0.0,0.0,0.0,0.0,0.0,0.0,0.0,0.0,0.0,0.0,0.0,0.0,0.0,0.0,0.0,0.0,2.2318,2.407,2.5503,2.6258,2.5997,2.6657,2.7083,2.7036,2.7764,2.8164,2.8071,2.9136,2.9693,2.9551,3.0422,3.0997,3.1163,3.1241,3.1182,3.0996,3.1057,3.08,3.0318,3.0525,3.0715,3.0845,3.0978,3.1098,3.1214,3.1162,3.0944,3.05,2.939,2.8968,2.9007,2.9271,2.9555,2.9765,2.9732,2.9636,2.9385,2.8725,2.851,2.8533,2.8607,2.8695,2.8857,2.9482,2.9732,2.9937,3.0463,3.0544,3.0462,3.0337,3.0215,2.9954,2.9439,2.8953,2.8327,2.7252,2.5096,2.3012,2.1713,2.0536,1.9256,1.7726,1.6967,1.6266,1.5309,1.4491,1.3743,1.3161,1.2531,1.204,1.1703,1.0794,1.0159,0.9938,0.9065,0.8402,0.8143,0.8521,0.8639,0.8287,0.8151,0.7623,0.6733,0.0,0.0,0.0,0.0,0.0,0.0,0.0,0.0,0.0,0.0,0.0,0.0,0.0,0.0,0.0,0.0,0.0,0.0,0.0,0.0,0.0,0.0,0.0,2.0718,2.2724,2.4295,2.4358,2.652,2.7707,2.6895,2.7538,2.8018,2.7988,2.8562,2.8917,2.8917,3.0389,3.1108,3.0845,3.1655,3.1904,3.1531,3.1602,3.1573,3.1421,3.1439,3.1446,3.152,3.1768,3.2027,3.2297,3.2278,3.2466,3.2766,3.2634,3.2657,3.2632,3.1081,3.0529,3.068,3.1457,3.1244,3.0532,3.0333,3.0139,2.9952,2.982,2.9756,2.9756,2.9791,2.992,3.0084,3.0239,3.0453,3.0678,3.0664,3.0625,3.0579,3.054,3.0344,2.9969,2.9364,2.8562,2.769,2.6796,2.5143,2.347,2.2194,2.024,1.8732,1.8289,1.7289,0.0,1.5676,1.4251,1.305,1.2389,1.1529,1.101,1.0995,1.052,1.011,0.971,0.9458,0.904,0.8521,0.8612,0.8557,0.8293,0.7367,0.663,0.6002,0.0,0.0,0.0,0.0,0.0,0.0,0.0,0.0,0.0,0.0,0.0,0.0,0.0,0.0,0.0,0.0,0.0,0.0,0.0,0.0,0.0,2.1682,2.3018,2.2978,2.46,2.6303,2.7662,2.8275,2.8763,2.9256,3.0047,3.0458,3.0299,3.1085,3.1496,3.1433,3.1694,3.1825,3.1747,3.1792,3.1968,3.2286,3.241,3.2379,3.2206,3.2258,3.1997,3.1501,3.1594,3.1671,3.1803,3.1834,3.1916,3.2013,3.2166,3.226,3.2279,3.2294,3.2262,3.227,3.2544,3.2377,3.1985,3.1673,3.1571,3.1553,3.1412,3.1374,3.1374,3.1485,3.159,3.1708,3.1876,3.2019,3.2162,3.2305,3.2355,3.2246,3.1654,3.1423,3.106,3.0068,2.9326,2.85,2.7332,2.5392,2.374,2.299,2.1485,2.0035,1.8892,1.7356,0.0,1.5527,1.443,1.3465,1.284,1.217,1.1343,1.0268,0.9514,0.8607,0.7534,0.723,0.6864,0.6426,0.7121,0.7664,0.8026,0.7321,0.678,0.0,0.0,0.0,0.0,0.0,0.0,0.0,0.0,0.0,0.0,0.0,0.0,0.0,0.0,0.0,0.0,0.0,0.0,0.0,0.0,0.0,0.0,2.4157,2.5712,2.5791,2.6689,2.7765,2.8852,2.9467,3.0028,3.0614,3.1378,3.18,3.1667,3.2176,3.2389,3.2184,3.2444,3.2508,3.2269,3.2469,3.2705,3.2966,3.3046,3.3065,3.2967,3.2894,3.2639,3.221,3.2216,3.2265,3.2398,3.2471,3.2585,3.2761,3.2829,3.2888,0.0,0.0,0.0,0.0,0.0,3.2577,3.2505,3.2084,3.1808,3.1637,3.1557,3.1552,3.1557,3.1637,3.175,3.1895,3.2184,3.2431,3.2651,3.2825,3.2964,3.2945,3.2517,3.2338,3.1926,3.0698,2.983,2.8846,2.7379,2.5466,0.0,2.301,2.1356,1.9622,1.8074,1.677,1.5591,1.4495,1.3558,1.2805,1.2218,1.1483,1.0624,0.9743,0.8646,0.0,0.0,0.0,0.6176,0.6037,0.64,0.0,0.0,0.0,0.0,0.0,0.0,0.0,0.0,0.6189,0.6304,0.0,0.0,0.0,0.0,0.0,0.0,0.0,0.0,0.0,0.0,0.0,0.0,0.0,0.0,0.0,0.0,2.661,2.8695,2.8726,2.8919,2.9023,2.8973,3.033,3.1282,3.1298,3.1974,3.2411,3.2392,3.2467,3.2425,3.2176,0.0,0.0,0.0,0.0,3.3671,3.3509,3.3509,3.352,3.3577,3.3309,3.322,3.322,3.3202,3.3277,3.346,3.3504,3.3725,3.4056,3.391,3.3972,3.4024,3.2801,3.2388,3.2429,3.2248,3.2368,3.2548,3.2016,0.0,0.0,3.1119,3.1119,3.1147,3.1192,3.1328,3.1574,3.1987,3.237,3.2661,3.2885,3.3032,3.3142,3.319,3.3112,3.2674,3.1395,3.0377,2.9159,2.739,2.5697,2.4061,2.2446,2.038,1.8359,1.6727,1.5703,1.4548,1.3005,1.2143,1.1454,1.0843,0.0,0.0,0.8934,0.7816,0.6859,0.6265,0.6206,0.623,0.6343,0.5982,0.6049,0.643,0.6617,0.6592,0.6391,0.652,0.662,0.668,0.6468,0.6751,0.0,0.0,0.0,0.0,0.0,0.0,0.0,0.0,0.0,0.0,0.0,0.0,0.0,0.0,0.0,2.6805,2.8314,2.9634,3.0738,3.108,3.107,3.0679,3.1356,3.1879,3.1921,3.2634,3.3081,3.3034,3.3568,3.3896,3.385,3.3691,3.3595,3.3488,3.3458,3.3452,3.3422,3.3481,3.3509,3.3538,0.0,0.0,3.3433,3.3117,3.3037,3.3172,3.3086,3.3129,3.335,3.3504,3.3716,3.3858,3.3831,3.3867,3.3933,3.3451,3.3356,3.3359,3.2792,3.2517,3.2442,3.2442,3.2552,3.2703,3.2879,3.3104,0.0,3.3855,3.3678,3.3566,3.4282,3.4184,3.3872,3.3843,3.3813,3.3554,3.2701,3.1979,3.0896,2.8801,2.7274,2.515,2.1453,1.9522,1.813,1.7148,1.4606,1.2744,1.2387,1.0836,0.9717,0.9533,0.8914,0.7891,0.6591,0.6063,0.5373,0.4156,0.4634,0.4866,0.4652,0.5118,0.5486,0.5549,0.5581,0.5557,0.5532,0.5566,0.5651,0.5833,0.642,0.6784,0.0,0.0,0.0,0.0,0.0,0.0,0.0,0.0,0.0,0.0,0.0,2.288,2.3673,0.0,2.7727,2.8772,2.9669,3.0491,3.1199,3.1715,3.1885,3.1483,3.2072,3.2508,3.2558,3.3175,3.3608,3.3536,3.384,3.3979,3.3842,3.3689,3.3569,3.3491,3.3393,3.3382,3.3393,3.3238,3.319,3.3238,3.2813,3.2702,3.2848,3.2672,3.2639,3.2719,3.2834,3.2979,3.3117,3.3339,3.353,3.3643,3.3431,3.3524,3.3742,3.3524,3.3266,3.2978,3.2952,3.2844,3.2702,3.2816,3.2912,3.2975,3.289,3.2934,3.3118,3.332,3.3239,3.3222,3.3684,3.3902,3.4003,3.4033,3.4313,3.4361,3.3612,3.283,3.1561,2.8991,2.7265,2.5113,2.1648,1.9478,1.7323,1.4627,1.2852,1.125,0.9762,0.8698,0.7931,0.7519,0.6876,0.6024,0.4772,0.4083,0.348,0.2764,0.3011,0.3292,0.3416,0.3769,0.3981,0.4224,0.4664,0.4889,0.4889,0.5346,0.566,0.5877,0.6254,0.6471,0.0,0.0,0.0,0.0,0.0,0.0,0.0,0.0,2.0675,2.1861,2.4339,2.6456,2.7002,2.8902,3.0369,3.0311,3.0883,3.1356,3.1465,3.2056,3.2383,3.2072,3.2662,3.3093,3.3068,3.3508,3.377,3.377,3.3643,3.3504,3.3364,3.3397,3.335,3.3262,3.3345,3.3399,3.346,3.3219,3.3161,3.3262,3.2687,3.2422,3.2424,3.2442,3.2424,3.2386,3.2603,3.2766,3.2876,3.289,3.2983,3.3014,3.2482,3.2466,3.2749,3.284,3.2583,3.2197,3.2568,3.2468,3.2214,3.2488,3.2521,3.2453,3.2283,3.2231,3.2248,3.2313,3.234,3.2414,3.2585,3.3112,3.3648,3.378,3.4454,3.4825,3.4145,3.3526,3.229,2.9573,2.7553,2.5441,2.2714,1.9806,1.653,1.2567,1.15,1.0164,0.7367,0.6593,0.6125,0.5512,0.4728,0.3964,0.3099,0.2149,0.1621,0.1612,0.1622,0.1871,0.2352,0.2425,0.2556,0.2865,0.3634,0.4003,0.4003,0.4722,0.518,0.529,0.5316,0.554,1.5857,1.5159,1.5495,1.8329,1.8284,1.8987,0.0,0.0,2.4815,2.7369,2.8735,2.9509,2.9576,3.0367,3.1174,3.1697,3.2,3.2319,3.2739,3.3021,3.311,3.2907,3.3265,3.3469,3.3291,3.3325,3.3379,3.3379,3.3202,3.3129,3.322,3.3117,3.3042,3.3011,3.3512,3.3699,3.3562,3.395,3.4119,3.4156,3.3963,3.3654,3.3247,3.3157,3.2897,3.2555,3.2178,3.2039,3.1987,3.1414,3.1339,3.1539,3.1504,3.1482,3.1401,3.1439,3.1497,3.1551,3.1317,3.0971,3.0737,3.1218,3.1206,3.1082,3.1662,3.2004,3.2161,3.2362,3.2004,3.1738,3.2276,3.2488,3.2612,3.2805,3.3826,3.4621,3.4122,3.4418,3.4272,3.2455,3.0329,2.7831,2.4712,2.0326,1.6553,1.4366,1.195,0.9611,0.7618,0.5595,0.4278,0.4209,0.3145,0.2143,0.1403,0.0665,0.0197,0.0193,0.0851,0.118,0.1282,0.1836,0.2125,0.2058,0.2131,0.2202,0.2202,0.2263,0.2438,0.2516,0.2576,0.3682,1.8868,1.8748,0.0,0.0,2.1919,2.2943,2.5925,2.6906,2.7531,2.8684,3.0024,3.0934,3.0677,3.1278,3.1813,0.0,3.1839,3.1961,3.2366,3.2453,3.2343,3.1998,3.2481,3.2908,3.3118,3.3032,3.2939,3.2939,3.2734,3.2687,3.2848,3.2962,3.3141,3.3277,3.3687,3.391,3.3892,3.39,3.3955,3.4073,3.3888,3.3751,3.3696,3.381,3.3895,3.3899,3.3403,3.3184,3.313,3.2389,3.2252,3.2468,3.2124,3.184,3.159,3.1346,3.1227,3.1145,3.0834,3.064,3.0583,3.0606,3.0516,3.0482,3.0847,3.1021,3.1138,3.1253,3.0677,3.0153,3.083,3.0796,3.0798,3.1583,3.2514,3.3353,3.3786,3.4172,3.3932,3.2339,3.1371,2.9022,2.3267,2.0326,1.6582,1.0114,0.8249,0.6886,0.5039,0.3483,0.2382,0.1876,0.0803,-0.0134,-0.0872,-0.1339,-0.1533,-0.1387,-0.1132,-0.0866,-0.0791,-0.0466,-0.0405,-0.0549,-0.0137,-0.0069,-0.021,0.0709,0.1151,0.1094,0.1626,0.2322,2.0321,0.0,0.0,2.3174,2.458,2.5916,2.7192,2.8464,2.9446,2.9769,3.0847,3.159,3.1339,3.1742,3.202,3.1696,3.1551,3.1551,3.1733,3.1524,3.125,3.0855,3.1271,3.1743,3.208,3.2294,3.2385,3.2385,3.2389,3.2441,3.2529,3.3084,3.341,3.3487,3.3835,3.4071,3.4134,3.3998,3.405,3.4243,3.4126,3.4083,3.4127,3.4207,3.43,3.4381,3.3808,3.3475,3.3294,3.2607,3.2293,3.2271,3.2229,3.1658,3.0904,3.0971,3.0809,3.0493,3.011,2.9874,2.9713,2.9459,2.9311,2.9223,2.9452,2.9528,2.9588,2.9713,2.9191,2.8732,2.9239,2.9419,2.9603,3.0228,3.1298,3.2254,3.2445,3.2739,3.2519,3.1053,3.0848,2.9204,2.3786,1.9869,1.5266,0.857,0.4568,0.2133,0.1755,0.0912,0.007,-0.0754,-0.1495,-0.2032,-0.2375,-0.2626,-0.2755,-0.2441,-0.2647,-0.2656,-0.24,-0.2402,-0.2424,-0.2614,-0.2115,-0.192,-0.2099,-0.1021,-0.0517,-0.0451,0.0076,0.0231,0.0,0.0,2.1704,2.3911,2.5239,2.6782,2.9775,3.0365,3.057,3.1671,3.179,3.1679,3.1679,3.1696,3.166,3.1551,3.1497,3.1401,3.1145,3.0501,3.0006,2.9866,2.9844,2.99,2.99,3.0929,3.164,3.164,3.2307,3.2625,3.2439,3.3468,3.3899,3.3526,3.3955,3.4185,3.4185,3.4638,3.4927,3.5068,3.5283,3.5093,3.4661,3.4185,3.3693,3.3102,3.2519,3.1927,3.139,3.0995,3.0304,2.9546,3.1029,3.0248,2.8473,2.9846,2.9923,2.9289,2.8794,2.8036,2.7309,2.737,2.7069,2.6806,2.7255,2.739,2.7455,2.7777,2.7841,2.7841,2.7841,2.8835,2.954,2.8685,3.0386,3.1637,2.9576,2.9896,3.0228,2.8947,2.8435,2.8217,2.8255,1.8958,1.1888,1.2924,0.2183,-0.4836,-0.158,-0.2008,-0.2805,-0.3534,-0.3523,-0.3197,-0.2374,-0.2859,-0.305,-0.2643,-0.3279,-0.3459,-0.3114,-0.3043,-0.319,-0.334,-0.3338,-0.3266,-0.3051,-0.3198,-0.3086,-0.2717,-0.2855,-0.3044,0.0,0.0,2.2962,2.4902,2.6419,2.7923,2.9601,3.0605,3.1099,3.0842,3.0558,3.0145,2.9332,2.9175,2.9221,2.9302,2.9343,2.9683,3.0592,3.0146,2.9716,2.9744,3.0151,0.0,0.0,0.0,0.0,3.1067,3.1759,3.2181,3.2246,3.3262,3.3849,3.3816,3.421,3.4438,3.4549,3.4719,3.4899,3.5088,3.5487,3.5548,3.5294,3.4948,3.4604,3.423,3.334,3.2864,3.2713,3.2101,3.1387,3.0758,3.1271,3.0387,2.8915,2.9383,2.8994,2.8248,2.8272,2.8111,2.7795,2.7104,2.6826,2.67,2.6797,2.696,2.7164,2.7385,2.7113,2.6784,2.7041,2.6799,2.652,2.7039,2.7488,2.7814,2.7813,2.8094,2.8294,2.8282,2.8361,2.5542,1.6454,1.2827,0.8308,-0.0195,-0.3448,-0.4762,-0.4203,-0.4506,-0.4896,-0.5259,-0.5567,-0.5892,-0.6257,-0.6692,-0.6818,-0.66,-0.655,-0.6506,-0.6335,-0.5568,-0.5541,-0.6364,-0.535,-0.5101,-0.5855,-0.4762,-0.4246,-0.4248,-0.3814,-0.3673,2.1181,2.251,2.3926,2.557,2.698,2.829,2.9496,3.0212,3.0437,2.9786,2.9117,2.8353,2.7449,2.705,2.7147,2.8036,2.8045,2.8447,2.9854,2.9255,2.8822,2.914,2.9318,2.9436,0.0,0.0,0.0,3.0617,3.1765,3.232,3.1847,3.3034,3.3631,3.3453,3.3843,3.4102,3.4251,3.448,3.4691,3.4771,3.5396,3.5362,3.483,3.4935,3.462,3.4006,3.3415,3.3082,3.2902,3.2195,3.1432,3.0646,3.0837,2.9777,2.827,2.888,2.8442,2.7577,2.7689,2.7666,2.7507,2.6634,2.627,2.6054,2.5813,2.5743,2.5725,2.5802,2.5451,2.519,2.5493,2.5079,2.4757,2.5451,2.5598,2.57,2.5825,2.5974,2.6046,2.6004,2.3911,1.9365,1.053,0.6355,0.0427,-1.0797,-0.9575,-0.7392,-0.7451,-0.7159,-0.7098,-0.7517,-0.7605,-0.7932,-0.8517,-0.8518,-0.8508,-0.8593,-0.8246,-0.8207,-0.8423,-0.7415,-0.7327,-0.8263,-0.7147,-0.6904,-0.7621,-0.6615,-0.6002,-0.5774,-0.5306,-0.5098,2.1899,2.3119,2.4439,2.5888,2.6927,2.7939,2.9383,2.9231,2.8739,2.851,2.7394,2.6357,2.5947,0.0,2.5511,2.7594,2.751,2.7678,2.9039,2.7969,2.7361,0.0,0.0,0.0,0.0,0.0,0.0,3.0158,0.0,3.2788,3.1173,3.2745,3.3287,3.2382,3.2895,3.3235,3.3391,3.4102,3.4301,3.4053,3.4847,3.4576,3.3467,3.4153,3.3687,3.2369,3.254,3.2312,3.1781,3.1245,3.0245,2.9185,2.969,2.8457,2.6539,2.8153,2.8076,2.7167,2.6991,2.6749,2.6436,2.5926,2.5436,2.4918,2.4364,2.3872,2.3419,2.3188,2.315,2.3185,2.3305,2.3774,2.42,2.3968,2.4734,2.5094,2.3599,2.3199,2.2738,2.1558,1.4664,0.9122,0.9397,-0.0844,-1.1299,-1.7973,-1.572,-1.2687,-1.1089,-0.9868,-0.9442,-1.0237,-0.968,-0.9254,-0.9223,-0.8613,-0.8308,-0.8656,-0.8456,-0.8699,-0.9437,-0.8613,-0.8537,-0.915,-0.8689,-0.8456,-0.8533,-0.8618,-0.8237,-0.7318,-0.7488,-0.7196,2.2089,2.3309,2.4298,2.5134,2.6332,2.726,2.7058,2.7415,2.73,2.5556,2.4184,2.2907,2.1714,0.0,0.0,2.4467,2.5096,0.0,2.8193,2.7325,0.0,2.7868,0.0,2.7553,2.7893,2.854,0.0,0.0,3.0372,3.1477,3.1043,3.199,3.2415,3.2155,3.2772,3.313,3.3391,3.336,3.2829,3.1879,3.2576,3.2745,3.2362,3.247,3.1835,3.0705,3.0572,3.0033,2.9358,2.9605,2.9045,2.8128,2.8346,2.7246,2.5652,2.6389,2.6183,2.5603,2.5859,2.6257,2.6473,2.5523,2.5099,2.49,2.427,2.4176,2.4204,2.3936,2.3766,2.3579,2.3406,2.3047,2.275,2.2604,2.2628,2.2335,2.0871,1.5928,1.1448,1.0108,-0.2058,-1.1445,-0.931,-1.6221,-2.1899,-2.1467,-1.877,-1.5913,-1.3504,-1.1883,-1.131,-1.2084,-1.1758,-1.1292,-1.0837,-1.0783,-1.0845,-1.1064,-1.0775,-1.0804,-1.1323,-1.0265,-1.0115,-1.0956,-0.9744,-0.9367,-0.9959,-0.9296,-0.877,-0.8546,-0.8622,-0.833,2.2307,2.3411,2.4292,2.4627,2.5396,2.585,2.5141,2.5122,2.4641,2.2489,2.1446,0.0,1.8779,1.9699,0.0,0.0,0.0,0.0,2.6928,2.6441,2.6329,0.0,2.7168,0.0,2.7618,2.7961,2.7878,0.0,2.9158,3.0186,2.9636,3.0294,3.0543,3.0334,3.0939,3.157,3.2127,3.1931,3.1135,2.9763,3.0455,3.0221,2.9172,2.9583,2.9261,2.8375,0.0,2.8484,2.8163,2.8139,2.7683,2.6886,2.6587,2.5869,2.4933,2.5382,2.5453,2.537,2.5382,2.5581,2.5881,2.5517,2.5191,2.4866,2.4359,2.4159,2.3899,2.3156,2.3155,2.3203,2.2798,2.2173,2.1654,2.1425,2.0918,2.016,1.8951,1.2493,0.5288,-0.0251,-1.1655,-1.9991,-1.8802,-2.362,-2.6782,-2.4325,-2.0873,-1.8118,-1.6775,-1.4356,-1.3114,-1.3894,-1.3353,-1.2938,-1.307,-1.2997,-1.2931,-1.2806,-1.2512,-1.2365,-1.2378,-1.1471,-1.1248,-1.1706,-1.0732,-1.0501,-1.1019,-1.0426,-1.003,-0.9832,-0.9808,-0.9423,2.2382,2.3309,2.4105,2.4176,2.4254,2.4163,2.356,2.2659,2.1434,1.951,0.0,1.8192,1.6647,1.7799,1.9369,2.0489,0.0,2.3892,2.543,2.526,2.5453,2.6694,2.6165,2.5996,2.6953,2.7031,2.6735,2.609,2.7666,2.8277,2.7507,2.803,2.8085,2.7631,2.8315,2.8976,2.9505,2.9579,2.885,2.7313,2.8021,2.7285,2.5298,2.6289,2.6381,2.5747,2.6598,2.6958,2.6971,2.6443,2.5908,2.5469,2.4803,2.4409,2.4264,2.4719,2.5158,2.5429,2.5016,2.4802,2.4862,2.5441,2.5265,2.4683,2.4224,2.3686,2.2971,2.1875,2.1981,2.2353,2.1765,2.1275,2.0866,2.0505,1.9656,1.8744,1.7859,1.1125,0.1872,-0.9701,-1.7119,-2.1966,-2.3517,-2.6695,-2.8366,-2.644,-2.2598,-1.991,-2.004,-1.6825,-1.4798,-1.5475,-1.4633,-1.4283,-1.5084,-1.4783,-1.4434,-1.397,-1.3818,-1.36,-1.3251,-1.2732,-1.2291,-1.2137,-1.1855,-1.1706,-1.1929,-1.1819,-1.1583,-1.1117,-1.0958,-1.0654,2.2068,2.2555,2.3027,2.3437,2.3193,2.2656,2.195,2.054,0.0,0.0,1.5599,1.4819,1.4656,1.5837,1.7441,1.9358,0.0,0.0,0.0,0.0,2.3114,0.0,0.0,0.0,0.0,0.0,0.0,0.0,0.0,2.3856,2.5605,2.5828,2.5791,2.5456,2.6343,2.6,2.4222,2.4683,2.4318,2.3028,2.3847,2.4237,2.4165,2.4811,2.4519,2.358,2.4033,0.0,2.2774,2.2996,2.3227,2.3408,2.3661,2.3452,2.3106,2.402,2.3959,2.3582,2.4177,2.3886,2.3508,2.425,2.3963,2.3312,2.3239,2.272,2.2041,2.1828,2.1555,2.1261,2.1178,2.0761,2.0346,2.0267,1.9778,1.9053,1.7687,0.8947,-0.3114,-1.8197,-2.2664,-2.559,-3.0684,-3.1026,-2.9784,-2.7374,-2.4929,-2.2635,-2.0512,-1.7967,-1.6356,-1.641,-1.5773,-1.5209,-1.4712,-1.4712,-1.4783,-1.4863,-1.4996,-1.513,-1.5209,-1.472,-1.4434,-1.4585,-1.3462,-1.2966,-1.3171,-1.2634,-1.233,-1.2216,-1.2456,-1.2134,2.1534,2.1951,2.231,2.2567,2.2103,2.1224,1.9693,0.0,0.0,0.0,1.3361,1.3052,1.2885,0.0,0.0,0.0,0.0,0.0,0.0,0.0,0.0,0.0,0.0,0.0,0.0,0.0,0.0,0.0,0.0,2.1738,2.3307,2.297,2.2747,2.2699,2.3194,2.2956,2.185,2.1924,2.1393,2.0101,2.036,2.034,2.0139,2.0503,2.0609,2.0428,2.1136,2.1263,2.0941,2.1618,2.1855,2.1952,2.1845,2.1628,2.1431,2.1962,2.2038,2.1973,2.267,2.2681,2.2456,2.283,2.2681,2.2381,2.2381,2.2145,2.169,2.1231,2.1222,2.1285,2.0833,2.0501,2.0136,1.9889,1.8279,1.4007,0.3914,-0.2614,-0.8924,-1.6767,-2.4998,-3.0136,-2.8572,-2.9782,-3.0419,-2.8844,-2.6074,-2.3592,-2.2025,-1.9747,-1.7978,-1.7148,-1.6645,-1.6341,-1.6453,-1.6729,-1.6807,-1.654,-1.6738,-1.666,-1.6305,-1.6166,-1.6123,-1.6102,-1.533,-1.4935,-1.4977,-1.4494,-1.4289,-1.445,-1.4044,-1.3687,2.0871,2.1318,2.1667,2.1685,2.0998,1.9828,1.7788,1.6073,0.0,0.0,1.1577,1.1666,1.1521,0.0,0.0,0.0,0.0,0.0,0.0,0.0,0.0,0.0,0.0,0.0,0.0,0.0,0.0,0.0,0.0,1.975,2.0757,2.042,2.0004,1.9674,1.9733,1.9627,1.9434,1.9026,1.8347,1.7548,1.7282,1.6904,1.6413,1.6495,1.6814,1.7382,1.808,1.8629,1.9016,1.9722,2.0052,1.9925,1.9515,1.9455,1.964,1.9788,2.0178,2.073,2.1354,2.1527,2.1451,2.1288,2.1364,2.1527,2.1527,2.1375,2.1145,2.0459,2.0769,2.1068,2.0216,1.8421,1.6612,1.5751,1.4734,0.955,-0.661,-0.9015,-0.9708,-1.5184,-2.4603,-3.0521,-2.6933,-2.9408,-3.1529,-3.0582,-2.7335,-2.466,-2.3704,-2.1659,-1.9649,-1.8064,-1.7338,-1.7285,-1.8017,-1.8432,-1.8432,-1.7959,-1.8152,-1.8037,-1.7598,-1.7676,-1.7798,-1.7754,-1.7198,-1.6867,-1.6749,-1.625,-1.6146,-1.634,-1.5453,-1.5138,2.022,2.0614,2.0778,2.1113,2.0044,1.8522,1.711,0.0,0.0,1.1089,1.0091,0.9841,1.0954,1.1775,1.2896,1.4667,0.0,1.6658,0.0,0.0,0.0,0.0,0.0,0.0,0.0,0.0,0.0,0.0,0.0,1.6062,1.7963,1.8885,1.8408,1.6503,1.6579,1.6001,1.4768,1.4232,1.4065,1.4448,1.4768,1.5184,1.5523,1.5058,1.4892,1.4996,1.5043,1.4954,0.0,1.5396,1.5898,1.648,1.6627,1.7122,1.7874,1.8479,1.9358,2.0353,2.072,2.074,2.0459,1.9719,1.9963,2.0615,2.0615,2.007,1.9529,1.945,1.946,1.9292,1.8479,1.2164,0.5487,0.3122,0.8,1.0379,0.0275,0.3267,0.1425,-2.0609,-2.0591,-2.0888,-3.3356,-3.52,-3.4303,-3.2387,-2.994,-2.7527,-2.514,-2.3453,-2.1548,-1.9337,-1.8107,-1.7461,-1.7529,-1.7872,-1.8076,-1.8008,-1.8269,-1.8914,-1.9997,-1.9644,-1.9712,-2.0448,-1.9049,-1.8119,-1.7739,-1.6961,-1.6529,-1.6569,-1.65,-1.6503,1.8538,1.9163,1.9477,1.9585,1.8859,1.7638,1.5773,0.0,1.1732,1.0289,0.9362,0.9255,1.0572,1.077,1.147,1.3771,1.4023,1.4547,1.6295,0.0,0.0,0.0,0.0,0.0,0.0,0.0,0.0,0.0,0.0,1.3406,1.4072,1.4545,1.4462,1.3587,1.3639,1.3393,1.2845,1.2589,1.2237,1.1707,1.2054,1.2049,1.1685,1.1594,1.1855,1.2468,1.2705,1.2959,0.0,1.3458,1.3858,1.4261,1.3851,1.4018,1.4684,1.5367,1.5875,1.6359,1.7243,1.7421,1.7349,1.6944,1.7106,1.7518,1.8043,1.8718,1.9054,1.7997,1.7908,1.7883,1.6993,1.3852,0.9025,0.176,0.6251,0.9495,-0.0289,-0.0147,-0.2305,-1.6544,-2.0749,-2.5245,-3.5596,-3.5778,-3.4268,-3.3591,-2.97,-2.6676,-2.6387,-2.275,-2.0338,-2.0815,-1.9596,-1.8972,-1.9493,-1.9234,-1.9244,-1.9862,-1.9723,-1.9944,-2.0829,-2.0887,-2.145,-2.2517,-2.1696,-2.1094,-2.0944,-2.0203,-1.9601,-1.9086,-1.8453,-1.798,1.7092,1.784,1.8217,1.8214,1.7741,1.6686,0.0,1.2669,1.1086,0.9664,0.8848,0.8724,0.9875,0.9976,1.0495,1.2502,1.2731,1.3224,1.4681,0.0,0.0,0.0,0.0,0.0,0.0,0.0,0.0,0.0,1.2237,1.1219,1.0864,1.0778,1.0945,1.1461,1.1289,1.1117,1.094,1.0692,1.0173,0.9461,0.9643,0.9474,0.886,0.8591,0.9122,1.0188,1.0067,1.0307,0.0,1.0888,1.1209,1.1533,1.0963,1.1235,1.2008,1.2372,1.2893,1.3574,1.4129,1.4539,1.4885,1.4726,1.4719,1.4788,1.535,1.6748,1.7883,1.6667,1.6332,1.5538,1.2128,1.245,1.1159,0.1015,0.4653,0.7263,-0.4591,-0.5411,-0.751,-2.009,-2.4009,-2.7777,-3.5728,-3.4331,-3.2383,-3.3214,-2.892,-2.6085,-2.7387,-2.2845,-2.0086,-2.1503,-2.0272,-1.9723,-2.0794,-2.0379,-2.0471,-2.1237,-2.0885,-2.109,-2.1864,-2.2143,-2.2808,-2.3897,-2.3521,-2.3262,-2.3117,-2.2489,-2.1886,-2.1221,-2.0187,-1.9088,1.6015,1.6848,1.7078,1.7253,1.6655,1.549,0.0,1.1788,1.0423,0.9333,0.8395,0.8029,0.8767,0.9404,1.005,1.0822,1.1908,1.2985,1.3791,0.0,0.0,0.0,0.0,0.0,0.0,0.0,0.0,0.0,1.0463,0.0,0.8956,0.8093,0.844,1.0245,0.9643,0.903,0.8503,0.7643,0.7383,0.7811,0.7811,0.7986,0.8162,0.6486,0.677,0.8404,0.6953,0.6233,0.0,0.6943,0.746,0.788,0.7884,0.9022,1.0519,0.9798,1.0995,1.2893,1.2167,1.2831,1.3858,1.3477,1.3277,1.3155,1.2838,1.3931,1.5313,1.5313,1.4664,1.1904,0.2533,0.5349,0.8283,-0.1189,0.233,0.3518,-1.2266,-0.9762,-1.1626,-3.5675,-3.0499,-2.4971,-3.3883,-3.1267,-2.8692,-3.081,-2.8132,-2.6529,-2.8256,-2.4578,-2.1697,-2.1151,-1.9603,-1.9189,-2.0644,-2.0945,-2.1177,-2.1387,-2.1596,-2.2224,-2.3421,-2.3444,-2.3838,-2.4504,-2.4264,-2.3841,-2.3298,-2.2798,-2.2489,-2.236,-2.1298,-1.9806,1.2328,1.3085,1.3568,1.3513,1.3241,1.2638,1.1255,1.0226,0.9262,0.8063,0.757,0.7534,0.7979,0.7985,0.8484,1.0339,1.0691,1.1163,0.0,0.0,0.0,0.0,0.0,0.0,0.0,0.0,0.0,0.9657,0.7994,0.6939,0.676,0.6413,0.6681,0.7647,0.7386,0.7214,0.7034,0.6495,0.5786,0.5166,0.4975,0.453,0.3831,0.3298,0.3653,0.4634,0.4636,0.4905,0.544,0.3822,0.3551,0.4086,0.3634,0.4433,0.6039,0.6653,0.7618,0.8582,0.9113,0.9548,0.9889,0.9625,0.9525,0.952,0.9374,1.1657,1.4185,1.3626,1.3081,1.1505,0.6767,0.7981,0.9338,0.4811,0.607,0.6814,0.1105,-0.9634,-1.8768,-2.1072,-2.1851,-2.3444,-2.777,-2.7637,-2.7698,-2.9881,-2.745,-2.6156,-2.8418,-2.5066,-2.2339,-2.2125,-2.0661,-1.9618,-1.9535,-1.9907,-2.0587,-2.1323,-2.1955,-2.2761,-2.3652,-2.3807,-2.4258,-2.5016,-2.4933,-2.4874,-2.4671,-2.4432,-2.3841,-2.2957,-2.1068,-1.9991,0.0,1.075,1.12,1.119,1.1077,1.0685,0.968,0.9021,0.8353,0.7391,0.7084,0.7058,0.7369,0.7363,0.7799,0.9346,0.9802,1.0237,0.0,0.0,0.0,0.0,0.0,0.0,0.0,0.0,0.0,0.7727,0.6498,0.5528,0.5087,0.4999,0.5001,0.5095,0.5539,0.5539,0.5095,0.4548,0.3835,0.3127,0.2674,0.2051,0.1342,0.0983,0.0892,0.089,0.107,0.1247,0.0,-0.0,-0.0,0.098,0.0801,0.1512,0.2759,0.4009,0.4898,0.5427,0.5786,0.6593,0.7404,0.7295,0.7285,0.7369,0.7288,0.9343,1.147,1.0904,1.059,1.0005,0.8364,0.8748,0.9121,0.7606,0.4174,0.1953,0.4247,-0.9837,-2.1677,-1.7513,-1.9036,-2.1613,-2.3279,-2.3402,-2.4081,-2.6335,-2.5279,-2.5308,-2.8289,-2.5951,-2.4354,-2.5147,-2.3825,-2.2035,-2.0027,-1.9873,-2.0101,-2.0592,-2.1146,-2.1922,-2.2974,-2.3205,-2.3895,-2.5241,-2.5312,-2.5312,-2.5312,-2.5182,-2.4515,-2.3463,-2.1886,-2.0991,0.0,0.951,0.9646,1.0045,0.9828,0.9345,0.8625,0.8055,0.0,0.7173,0.6807,0.6643,0.6937,0.738,0.778,0.8111,0.9288,0.0,0.0,0.0,0.0,0.0,0.0,0.0,0.0,0.0,0.6071,0.5617,0.5528,0.4999,0.3848,0.376,0.3492,0.2778,0.3848,0.3937,0.2777,0.197,0.1522,0.1521,0.0805,0.0358,0.0268,-0.0626,-0.1607,0.0,-0.3309,-0.4117,-0.4828,-0.4383,-0.3213,-0.1692,-0.107,-0.0356,0.0532,0.1518,0.2498,0.329,0.2319,0.3751,0.5994,0.6065,0.6228,0.6395,0.6322,0.6939,0.7815,0.7727,0.7815,0.7727,0.7482,0.7775,0.797,0.7344,-0.1825,-0.8423,-0.1127,-1.0541,-2.0693,-2.1837,-2.0593,-1.9515,-1.9985,-1.8927,-1.8798,-2.1342,-2.2522,-2.4446,-2.8121,-2.7477,-2.7428,-2.9406,-2.8425,-2.6101,-2.2234,-2.0972,-2.009,-1.9347,-1.9347,-2.0033,-2.1561,-2.1722,-2.2823,-2.4992,-2.5229,-2.5312,-2.5312,-2.5111,-2.4587,-2.3818,-2.3316,-2.2349,0.5981,0.0,0.7386,0.7464,0.7293,0.7103,0.0,0.6949,0.6682,0.0,0.0,0.6269,0.6693,0.6708,0.7158,0.8707,0.8688,0.0,0.0,0.0,0.0,0.0,0.0,0.0,0.0,0.0,0.4472,0.4291,0.3491,0.2867,0.2601,0.2601,0.2332,0.1793,0.2511,0.2508,0.1519,0.0089,-0.0805,-0.1161,-0.1789,-0.2503,-0.3388,-0.3835,-0.4368,-0.4982,-0.5797,-0.6068,-0.5971,-0.6966,-0.6612,-0.545,-0.5085,-0.4101,-0.2767,-0.304,-0.1876,-0.0179,-0.0447,0.0626,0.2149,0.295,0.3935,0.4835,0.4837,0.6242,0.7727,0.7383,0.7555,0.7555,0.6422,0.7258,0.7546,0.4295,-0.1827,-0.6417,-0.4516,-1.2157,-1.7427,-1.1068,-1.4912,-1.8093,-1.4751,-1.6269,-1.9213,-2.3113,-2.5129,-2.7177,-2.9944,-3.0345,-3.0163,-2.9654,-2.9314,-2.8304,-2.6264,-2.4205,-2.167,-1.846,-1.8985,-1.9571,-1.9957,-2.1175,-2.203,-2.2581,-2.4422,-2.5312,-2.5312,-2.4238,-2.3875,-2.4032,-2.2295,-2.17,0.4977,0.5706,0.6371,0.649,0.6412,0.6377,0.6525,0.0,0.0,0.0,0.0,0.0,0.624,0.0,0.0,0.0,0.7064,0.0,0.0,0.0,0.0,0.0,0.0,0.0,0.0,0.0,0.3314,0.3136,0.2511,0.2064,0.1884,0.1794,0.1705,0.1436,0.0896,0.0179,-0.0893,-0.1789,-0.2416,-0.2591,-0.34,-0.4024,-0.4643,-0.5349,-0.5791,-0.606,-0.7129,-0.7394,-0.7214,-0.8028,-0.7948,-0.7326,-0.6697,-0.6242,-0.588,-0.5186,-0.4291,-0.321,-0.2415,-0.1254,-0.009,0.1165,0.2061,0.269,0.3227,0.4198,0.5341,0.5714,0.5255,0.4621,0.4188,0.4645,0.4561,0.1877,-0.5111,-1.0152,-0.6489,-1.1866,-1.517,-0.7681,-1.1723,-1.5626,-1.3086,-1.6573,-2.0597,-2.2962,-2.6172,-2.9094,-3.111,-3.2783,-3.3814,-3.3867,-3.3945,-3.2986,-3.0462,-2.9188,-2.6647,-2.2309,-2.0785,-2.0255,-2.0726,-1.9664,-1.9928,-2.1786,-2.41,-2.5312,-2.5312,-2.4587,-2.4238,-2.4154,-2.2979,-2.2306,0.4801,0.5324,0.5777,0.6206,0.6293,0.6273,0.635,0.0,0.0,0.0,0.0,0.0,0.0,0.0,0.0,0.0,0.0,0.0,0.0,0.0,0.0,0.0,0.0,0.0,0.0,0.2331,0.215,0.1704,0.1614,0.1345,0.0896,0.0896,0.0896,0.0896,-0.0625,-0.2234,-0.3764,-0.3673,-0.3582,-0.3664,-0.4556,-0.5092,-0.5181,-0.6319,-0.6851,-0.7044,0.0,0.0,-0.8548,-0.8548,-0.846,-0.8285,-0.7397,-0.7738,-0.8432,-0.6678,-0.6142,-0.5954,-0.4103,-0.2593,-0.1433,-0.0268,0.0269,0.0538,0.1433,0.1612,0.188,0.2956,0.2146,0.116,0.1693,0.1338,0.0625,-0.0089,-0.8184,-1.387,-0.7191,-1.0402,-1.3138,-0.8021,-1.0363,-1.3316,-1.3631,-1.8083,-2.1817,-2.2633,-2.6547,-3.0048,-3.1863,-3.447,-3.6837,-3.8514,-3.897,-3.7885,-3.4693,-3.4676,-3.3153,-2.9213,-2.4462,-2.1982,-2.2433,-1.8889,-1.8511,-2.1881,-2.3788,-2.4909,-2.5312,-2.5087,-2.4636,-2.3975,-2.3801,-2.3065,0.4305,0.4334,0.4451,0.5749,0.5776,0.555,0.5782,0.0,0.0,0.0,0.0,0.0,0.0,0.0,0.0,0.0,0.0,0.0,0.0,0.0,0.0,0.0,0.0,0.0,0.2694,0.0896,-0.0447,-0.0537,-0.1073,-0.1519,-0.1519,-0.1519,-0.1519,-0.1429,-0.1696,-0.3215,-0.618,-0.5191,-0.5097,-0.5894,-0.6328,-0.677,-0.7316,-0.8185,-0.8973,-0.9676,0.0,-0.9854,-1.0202,-1.0202,-0.9772,-0.917,-0.9749,-0.9735,-0.947,-0.9889,-0.9447,-0.8396,-0.6361,-0.4339,-0.2666,-0.2399,-0.1785,-0.1076,-0.0896,-0.0807,-0.0896,-0.1249,-0.0267,0.0803,0.0178,-0.0891,-0.1786,-0.1607,-0.4667,-0.7187,-0.5991,-0.8155,-1.0035,-0.8562,-1.1005,-1.3884,-1.568,-1.7686,-2.0559,-2.4929,-2.7003,-2.9304,-3.2568,-3.4303,-3.587,-3.7602,-3.8505,-3.8856,-3.8679,-3.8922,-3.8849,-3.8361,-3.0767,-2.5321,-2.3195,-2.1945,-2.1767,-2.2742,-2.2466,-2.3296,-2.5312,-2.3986,-2.3412,-2.3361,-2.2176,-2.1797,0.3666,0.3766,0.3975,0.5173,0.5308,0.5311,0.5996,0.0,0.0,0.0,0.0,0.0,0.0,0.0,0.0,0.0,0.0,0.0,0.0,0.0,0.0,0.0,0.0,-0.0,0.0179,-0.0894,-0.1609,-0.1609,-0.1876,-0.2412,-0.295,-0.304,-0.3396,-0.4293,-0.4469,-0.5628,-0.7959,-0.6962,-0.6511,-0.6428,-0.7295,-0.791,-0.8273,-0.984,-1.0539,-1.0539,0.0,-1.1483,-1.1718,-1.198,-1.214,-1.2122,-1.1952,-1.2037,-1.2128,-1.1792,-1.0914,-0.9684,-0.8289,-0.6802,-0.5225,-0.3457,-0.2582,-0.2236,-0.2242,-0.296,-0.3853,-0.4287,-0.3303,-0.2142,-0.2226,-0.3563,-0.4814,-0.49,-0.5625,-0.6523,-0.7397,-0.8607,-0.9639,-0.9986,-1.2705,-1.5381,-1.6871,-1.9123,-2.1999,-2.5672,-2.7857,-3.0016,-3.2491,-3.4103,-3.5351,-3.6291,-3.7502,-3.8352,-3.8709,-3.9498,-3.9168,-3.7222,-3.3103,-2.8103,-2.2201,-2.2506,-2.1672,-1.9173,-2.1626,-2.3313,-2.4008,-2.4554,-2.4469,-2.3661,-2.2745,-2.2111,0.3181,0.3219,0.3404,0.4333,0.0,0.4857,0.562,0.0,0.0,0.0,0.0,0.0,0.0,0.0,0.0,0.0,0.0,0.0,0.0,0.0,0.0,0.0,0.0,-0.2128,-0.2841,-0.2942,-0.2949,-0.3038,-0.3037,-0.3387,-0.4351,-0.4351,-0.5051,-0.6449,-0.6653,-0.7372,-0.8686,-0.8352,-0.783,-0.7305,-0.8607,-0.9131,-0.9131,-1.1139,-1.174,-1.1375,-1.2425,-1.3008,-1.3224,-1.3646,-1.4058,-1.4539,-1.3961,-1.4239,-1.4782,-1.351,-1.2457,-1.1492,-1.0656,-0.9538,-0.8134,-0.5566,-0.4345,-0.392,-0.4022,-0.501,-0.6177,-0.6697,-0.6251,-0.5361,-0.49,-0.5877,-0.7129,-0.7658,-0.7482,-0.765,-0.9122,-0.9894,-1.0671,-1.1712,-1.4476,-1.7033,-1.8046,-2.0562,-2.3397,-2.6052,-2.8261,-3.028,-3.2105,-3.3646,-3.4743,-3.5169,-3.6443,-3.7415,-3.7772,-3.8908,-3.8434,-3.5694,-3.5419,-3.1583,-2.3188,-2.3899,-2.1989,-1.6573,-2.0291,-2.2347,-2.2315,-2.3925,-2.4232,-2.3312,-2.2872,-2.209,0.2977,0.2592,0.2234,0.3125,0.3455,0.0,0.3676,0.0,0.0,0.0,0.0,0.0,0.0,0.0,0.0,0.0,0.0,0.0,0.0,0.0,0.0,0.0,-0.3002,-0.3738,-0.5326,-0.5416,-0.5563,-0.5916,-0.5819,-0.5852,-0.5999,-0.5993,-0.6196,-0.6656,-0.6786,-0.7114,-0.7707,-0.8628,-0.9405,-1.0005,-1.0778,-1.1037,-1.0869,-1.166,-1.251,-1.3503,-1.3328,-1.3988,-1.5141,-1.5141,-1.4968,-1.4712,-1.5486,-1.6108,-1.6476,-1.5703,-1.513,-1.465,-1.3984,-1.2413,-1.0661,-1.0393,-0.8748,-0.6838,-0.7274,-0.7278,-0.7285,-0.8599,-0.8341,-0.7552,-0.7562,-0.7654,-0.783,-0.8348,-0.8436,-0.8694,-0.9899,-1.1525,-1.2977,-1.3646,-1.598,-1.8372,-1.9965,-2.1054,-2.3036,-2.6739,-2.7486,-2.8611,-3.1377,-3.2701,-3.3661,-3.4545,-3.5591,-3.6488,-3.7202,-3.7973,-3.8625,-3.9104,-3.9807,-3.6787,-2.9194,-2.8405,-2.4958,-1.8162,-1.78,-1.8574,-2.0456,-1.9879,-2.0178,-2.1278,-2.0924,-2.0722,0.2352,0.2029,0.1863,0.2677,0.0,0.0,0.0,0.0,0.0,0.0,0.0,0.0,0.0,0.0,0.0,0.0,0.0,0.0,0.0,0.0,0.0,-0.4941,-0.4984,-0.5178,-0.587,-0.5911,-0.5937,-0.6108,-0.6187,-0.6332,-0.6538,-0.6615,-0.684,-0.7033,-0.7094,-0.7533,-0.8276,-0.9174,-1.0206,-1.1282,-1.1922,-1.2401,-1.2893,-1.4008,-1.5018,-1.5921,-1.5666,-1.6234,-1.7301,-1.722,-1.7382,-1.7713,-1.7488,-1.735,-1.7294,-1.6862,-1.6706,-1.655,-1.547,-1.435,-1.3218,-1.1764,-1.0307,-0.8931,-0.84,-0.8321,-0.8507,-0.9209,-0.9653,-0.9575,-0.8882,-0.8794,-0.9139,-1.0,-1.0255,-1.0773,-1.2571,-1.3322,-1.4065,-1.5569,-1.6993,-1.8762,-2.111,-2.1803,-2.3256,-2.6886,-2.7749,-2.8702,-3.0674,-3.218,-3.3208,-3.3572,-3.5355,-3.6905,-3.7998,-3.8549,-3.9121,-3.9707,-4.0072,-3.7869,-3.2524,-3.2336,-2.8079,-1.9019,-2.0688,-2.0315,-1.7559,-1.9572,-2.0493,-2.0562,-2.0941,-2.1005,0.1727,0.1556,0.1489,0.0,0.0,0.0,0.0,0.0,0.0,0.0,0.0,0.0,0.0,0.0,0.0,0.0,0.0,0.0,0.0,0.0,-0.5978,-0.5909,-0.6031,-0.6052,-0.6052,-0.609,-0.6197,-0.628,-0.6443,-0.6589,-0.6795,-0.6951,-0.7093,-0.7292,-0.7341,-0.7686,-0.8491,-0.9685,-1.0686,-1.1656,-1.2669,-1.3576,-1.4295,-1.522,-1.6285,-1.7313,-1.7225,-1.7777,-1.8786,-1.8689,-1.9016,-1.9636,-1.8993,-1.8425,-1.8103,-1.7764,-1.7683,-1.7529,-1.6609,-1.5771,-1.492,-1.338,-1.2116,-1.1101,-1.0317,-1.0322,-1.0682,-1.0859,-1.1391,-1.174,-1.0869,-1.0356,-1.0361,-1.1391,-1.1735,-1.2419,-1.4559,-1.4782,-1.5162,-1.722,-1.8204,-1.9534,-2.2179,-2.2996,-2.4209,-2.7059,-2.8217,-2.9282,-3.0704,-3.1987,-3.2933,-3.336,-3.5217,-3.6861,-3.7932,-3.8363,-3.8877,-3.9595,-3.9584,-3.7964,-3.4425,-3.4635,-3.0761,-2.2124,-2.2797,-2.1371,-1.74,-1.8375,-1.8971,-1.9269,-1.9955,-2.027,0.1092,0.1154,0.0,0.0,0.0,0.0,0.0,0.0,0.0,0.0,0.0,0.0,0.0,0.0,0.0,0.0,0.0,0.0,0.0,0.0,-0.5864,-0.5637,-0.5912,-0.6074,-0.6074,-0.6194,-0.6519,-0.6936,-0.7019,-0.7033,-0.7118,-0.7111,-0.7119,-0.7188,-0.734,-0.7664,-0.8145,-1.0007,-1.1003,-1.1238,-1.3166,-1.4358,-1.4887,-1.4887,-1.5795,-1.7384,-1.7384,-1.8152,-1.9326,-1.9336,-1.9572,-1.9863,-1.9715,-1.9399,-1.8993,-1.8505,-1.8103,-1.7691,-1.744,-1.669,-1.5696,-1.5703,-1.4699,-1.3451,-1.3392,-1.3548,-1.3704,-1.373,-1.3893,-1.3957,-1.3789,-1.2516,-1.1494,-1.218,-1.2699,-1.3548,-1.5311,-1.5733,-1.637,-1.8506,-1.9603,-2.0911,-2.3165,-2.4637,-2.6008,-2.7458,-2.8748,-3.009,-3.1603,-3.2018,-3.2772,-3.417,-3.5244,-3.6163,-3.6749,-3.7044,-3.7753,-3.9021,-3.8771,-3.7506,-3.5053,-3.5067,-3.2877,-2.8049,-2.3376,-2.09,-2.067,-1.5734,-1.4733,-1.7301,-1.7471,-1.8096,0.0792,0.0443,0.0,0.0,0.0,0.0,0.0,0.0,0.0,0.0,0.0,0.0,0.0,0.0,0.0,0.0,0.0,0.0,0.0,-0.6254,-0.6409,-0.6331,-0.6525,-0.6624,-0.6624,-0.6667,-0.677,-0.6928,-0.7092,-0.7152,-0.718,-0.7332,-0.7463,-0.765,-0.8227,-0.863,-0.8937,-1.0614,-1.1639,-1.1998,-1.3659,-1.5024,-1.6016,-1.6185,-1.7177,-1.8756,-1.8618,-1.8841,-1.9354,-2.0083,-2.0611,-2.1078,-2.1364,-2.1058,-2.045,-2.0138,-1.9599,-1.8913,-1.8256,-1.7844,-1.7432,-1.6632,-1.6198,-1.5846,-1.5613,-1.5598,-1.5749,-1.5756,-1.6211,-1.6424,-1.5561,-1.5606,-1.5666,-1.4906,-1.5508,-1.6593,-1.7594,-1.8212,-1.8964,-2.0227,-2.1141,-2.2339,-2.4434,-2.5438,-2.6352,-2.755,-2.8762,-3.0136,-3.1942,-3.2902,-3.3767,-3.4544,-3.5582,-3.644,-3.7102,-3.747,-3.8044,-3.8905,-3.8915,-3.8724,-3.8373,-3.8415,-3.6172,-3.1302,-3.0023,-2.6045,-1.9231,-1.8713,-1.7104,-1.4504,-1.616,-1.7317,0.0366,0.0,0.0,0.0,0.0,0.0,0.0,0.0,0.0,0.0,0.0,0.0,0.0,0.0,0.0,0.0,0.0,0.0,0.0,-0.649,-0.6637,-0.6714,-0.6865,-0.6942,-0.7022,-0.7022,-0.7022,-0.7096,-0.7633,-0.7791,-0.7492,-0.794,-0.8093,-0.7953,-0.8403,-0.8922,-0.9523,-1.0795,-1.1835,-1.2565,-1.4099,-1.5402,-1.6405,-1.6852,-1.774,-1.8931,-1.8893,-1.9105,-1.9554,-2.0266,-2.1073,-2.1786,-2.2073,-2.1945,-2.1659,-2.1507,-2.0837,-2.001,-1.9441,-1.8886,-1.8256,-1.7844,-1.7666,-1.7488,-1.7074,-1.7301,-1.7535,-1.7139,-1.7679,-1.8294,-1.7645,-1.8347,-1.8813,-1.7073,-1.7429,-1.8417,-1.9386,-1.9993,-2.0594,-2.1759,-2.236,-2.325,-2.4981,-2.5963,-2.6718,-2.7377,-2.9024,-3.066,-3.1804,-3.3375,-3.4415,-3.4736,-3.5671,-3.662,-3.7452,-3.7703,-3.8132,-3.8862,-3.8815,-3.9017,-3.9614,-3.9774,-3.846,-3.5566,-3.3916,-3.0251,-2.4482,-2.1411,-1.8649,-1.6263,-1.5637,-1.594,-0.008,0.0,0.0,0.0,0.0,0.0,0.0,0.0,0.0,0.0,0.0,0.0,0.0,0.0,0.0,0.0,0.0,0.0,0.0,-0.6714,-0.6868,-0.7092,-0.7169,-0.7249,-0.7407,-0.7484,-0.7561,-0.771,-0.8618,-0.8851,-0.8102,-0.8927,-0.9074,-0.8403,-0.8403,-0.9003,-1.0121,-1.0932,-1.1896,-1.3091,-1.4609,-1.5683,-1.6376,-1.706,-1.7765,-1.8367,-1.8478,-1.9014,-1.9768,-2.0162,-2.1097,-2.2243,-2.211,-2.2288,-2.2572,-2.2349,-2.1686,-2.0804,-2.0844,-1.9769,-1.8603,-1.9177,-1.9018,-1.8532,-1.8266,-1.8753,-1.9237,-1.8292,-1.885,-1.9709,-1.9974,-2.0824,-2.1131,-1.9187,-1.8961,-1.9615,-2.0871,-2.1187,-2.1642,-2.3018,-2.3323,-2.3784,-2.5146,-2.6277,-2.704,-2.7108,-2.9468,-3.1245,-3.1407,-3.3308,-3.4657,-3.4669,-3.5565,-3.662,-3.7685,-3.7703,-3.7966,-3.8725,-3.8541,-3.8688,-3.935,-3.9556,-3.9743,-3.9922,-3.5925,-3.3712,-3.3371,-2.4392,-2.0193,-2.0377,-1.5918,-1.4698,0.0,0.0,0.0,0.0,0.0,0.0,0.0,0.0,0.0,0.0,0.0,0.0,0.0,0.0,0.0,0.0,0.0,0.0,0.0,-0.7927,-0.8228,-0.8912,-0.9135,-0.9286,-0.9291,-0.9442,-0.9593,-0.9588,-0.9965,-1.0115,-0.9895,-1.0115,-1.0265,-1.019,-1.1007,-1.1607,-1.1996,-1.2945,-1.368,-1.4129,-1.5596,-1.6437,-1.6793,-1.7198,-1.7765,-1.8482,-1.8514,-1.9076,-2.0012,-2.0633,-2.1574,-2.2594,-2.3164,-2.3086,-2.2603,-2.2394,-2.1631,-2.0689,-2.0892,-2.0482,-2.0012,-2.0169,-2.0527,-2.0702,-2.0285,-2.0672,-2.1165,-2.1001,-2.1756,-2.2521,-2.1983,-2.2702,-2.3419,-2.2933,-2.2637,-2.251,-2.2542,-2.2765,-2.3125,-2.3795,-2.4047,-2.4564,-2.5804,-2.6564,-2.731,-2.8118,-2.9642,-3.0674,-3.0689,-3.247,-3.3869,-3.4268,-3.4988,-3.582,-3.6781,-3.7073,-3.7431,-3.7931,-3.8267,-3.87,-3.9223,-3.9231,-3.9529,-4.0196,-3.9258,-3.6992,-3.3403,-3.1325,-2.6466,-1.9106,-1.864,-1.6773,0.0,0.0,0.0,0.0,0.0,0.0,0.0,0.0,0.0,0.0,0.0,0.0,0.0,0.0,0.0,0.0,0.0,0.0,0.0,-0.8304,-0.8756,-0.9744,-0.9965,-1.0115,-1.019,-1.0265,-1.0415,-1.049,-1.1007,-1.123,-1.0932,-1.1378,-1.1527,-1.123,-1.1749,-1.2278,-1.2879,-1.339,-1.3977,-1.4497,-1.6026,-1.7198,-1.7969,-1.8037,-1.825,-1.8674,-1.8931,-1.9512,-2.0324,-2.0983,-2.1878,-2.2893,-2.3257,-2.3335,-2.3136,-2.3068,-2.2229,-2.115,-2.1304,-2.0886,-2.0466,-2.0838,-2.1288,-2.1731,-2.1624,-2.1711,-2.2025,-2.222,-2.2745,-2.3276,-2.3548,-2.412,-2.4564,-2.4779,-2.4264,-2.3818,-2.4059,-2.4264,-2.4409,-2.4636,-2.4791,-2.5158,-2.6025,-2.6701,-2.731,-2.7987,-2.9345,-3.0254,-3.0375,-3.2124,-3.363,-3.4252,-3.4816,-3.5571,-3.6533,-3.6995,-3.7358,-3.7721,-3.8201,-3.8658,-3.91,-3.9238,-3.9618,-4.0326,-4.0472,-3.9338,-3.6923,-3.1826,-2.6662,-2.1471,-1.7121,-1.4085,0.0,0.0,0.0,0.0,0.0,0.0,0.0,0.0,0.0,0.0,0.0,0.0,0.0,0.0,0.0,0.0,0.0,0.0,0.0,-0.8651,-0.917,-1.0359,-1.0547,-1.065,-1.0867,-1.0983,-1.1087,-1.131,-1.2124,-1.2418,-1.1896,-1.2638,-1.2792,-1.2117,-1.2124,-1.2565,-1.3382,-1.3455,-1.3897,-1.4856,-1.6376,-1.7833,-1.9065,-1.8942,-1.8942,-1.9065,-1.9507,-2.0139,-2.0846,-2.125,-2.21,-2.3089,-2.2911,-2.3176,-2.3562,-2.3496,-2.2733,-2.1698,-2.1764,-2.1295,-2.0657,-2.1323,-2.1829,-2.2211,-2.2499,-2.2478,-2.2606,-2.3158,-2.3231,-2.3463,-2.4755,-2.5063,-2.5158,-2.5465,-2.5004,-2.4624,-2.53,-2.537,-2.537,-2.5453,-2.5511,-2.5791,-2.6358,-2.7027,-2.7497,-2.7829,-2.9142,-3.0179,-3.0406,-3.2124,-3.3646,-3.4366,-3.4864,-3.5526,-3.6451,-3.7038,-3.7451,-3.7667,-3.8135,-3.8585,-3.9027,-3.9346,-3.9813,-4.0436,-4.069,-4.083,-4.0807,-3.192,-2.6616,-2.4514,-1.6287,-1.2005,0.0,0.0,0.0,0.0,0.0,0.0,0.0,0.0,0.0,0.0,0.0,0.0,0.0,0.0,0.0,0.0,0.0,0.0,0.0,-0.9786,-1.0557,-1.153,-1.1898,-1.2203,-1.2416,-1.2811,-1.3193,-1.3419,-1.3695,-1.3833,-1.376,-1.3833,-1.3905,-1.376,-1.3977,-1.4129,-1.4209,-1.4346,-1.4848,-1.5692,-1.7139,-1.8307,-1.9075,-1.9075,-1.9396,-1.9911,-2.0031,-2.0677,-2.169,-2.1628,-2.2061,-2.2727,-2.2418,-2.2392,-2.2577,-2.2464,-2.2127,-2.1794,-2.2173,-2.1854,-2.1327,-2.1874,-2.2138,-2.24,-2.3074,-2.35,-2.3975,-2.4779,-2.4945,-2.5016,-2.5229,-2.5229,-2.5241,-2.5312,-2.5664,-2.5943,-2.6082,-2.5779,-2.5615,-2.6013,-2.6427,-2.6973,-2.751,-2.8052,-2.8624,-2.9142,-2.9997,-3.0837,-3.1435,-3.2437,-3.3523,-3.4496,-3.4752,-3.5237,-3.6259,-3.6995,-3.7376,-3.7301,-3.7982,-3.8628,-3.9171,-3.943,-3.9928,-4.0655,-4.08,-4.0926,-4.0959,-3.9539,-3.3978,-2.4741,-2.3363,-1.8326,0.0,0.0,0.0,0.0,0.0,0.0,0.0,0.0,0.0,0.0,0.0,0.0,0.0,0.0,0.0,0.0,0.0,0.0,0.0,-1.0037,-1.0942,-1.2112,-1.2369,-1.2593,-1.2868,-1.3408,-1.3708,-1.3515,-1.4251,-1.4645,-1.438,-1.4705,-1.4705,-1.438,-1.4449,-1.4547,-1.455,-1.4891,-1.5817,-1.7345,-1.7833,-1.8519,-1.9208,-1.9528,-1.9846,-2.0107,-2.0484,-2.1175,-2.2051,-2.2261,-2.2531,-2.28,-2.242,-2.2359,-2.2359,-2.2247,-2.1987,-2.1749,-2.2214,-2.218,-2.2027,-2.2488,-2.2829,-2.3167,-2.378,-2.3945,-2.4237,-2.5554,-2.5639,-2.5557,-2.6126,-2.6277,-2.6139,-2.5804,-2.622,-2.6701,-2.6892,-2.6607,-2.6389,-2.6633,-2.7108,-2.7443,-2.743,-2.7921,-2.8314,-2.8403,-2.9504,-3.048,-3.0925,-3.2145,-3.3435,-3.456,-3.4769,-3.5191,-3.6199,-3.7017,-3.7432,-3.7358,-3.805,-3.8646,-3.9008,-3.9364,-3.9793,-4.0312,-4.0723,-4.0968,-4.0998,-3.7675,-3.3599,-2.873,-2.2642,-1.7511,0.0,0.0,0.0,0.0,0.0,0.0,0.0,0.0,0.0,0.0,0.0,0.0,0.0,0.0,0.0,0.0,0.0,0.0,0.0,0.0,-1.1263,-1.2395,-1.2668,-1.292,-1.3383,-1.3983,-1.4172,-1.385,-1.4754,-1.5145,-1.4811,-1.5265,-1.5256,-1.482,-1.4811,-1.4893,-1.4976,-1.5744,-1.6863,-1.8442,-1.8452,-1.8865,-1.9539,-1.9911,-2.0291,-2.0666,-2.1123,-2.1741,-2.2372,-2.2775,-2.303,-2.3198,-2.2836,-2.2775,-2.2823,-2.2592,-2.2334,-2.2199,-2.2322,-2.2402,-2.2536,-2.279,-2.3128,-2.3526,-2.4256,-2.4362,-2.4566,-2.6251,-2.6445,-2.6283,-2.7082,-2.7217,-2.7082,-2.6607,-2.6892,-2.7297,-2.7484,-2.7297,-2.7108,-2.7242,-2.7377,-2.7443,-2.731,-2.7723,-2.8131,-2.8157,-2.9331,-3.036,-3.0911,-3.2145,-3.3435,-3.4625,-3.4769,-3.5191,-3.6199,-3.6939,-3.7395,-3.7469,-3.805,-3.851,-3.8803,-3.9282,-3.9665,-3.9924,-4.0593,-4.0942,-4.0994,-3.6547,-3.3607,-3.1884,-2.2277,-1.7119,0.0,0.0,0.0,0.0,0.0,0.0,0.0,0.0,0.0,0.0,0.0,0.0,0.0,0.0,0.0,0.0,0.0,0.0,0.0,0.0,-1.1854,-1.2699,-1.3184,-1.3777,-1.4524,-1.4923,-1.521,-1.5386,-1.545,-1.545,-1.545,-1.545,-1.5514,-1.545,-1.545,-1.5533,-1.568,-1.697,-1.7869,-1.825,-1.8931,-1.9528,-2.0042,-2.0107,-2.0794,-2.199,-2.2039,-2.2433,-2.3065,-2.2957,-2.3378,-2.4002,-2.3636,-2.3813,-2.4105,-2.3505,-2.3327,-2.3399,-2.2482,-2.2482,-2.2775,-2.2334,-2.2447,-2.3103,-2.4402,-2.5069,-2.5674,-2.7087,-2.763,-2.7855,-2.792,-2.7841,-2.7696,-2.7617,-2.767,-2.7776,-2.7776,-2.7497,-2.7377,-2.7934,-2.7335,-2.6918,-2.739,-2.7815,-2.8509,-2.9704,-3.03,-3.1072,-3.2342,-3.2812,-3.3471,-3.4496,-3.4704,-3.5191,-3.6199,-3.6678,-3.7055,-3.7376,-3.7792,-3.8201,-3.8585,-3.9252,-3.9648,-3.9815,-4.0403,-4.0809,-4.0998,-4.0551,-3.7537,-3.203,-2.5832,-2.0384,0.0,0.0,0.0,0.0,0.0,0.0,0.0,0.0,0.0,0.0,0.0,0.0,0.0,0.0,0.0,0.0,0.0,0.0,0.0,0.0,-1.1988,-1.3017,-1.3255,-1.3708,-1.4499,-1.5093,-1.5298,-1.4891,-1.5679,-1.5979,-1.5438,-1.5869,-1.5869,-1.5438,-1.554,-1.5846,-1.6434,-1.7388,-1.8175,-1.8835,-1.9404,-1.9876,-2.0291,-2.1037,-2.1667,-2.2101,-2.2555,-2.2884,-2.3078,-2.3078,-2.3424,-2.4073,-2.3813,-2.3989,-2.4292,-2.3917,-2.3682,-2.3577,-2.359,-2.359,-2.3636,-2.3708,-2.3705,-2.3914,-2.4687,-2.5292,-2.5942,-2.725,-2.7949,-2.8443,-2.8843,-2.9016,-2.9016,-2.8762,-2.8546,-2.8314,-2.8314,-2.8052,-2.7868,-2.8079,-2.7603,-2.7255,-2.7469,-2.7603,-2.7987,-2.8688,-2.9594,-3.054,-3.1261,-3.2216,-3.3245,-3.4479,-3.464,-3.5111,-3.6199,-3.6678,-3.7055,-3.7432,-3.7792,-3.8153,-3.8523,-3.9063,-3.9449,-3.9669,-4.01,-4.0491,-4.0871,-4.0809,-3.9766,-3.7556,-2.8004,-2.2582,-0.0331,0.0,0.0,0.0,0.0,0.0,0.0,0.0,0.0,0.0,0.0,0.0,0.0,0.0,0.0,0.0,0.0,0.0,0.0,0.0,0.0,-1.3314,-1.3605,-1.4103,-1.5108,-1.5633,-1.5738,-1.5294,-1.6171,0.0,-1.5874,-1.6239,-1.6239,-1.5816,-1.5968,-1.6413,-1.7124,-1.7627,-1.8272,-1.9189,-1.9415,-1.9879,-2.0444,-2.1398,-2.1971,-2.2225,-2.2797,-2.3258,-2.3424,-2.3424,-2.3943,-2.4694,-2.4567,-2.4724,-2.4951,-2.454,-2.4323,-2.4234,-2.4118,-2.4176,-2.4363,-2.4434,-2.4536,-2.4744,-2.5242,-2.5756,-2.64,-2.7371,-2.807,-2.8661,-2.9345,-2.9807,-2.9979,-2.9421,-2.9071,-2.8766,-2.8651,-2.8341,-2.8079,-2.7947,-2.759,-2.7323,-2.7188,-2.7323,-2.7656,-2.8183,-2.9345,-3.0375,-3.0911,-3.1921,-3.3018,-3.4137,-3.4479,-3.5018,-3.5968,-3.6433,-3.6838,-3.7228,-3.7523,-3.7862,-3.8201,-3.8924,-3.9346,-3.9505,-4.0023,-4.0399,-4.0688,-4.0718,-4.08,-4.0613,-2.8968,-2.1535,0.0,0.0,0.0,0.0,0.0,0.0,0.0,0.0,0.0,0.0,0.0,0.0,0.0,0.0,0.0,0.0,0.0,0.0,0.0,0.0,0.0,-1.3534,-1.4127,-1.5021,-1.6436,-1.656,-1.6616,-1.6807,-1.6818,-1.6818,-1.6818,-1.6694,-1.6637,-1.6627,-1.6842,-1.7237,-1.7791,-1.7791,-1.8196,-1.9074,-1.8977,-1.9454,-2.0541,-2.1079,-2.1663,-2.2322,-2.2874,-2.3458,-2.4105,-2.4118,-2.4808,-2.5893,-2.5893,-2.6042,-2.6229,-2.5508,-2.5328,-2.5313,-2.4105,-2.4176,-2.4721,-2.4305,-2.4738,-2.5508,-2.5958,-2.6467,-2.6976,-2.7465,-2.8097,-2.8753,-2.9349,-3.0148,-3.051,-2.9546,-2.931,-2.9184,-2.8716,-2.8341,-2.8013,-2.7603,-2.7255,-2.6905,-2.6589,-2.7066,-2.7709,-2.8441,-2.9628,-3.0763,-3.1422,-3.212,-3.2873,-3.3531,-3.4186,-3.4878,-3.5571,-3.5975,-3.6343,-3.6706,-3.6956,-3.7281,-3.7703,-3.885,-3.9411,-3.9314,-4.0135,-4.054,-4.0511,-4.0574,-4.0694,-4.0604,-2.8804,-1.722,-0.048,0.0,0.0,0.0,0.0,0.0,0.0,0.0,0.0,0.0,0.0,0.0,0.0,0.0,0.0,0.0,0.0,0.0,0.0,0.0,0.0,0.0,-1.3516,-1.4258,-1.5925,-1.6187,-1.639,0.0,-1.6909,-1.6909,-1.6807,-1.6751,-1.6797,-1.6899,-1.6955,-1.7143,-1.7418,-1.7283,-1.7682,-1.8619,-1.8965,-1.9621,-2.0529,-2.1178,-2.1537,-2.1801,-2.2719,-2.3533,-2.4077,-2.4121,-2.4808,-2.5893,-2.5893,-2.6042,-2.6283,-2.6283,-2.5934,-2.5494,-2.5328,-2.5104,-2.4948,-2.5133,-2.5342,-2.5646,-2.602,-2.6512,-2.7031,-2.7614,-2.8213,-2.8833,-2.993,-3.0174,-3.0017,-2.9893,-2.956,-2.9184,-2.8716,-2.8522,-2.8341,-2.8,-2.759,-2.7323,-2.7255,-2.7403,-2.7842,-2.8684,-2.9566,-3.045,-3.1364,-3.2048,-3.2857,-3.3937,-3.4284,-3.4878,-3.5915,-3.6191,-3.6533,-3.717,-3.7188,-3.745,-3.8122,-3.8548,-3.898,-3.9435,-3.9783,-4.0174,-4.0654,-4.0574,-4.0629,-4.0548,-2.8973,-1.7535,0.0,0.0,0.0,0.0,0.0,0.0,0.0,-0.2189,0.0,0.0,0.0,0.0,0.0,0.0,0.0,0.0,0.0,0.0,0.0,0.0,0.0,0.0,0.0,-1.4155,-1.5552,-1.5744,-1.5978,-1.6375,-1.6439,-1.6526,-1.6565,-1.688,-1.7032,-1.7011,-1.7078,-1.72,-1.7278,-1.7312,-1.7712,-1.8496,-1.8885,-1.949,-2.0245,-2.0864,-2.1251,-2.1482,-2.2418,-2.3458,-2.442,-2.4449,-2.5136,-2.6286,-2.6433,-2.6592,-2.6669,-2.6616,-2.6418,-2.6165,-2.5948,-2.5825,-2.5742,-2.6,-2.6201,-2.6414,-2.6611,-2.7041,-2.7518,-2.7854,-2.8301,-2.8809,-2.952,-2.9688,-2.9763,-2.9942,-2.9714,-2.9421,-2.8953,-2.8894,-2.8702,-2.821,-2.7881,-2.7669,-2.7536,-2.7669,-2.8039,-2.8876,-2.969,-3.051,-3.1364,-3.2201,-3.3039,-3.3836,-3.4431,-3.5035,-3.58,-3.6062,-3.6326,-3.6719,-3.6956,-3.7264,-3.7685,-3.8291,-3.883,-3.9214,-3.9637,-4.0137,-4.0654,-4.0559,-3.8079,-3.3306,-2.6685,-1.7451,0.0,0.0,0.0,0.0,0.0,0.0,-0.1841,-0.2264,-0.2773,0.0,0.0,0.0,0.0,0.0,0.0,0.0,0.0,0.0,0.0,0.0,0.0,0.0,0.0,0.0,-1.5256,-1.5318,-1.5493,-1.5877,-1.5928,-1.6063,-1.6331,-1.6929,-1.7235,-1.7147,-1.7279,-1.7434,-1.749,-1.77,-1.8073,-1.8667,-1.8881,-1.9291,-1.9926,-2.0444,-2.0976,-2.1446,-2.2115,-2.3284,-2.4727,-2.4902,-2.5735,-2.6884,-2.7248,-2.7335,-2.7218,-2.6826,-2.6864,-2.7019,-2.6297,-2.6336,-2.673,-2.6782,-2.7093,-2.7515,-2.7449,-2.783,-2.8268,-2.8186,-2.8514,-2.8819,-2.877,-2.9185,-2.9609,-2.9734,-2.9768,-2.9682,-2.9321,-2.9317,-2.9121,-2.8392,-2.821,-2.8066,-2.7776,-2.7987,-2.8495,-2.9192,-3.0011,-3.0822,-3.1537,-3.2501,-3.3235,-3.3547,-3.4479,-3.5144,-3.5379,-3.5694,-3.5932,-3.5932,-3.6557,-3.6939,-3.7017,-3.8136,-3.8765,-3.8803,-3.9646,-4.0241,-4.0526,-4.0511,-3.4521,-2.3189,-2.3364,-1.7213,0.0,0.0,0.0,0.0,0.0,0.0,-0.1401,-0.1688,-0.2084,0.0,0.0,0.0,0.0,0.0,0.0,0.0,0.0,0.0,0.0,0.0,0.0,0.0,0.0,0.0,-1.4736,-1.4818,-1.5278,-1.6266,-1.67,-1.6796,-1.6486,-1.692,-1.7402,-1.785,-1.794,-1.8104,-1.8494,-1.8375,-1.859,-1.9081,-1.904,-1.95,-2.0459,-2.0576,-2.093,-2.1475,-2.2495,-2.3139,-2.354,-2.4776,-2.6105,-2.7299,-2.735,-2.756,-2.7765,-2.786,-2.7595,-2.7246,-2.7195,-2.699,-2.6782,-2.7195,-2.7414,-2.7565,-2.8073,-2.8462,-2.8811,-2.9058,-2.9137,-2.9218,-2.9752,-2.9627,-2.9413,-2.9574,-2.9699,-2.9682,-2.9223,-2.9454,-2.956,-2.9121,-2.8766,-2.8638,-2.9016,-2.9142,-2.9642,-3.0807,-3.0955,-3.1248,-3.2231,-3.2398,-3.2711,-3.3575,-3.3901,-3.4366,-3.5178,-3.5407,-3.5898,-3.6776,-3.6974,-3.7319,-3.7898,-3.8204,-3.8486,-3.8775,-3.9596,-4.0062,-4.0119,-4.0317,-3.4459,-2.3112,-2.309,-1.6972,0.0,0.0,0.0,-0.118,0.0,0.0,0.0,-0.1922,-0.2237,-0.3184,-0.3253,0.0,0.0,0.0,0.0,0.0,0.0,0.0,0.0,0.0,0.0,0.0,0.0,0.0,-1.4584,-1.4435,-1.4677,-1.5629,-1.6408,-1.6741,-1.6501,-1.6953,-1.749,-1.8056,-1.8019,-1.8278,-1.8804,-1.9109,-1.9371,-1.9592,-1.9991,-2.0484,-2.0993,-2.0993,-2.1286,-2.1841,-2.2398,-2.296,-2.356,-2.4493,-2.5595,-2.6729,-2.724,-2.7704,-2.8042,-2.8042,-2.7944,-2.7845,-2.7565,-2.753,-2.7595,-2.786,-2.8125,-2.8352,-2.8685,-2.9044,-2.9348,-2.9451,-2.9435,-2.947,-2.9639,-2.928,-2.9012,-2.9367,-2.9589,-2.9672,-2.9464,-2.9911,-3.0176,-2.9623,-2.9387,-2.9247,-2.9456,-2.9504,-2.9875,-3.1058,-3.1087,-3.1321,-3.2302,-3.2508,-3.2911,-3.3662,-3.4052,-3.4382,-3.488,-3.5131,-3.5616,-3.6357,-3.6781,-3.7281,-3.7845,-3.8072,-3.8332,-3.8612,-3.9368,-3.9747,-3.9753,-4.0119,-3.4371,-2.3101,-2.2952,-1.6776,0.0,0.0,0.0,0.0,0.0,-0.1698,0.0,0.0,0.0,-0.368,0.0,0.0,0.0,0.0,0.0,0.0,0.0,0.0,0.0,0.0,0.0,0.0,0.0,0.0,-1.4203,-1.39,-1.4022,-1.4971,-1.5697,-1.6248,-1.6471,-1.6943,-1.7521,-1.8239,-1.8121,-1.8382,-1.9056,-1.9786,-2.0144,-2.0144,-2.0979,-2.1465,-2.1575,-2.1575,-2.1827,-2.2324,-2.2324,-2.2887,-2.3827,-2.4193,-2.4942,-2.5986,-2.7103,-2.7767,-2.8148,-2.8094,-2.8204,-2.8348,-2.7845,-2.8008,-2.8396,-2.8493,-2.8826,-2.9257,-2.9348,-2.9617,-2.9881,-2.9848,-2.9848,-2.9761,-2.9569,-2.9042,-2.8698,-2.9159,-2.9346,-2.9456,-2.9731,-3.0264,-3.0513,-3.004,-2.9993,-2.9979,-2.9827,-2.9766,-3.0011,-3.1014,-3.1146,-3.1379,-3.212,-3.2641,-3.3108,-3.3646,-3.4185,-3.4496,-3.4496,-3.4833,-3.5283,-3.5698,-3.6357,-3.696,-3.7523,-3.7967,-3.8234,-3.8245,-3.9048,-3.9448,-3.9384,-3.9927,-3.4877,-2.4698,-2.3375,-1.7243,0.0,0.0,0.0,0.0,-0.2837,0.0,0.0,0.0,-0.2686,-0.3192,0.0,0.0,0.0,0.0,0.0,0.0,0.0,0.0,0.0,0.0,0.0,0.0,0.0,0.0,-1.2722,-1.2936,-1.3761,-1.5395,-1.5017,-1.526,-1.6448,-1.6868,-1.7643,-1.8791,-1.8706,-1.9083,-2.0016,-2.051,-2.066,-2.056,-2.1126,-2.167,-2.2123,-2.2123,-2.237,-2.2797,-2.2797,-2.3037,-2.3481,-2.3859,-2.464,-2.5679,-2.6993,-2.7673,-2.7982,-2.8513,-2.8636,-2.8525,-2.8348,-2.8348,-2.8493,-2.8873,-2.9364,-2.9793,-3.0208,-3.0309,-3.0351,-3.0757,-3.0716,-3.0551,-3.0551,-2.9793,-2.9059,-2.9092,-2.8882,-2.8891,-2.948,-2.993,-3.0264,-3.0466,-3.0613,-3.0718,-3.0837,-3.0584,-3.0703,-3.1754,-3.1739,-3.1781,-3.2287,-3.2547,-3.2819,-3.3293,-3.3848,-3.4101,-3.4,-3.4399,-3.4988,-3.5803,-3.5933,-3.6504,-3.7613,-3.802,-3.8054,-3.7792,-3.8795,-3.9202,-3.8973,-3.9804,-3.6903,-3.0513,-2.5128,-1.9266,0.0,0.0,0.0,0.0,0.0,0.0,-0.2881,0.0,-0.3136,0.0,0.0,0.0,0.0,0.0,0.0,0.0,-0.5905,0.0,0.0,0.0,0.0,0.0,0.0,0.0,-1.2178,-1.2901,-1.3654,-1.4434,-1.4448,-1.4953,-1.6163,-1.6701,-1.7346,-1.8177,-1.8418,-1.8879,-1.9597,-2.0637,-2.114,-2.1091,-2.186,-2.2402,-2.2615,-2.2615,-2.2706,-2.2888,-2.3098,-2.329,-2.345,-2.4051,-2.4528,-2.5051,-2.6084,-2.7045,-2.7811,-2.8031,-2.8248,-2.8525,-2.8748,-2.8826,-2.892,-2.9645,-3.0038,-3.0309,-3.074,-3.0878,-3.0838,-3.0975,-3.0935,-3.0855,-3.0733,-2.9908,-2.9225,-2.9438,-2.9231,-2.9103,-2.9392,-3.0045,-3.0638,-3.0624,-3.0923,-3.1364,-3.1766,-3.1291,-3.1233,-3.212,-3.191,-3.1894,-3.2437,-3.2841,-3.3071,-3.3203,-3.3984,-3.4317,-3.3866,-3.4577,-3.5328,-3.5916,-3.6586,-3.7094,-3.7376,-3.7739,-3.7667,-3.7206,-3.8346,-3.8795,-3.8442,-3.9496,-3.8733,-3.6076,-2.6969,-1.9639,-0.5288,0.0,0.0,0.0,0.0,0.0,0.0,0.0,0.0,0.0,0.0,0.0,0.0,0.0,0.0,0.0,0.0,-0.6395,0.0,0.0,0.0,0.0,0.0,0.0,0.0,-1.2343,-1.291,-1.3891,0.0,-1.4185,-1.5902,-1.6525,-1.7093,-1.7696,-1.8118,-1.8716,-1.9436,-2.0601,-2.1315,-2.1623,-2.2509,-2.2888,-2.2888,-2.2888,-2.2933,-2.3053,-2.329,-2.3493,-2.3724,-2.4276,-2.4539,-2.4626,-2.5258,-2.6224,-2.7277,-2.7684,-2.8092,-2.8576,-2.9102,-2.9393,-2.9601,-3.0293,-3.0601,-3.0757,-3.1112,-3.119,-3.1112,-3.1032,-3.0975,-3.0935,-3.0692,-3.0038,-2.9435,-2.9572,-2.9406,-2.9268,-2.9304,-3.0191,-3.0945,-3.0928,-3.145,-3.2033,-3.2382,-3.1962,-3.1736,-3.2327,-3.2216,-3.2201,-3.2532,-3.3161,-3.3491,-3.3346,-3.4317,-3.4721,-3.4086,-3.4911,-3.5571,-3.5873,-3.6843,-3.7356,-3.7226,-3.7413,-3.7356,-3.6935,-3.7884,-3.831,-3.8091,-3.9144,-3.9683,-3.9425,-2.8055,-2.048,0.0,0.0,0.0,-0.6208,0.0,0.0,0.0,0.0,-0.5193,0.0,0.0,0.0,0.0,0.0,-0.6705,-0.5982,-0.6606,0.0,0.0,0.0,0.0,0.0,0.0,0.0,0.0,0.0,-1.1127,0.0,-1.2288,-1.2399,-1.5825,-1.6323,-1.69,-1.7683,-1.803,-1.879,-1.9972,-2.0402,-2.1134,-2.2184,-2.2661,-2.2888,-2.2888,-2.2888,-2.3098,-2.3363,-2.3406,-2.3824,-2.4457,-2.4498,-2.462,-2.4782,-2.4661,-2.5262,-2.6322,-2.7747,-2.8458,-2.8812,-2.9507,-3.0081,-3.0477,-3.0477,-3.0797,-3.119,-3.119,-3.1112,-3.0975,-3.0912,-3.0912,-3.0831,-3.0568,-3.0241,-2.9837,-2.9257,-2.909,-2.9155,-2.9246,-3.0126,-3.1013,-3.1371,-3.2251,-3.2895,-3.2641,-3.2501,-3.2446,-3.2382,-3.2841,-3.3039,-3.2641,-3.3351,-3.3899,-3.3848,-3.4802,-3.5178,-3.4625,-3.5191,-3.5616,-3.5616,-3.6266,-3.6816,-3.717,-3.7226,-3.7226,-3.7188,-3.7488,-3.7799,-3.8091,-3.8794,-3.9339,-3.9425,-2.7945,-2.2524,0.0,0.0,-0.9772,-0.8388,0.0,0.0,0.0,0.0,0.0,0.0,0.0,0.0,0.0,0.0,-0.7149,-0.6745,-0.6712,-0.6527,0.0,0.0,0.0,0.0,0.0,0.0,0.0,0.0,0.0,0.0,-1.1912,0.0,-1.5119,-1.5997,-1.6729,-1.7346,-1.8097,-1.893,-1.9723,-2.057,-2.1415,-2.2231,-2.2661,-2.2888,-2.2902,-2.3127,-2.329,-2.3406,-2.3909,-2.4276,-2.4498,-2.4726,-2.4846,-2.4942,-2.4766,-2.5227,-2.6053,-2.6532,-2.754,-2.8864,-2.9878,-3.0576,-3.0958,-3.0958,-3.1055,-3.119,-3.119,-3.1151,-3.1112,-3.0992,-3.0992,-3.0895,-3.0692,-3.0342,-3.0011,-3.0027,-2.981,-2.9592,-2.9605,-3.0545,-3.1339,-3.1325,-3.2233,-3.3108,-3.3507,-3.3507,-3.3351,-3.3065,-3.2834,-3.2857,-3.3403,-3.3901,-3.4218,-3.4151,-3.5131,-3.5543,-3.4927,-3.5543,-3.6019,-3.6019,-3.6385,-3.6533,-3.6409,-3.6597,-3.6638,-3.655,-3.6869,-3.7399,-3.8091,-3.8644,-3.9175,-3.9517,-3.1892,-2.6284,-1.0589,-1.1073,0.0,-1.0177,-0.9605,0.0,-0.7677,0.0,0.0,0.0,0.0,0.0,0.0,0.0,-0.8421,-0.8277,-0.7544,-0.684,0.0,-0.6958,0.0,0.0,0.0,0.0,0.0,0.0,-1.0312,-1.1423,-1.1527,0.0,0.0,-1.5742,-1.6636,-1.6913,-1.8017,-1.8934,-1.9539,-2.0466,-2.1318,-2.2136,-2.2757,-2.3098,-2.3098,-2.3436,-2.3681,-2.3809,-2.4276,-2.458,-2.4701,-2.4926,-2.4966,-2.4942,-2.4822,-2.524,-2.5909,-2.6117,-2.7478,-2.9337,-3.0409,-3.0958,-3.119,-3.119,-3.119,-3.119,-3.119,-3.119,-3.119,-3.1015,-3.1015,-3.1015,-3.0814,-3.0551,-3.0326,-3.0342,-3.0199,-2.9984,-2.9853,-3.0671,-3.1467,-3.1421,-3.2178,-3.3034,-3.3901,-3.3797,-3.3607,-3.3607,-3.3208,-3.3156,-3.3797,-3.4218,-3.4464,-3.4497,-3.5333,-3.5694,-3.5316,-3.5711,-3.6036,-3.6122,-3.6233,-3.6259,-3.6174,-3.6241,-3.6241,-3.6276,-3.6374,-3.6973,-3.8041,-3.8322,-3.8906,-3.9626,-3.6028,-3.0131]},{"header":{"parameterUnit":"m.s-1","parameterCategory":1,"la1":30.6,"la2":29.2853,"lo1":-89.7004,"lo2":-87.6739,"dy":0.0162,"dx":0.0183,"nx":112,"ny":82,"refTime":"2024-09-12T00:00:00:Z","depth":0,"parameterNumber":3,"parameterNumberName":"V-component_of_WINDS"},"data":[0.0,0.0,0.0,0.0,0.0,0.0,0.0,0.0,0.0,0.0,0.0,0.0,0.0,0.0,0.0,0.0,0.0,0.0,0.0,0.0,0.0,0.0,0.0,0.0,0.0,0.0,0.0,0.0,0.0,0.0,0.0,0.0,0.0,0.0,0.0,0.0,0.0,0.0,0.0,0.0,0.0,0.0,0.0,0.0,0.0,0.0,0.0,0.0,0.0,0.0,0.0,0.0,0.0,0.0,0.0,0.0,0.0,0.0,0.0,0.0,0.0,0.0,0.0,0.0,0.0,0.0,0.0,0.0,0.0,0.0,0.0,0.0,0.0,0.0,0.0,0.0,0.0,0.0,0.0,0.0,0.0,0.0,0.0,0.0,0.0,0.0,0.0,0.0,0.0,0.0,0.0,1.7674,2.029,2.1869,2.1811,2.1869,2.0411,1.692,0.0,0.0,0.0,0.0,0.0,0.0,0.0,0.0,0.0,0.0,0.0,0.0,0.0,0.0,0.0,0.0,0.0,0.0,0.0,0.0,0.0,0.0,0.0,0.0,0.0,0.0,0.0,0.0,0.0,0.0,0.0,0.0,0.0,0.0,0.0,0.0,0.0,0.0,0.0,0.0,0.0,0.0,0.0,0.0,0.0,0.0,0.0,0.0,0.0,0.0,0.0,0.0,0.0,0.0,0.0,0.0,0.0,0.0,0.0,0.0,0.0,0.0,0.0,0.0,0.0,0.0,0.0,0.0,0.0,0.0,0.0,0.0,0.0,0.0,0.0,0.0,0.0,0.0,0.0,0.0,0.0,0.0,0.0,0.0,0.0,0.0,0.0,0.0,0.0,0.0,0.0,0.0,0.0,0.0,0.0,0.0,0.0,0.0,0.0,0.0,0.0,0.0,0.0,0.0,1.641,2.0648,2.1516,2.184,2.1899,2.184,2.0589,1.7685,0.0,0.0,0.0,0.0,0.0,0.0,0.0,0.0,0.0,0.0,0.0,0.0,0.0,0.0,0.0,0.0,0.0,0.0,0.0,0.0,0.0,0.0,0.0,0.0,0.0,0.0,0.0,0.0,0.0,0.0,0.0,0.0,0.0,0.0,0.0,0.0,0.0,0.0,0.0,0.0,0.0,0.0,0.0,0.0,0.0,0.0,0.0,0.0,0.0,0.0,0.0,0.0,0.0,0.0,0.0,0.0,0.0,0.0,0.0,0.0,0.0,0.0,0.0,0.0,0.0,0.0,0.0,0.0,0.0,0.0,0.0,0.0,0.0,0.0,0.0,0.0,0.0,0.0,0.0,0.0,0.0,0.0,0.0,0.0,0.0,0.0,0.0,0.0,0.0,0.0,0.0,0.0,0.0,0.0,0.0,0.0,0.0,0.0,0.0,0.0,0.0,0.0,0.0,1.5424,1.7683,2.14,2.184,2.184,2.184,2.184,2.065,1.783,1.623,0.0,0.0,0.0,0.0,0.0,0.0,0.0,0.0,0.0,0.0,0.0,0.0,0.0,0.0,0.0,0.0,0.0,0.0,0.0,0.0,0.0,0.0,0.0,0.0,0.0,0.0,0.0,0.0,0.0,0.0,0.0,0.0,0.0,0.0,0.0,0.0,0.0,0.0,0.0,0.0,0.0,0.0,0.0,0.0,0.0,0.0,0.0,0.0,0.0,0.0,0.0,0.0,0.0,0.0,0.0,0.0,0.0,0.0,0.0,0.0,0.0,0.0,0.0,0.0,0.0,0.0,0.0,0.0,0.0,0.0,0.0,0.0,0.0,0.0,0.0,0.0,0.0,0.0,0.0,0.0,0.0,0.0,0.0,0.0,0.0,0.0,0.0,0.0,0.0,0.0,0.0,0.0,0.0,0.0,0.0,0.0,0.0,0.0,0.0,0.0,0.0,0.0,1.7256,1.8897,2.1516,2.184,2.1869,2.1827,2.1358,2.0017,1.7522,1.5646,0.0,0.0,0.0,0.0,0.0,0.0,0.0,0.0,0.0,0.0,0.0,0.0,0.0,0.0,0.0,0.0,0.0,0.0,0.0,0.0,0.0,0.0,0.0,0.0,0.0,0.0,0.0,0.0,0.0,0.0,0.0,0.0,0.0,0.0,0.0,0.0,0.0,0.0,0.0,0.0,0.0,0.0,0.0,0.0,0.0,0.0,0.0,0.0,0.0,0.0,0.0,0.0,0.0,0.0,0.0,0.0,0.0,0.0,0.0,0.0,0.0,0.0,0.0,0.0,0.0,0.0,0.0,0.0,0.0,0.0,0.0,0.0,0.0,0.0,0.0,0.0,0.0,0.0,0.0,0.0,0.0,0.0,0.0,0.0,0.0,0.0,0.0,0.0,0.0,0.0,0.0,0.0,0.0,0.0,0.0,0.0,0.0,0.0,0.0,0.0,0.0,0.0,1.7351,1.9776,2.1615,2.1781,2.184,2.1899,1.9936,1.8161,1.6773,1.3947,0.0,0.0,0.0,0.0,0.0,0.0,0.0,0.0,0.0,0.0,0.0,0.0,0.0,0.0,0.0,0.0,0.0,0.0,0.0,0.0,0.0,0.0,0.0,0.0,0.0,0.0,0.0,0.0,0.0,0.0,0.0,0.0,0.0,0.0,0.0,0.0,0.0,0.0,0.0,0.0,0.0,0.0,0.0,0.0,0.0,0.0,0.0,0.0,0.0,0.0,0.0,0.0,0.0,0.0,0.0,0.0,0.0,0.0,0.0,0.0,0.0,0.0,0.0,0.0,0.0,0.0,0.0,0.0,0.0,0.0,0.0,0.0,0.0,0.0,0.0,0.0,0.0,0.0,0.0,0.0,0.0,0.0,0.0,0.0,0.0,0.0,0.0,0.0,0.0,0.0,0.0,0.0,0.0,0.0,0.0,0.0,0.0,0.0,0.0,0.0,0.0,0.0,1.6994,1.9454,0.0,2.1678,2.1811,2.184,2.0633,1.8917,1.6691,0.0,0.0,0.0,0.0,0.0,0.0,0.0,0.0,0.0,0.0,0.0,0.0,0.0,0.0,0.0,0.0,0.0,0.0,0.0,0.0,0.0,0.0,0.0,0.0,0.0,0.0,0.0,0.0,0.0,0.0,0.0,0.0,0.0,0.0,0.0,0.0,0.0,0.0,0.0,0.0,0.0,0.0,0.0,0.0,0.0,0.0,0.0,0.0,0.0,0.0,0.0,0.0,0.0,0.0,0.0,0.0,0.0,0.0,0.0,0.0,0.0,0.0,0.0,0.0,0.0,0.0,0.0,0.0,0.0,0.0,0.0,0.0,0.0,0.0,0.0,0.0,0.0,0.0,0.0,0.0,0.0,0.0,0.0,0.0,0.0,0.0,0.0,0.0,0.0,0.0,0.0,0.0,0.0,0.0,0.0,0.0,0.0,0.0,0.0,0.0,0.0,0.0,1.4261,1.7147,1.9656,0.0,2.1661,2.1797,2.1797,2.0489,1.8668,1.6313,0.0,0.0,0.0,0.0,0.0,0.0,0.0,0.0,0.0,0.0,0.0,0.0,0.0,0.0,0.0,0.0,0.0,0.0,0.0,0.0,0.0,0.0,0.0,0.0,0.0,0.0,0.0,0.0,0.0,0.0,0.0,0.0,0.0,0.0,0.0,0.0,0.0,0.0,0.0,0.0,0.0,0.0,0.0,0.0,0.0,0.0,0.0,0.0,0.0,0.0,0.0,0.0,0.0,0.0,0.0,0.0,0.0,0.0,0.0,0.0,0.0,0.0,0.0,0.0,0.0,0.0,0.0,0.0,0.0,0.0,0.0,0.0,0.0,0.0,0.0,0.0,0.0,0.0,0.0,0.0,0.0,0.0,0.0,0.0,0.0,0.0,0.0,0.0,0.0,0.0,0.0,0.0,0.0,0.0,0.0,0.0,0.0,0.0,0.0,0.0,0.0,0.0,1.4658,1.7952,2.0635,2.1685,2.1797,2.1797,2.1797,1.9164,1.6924,0.0,0.0,0.0,0.0,0.0,0.0,0.0,0.0,0.0,0.0,0.0,0.0,0.0,0.0,0.0,0.0,0.0,0.0,0.0,0.0,0.0,0.0,0.0,0.0,0.0,0.0,0.0,0.0,0.0,0.0,0.0,0.0,0.0,0.0,0.0,0.0,0.0,0.0,0.0,0.0,0.0,0.0,0.0,0.0,0.0,0.0,0.0,0.0,0.0,0.0,0.0,0.0,0.0,0.0,0.0,0.0,0.0,0.0,0.0,0.0,0.0,0.0,0.0,0.0,0.0,0.0,0.0,0.0,0.0,0.0,0.0,0.0,0.0,0.0,0.0,0.0,0.0,0.0,0.0,0.0,0.0,0.0,0.0,0.0,0.0,0.0,0.0,0.0,0.0,0.0,0.0,0.0,0.0,0.0,0.0,0.0,0.0,0.0,0.0,0.0,0.0,0.0,0.0,1.4405,1.8278,2.1113,2.1417,2.1678,2.1797,2.1797,2.0075,1.7963,1.5558,0.0,0.0,0.0,0.0,0.0,0.0,0.0,0.0,0.0,0.0,0.0,0.0,0.0,0.0,0.0,0.0,0.0,0.0,0.0,0.0,0.0,0.0,0.0,0.0,0.0,0.0,0.0,0.0,0.0,0.0,0.0,0.0,0.0,0.0,0.0,0.0,0.0,0.0,0.0,0.0,0.0,0.0,0.0,0.0,0.0,0.0,0.0,0.0,0.0,0.0,0.0,0.0,0.0,0.0,0.0,0.0,0.0,0.0,0.0,0.0,0.0,0.0,0.0,0.0,0.0,0.0,0.0,0.0,0.0,0.0,0.0,0.0,0.0,0.0,0.0,0.0,0.0,0.0,0.0,0.0,0.0,0.0,0.0,0.0,0.0,0.0,0.0,0.0,0.0,0.0,0.0,0.0,0.0,0.0,0.0,0.0,0.0,0.0,0.0,0.0,0.0,0.0,1.4645,1.8448,2.1151,2.1294,2.1495,2.1631,2.1797,2.0721,1.8842,1.5987,0.0,0.0,0.0,0.0,0.0,0.0,0.0,0.0,0.0,0.0,0.0,0.0,0.0,0.0,0.0,0.0,0.0,0.0,0.0,0.0,0.0,0.0,0.0,0.0,0.0,0.0,0.0,0.0,0.0,0.0,0.0,0.0,0.0,0.0,0.0,0.0,0.0,0.0,0.0,0.0,0.0,0.0,0.0,0.0,0.0,0.0,0.0,0.0,0.0,0.0,0.0,0.0,0.0,0.0,0.0,0.0,0.0,0.0,0.0,0.0,0.0,0.0,0.0,0.0,0.0,0.0,0.0,0.0,0.0,0.0,0.0,0.0,0.0,0.0,0.0,0.0,0.0,0.0,0.0,0.0,0.0,0.0,0.0,0.0,0.0,0.0,0.0,0.0,0.0,0.0,0.0,0.0,0.0,0.0,0.0,0.0,0.0,0.0,0.0,0.0,0.0,0.0,1.5261,1.854,2.0958,2.1309,2.1356,2.1464,2.1751,2.1102,1.9505,1.6681,0.0,0.0,0.0,0.0,0.0,0.0,0.0,0.0,0.0,0.0,0.0,0.0,0.0,0.0,0.0,0.0,0.0,0.0,0.0,0.0,0.0,0.0,0.0,0.0,0.0,0.0,0.0,0.0,0.0,0.0,0.0,0.0,0.0,0.0,0.0,0.0,0.0,0.0,0.0,0.0,0.0,0.0,0.0,0.0,0.0,0.0,0.0,0.0,0.0,0.0,0.0,0.0,0.0,0.0,0.0,0.0,0.0,0.0,0.0,0.0,0.0851,0.0,0.0,0.0,0.0,0.0,0.0,0.0,0.0,0.0,0.0,0.0,0.0,0.0,0.0,0.0,0.0,0.0,0.0,0.0,0.0,0.0,0.0,0.0,0.0,0.0,0.0,0.0,0.0,0.0,0.0,0.0,0.0,0.0,0.0,0.0,0.0,0.0,0.0,0.0,0.0,0.0,1.5551,1.8672,2.1007,2.1648,2.1691,2.1721,2.1781,2.1102,1.9721,1.7406,1.5878,0.0,0.0,0.0,0.0,0.0,0.0,0.0,0.0,0.0,0.0,0.0,0.0,0.0,0.0,0.0,0.0,0.0,0.0,0.0,0.0,0.0,0.0,0.0,0.0,0.0,0.0,0.0,0.0,0.0,0.0,0.0,0.0,0.0,0.0,0.0,0.0,0.0,0.0,0.0,0.0,0.0,0.0,0.0,0.0,0.0,0.0,0.0,0.0,0.0,0.0,0.0,0.0,0.0,0.0,0.0,0.0,0.0,0.0,0.0,0.0,0.1239,0.0,0.0,0.0,0.0,0.0,0.0,0.0,0.0,0.0,0.0,0.0,0.0,0.0,0.0,0.0,0.0,0.0,0.0,0.0,0.0,0.0,0.0,0.0,0.0,0.0,0.0,0.0,0.0,0.0,0.0,0.0,0.0,0.0,0.0,0.0,0.0,0.0,0.0,0.0,0.0,1.6053,1.8919,2.0909,2.1293,2.1448,2.1601,2.1797,2.1561,2.0669,1.885,1.7856,0.0,0.0,0.0,0.0,0.0,0.0,0.0,0.0,0.0,0.0,0.0,0.0,0.0,0.0,0.0,0.0,0.0,0.0,0.0,0.0,0.0,0.0,0.0,0.0,0.0,0.0,0.0,0.0,0.0,0.0,0.0,0.0,0.0,0.0,0.0,0.0,0.0,0.0,0.0,0.0,0.0,0.0,0.0,0.0,0.0,0.0,0.0,0.0,0.0,0.0,0.0,0.0,0.0,-0.2665,-0.2529,-0.2517,-0.1559,-0.1312,-0.1539,-0.0139,0.0361,0.0269,0.1658,0.0,0.0,0.0,0.0,0.0,0.0,0.0,0.0,0.0,0.0,0.0,0.0,0.0,0.0,0.0,0.0,0.0,0.0,0.0,0.0,0.0,0.0,0.0,0.0,0.7346,0.8338,0.7534,0.0,0.0,0.0,0.0,0.0,0.0,0.0,0.0,0.0,0.0,0.0,1.6834,1.9247,2.086,2.0942,2.1214,2.1495,2.1797,2.1982,2.1606,2.0365,1.986,1.8728,0.0,0.0,0.0,0.0,0.0,0.0,0.0,0.0,0.0,0.0,0.0,0.0,0.0,0.0,0.0,0.0,0.0,0.0,0.0,0.0,0.0,0.0,0.0,0.0,0.0,0.0,0.0,0.0,0.0,0.0,0.0,0.0,-0.0412,-0.0503,0.0,0.0,0.0,0.0,0.0,0.0,0.0,0.0,0.0,0.0,0.0,0.0,0.0,-0.2296,-0.2762,-0.3697,-0.4097,-0.4015,-0.4664,-0.4868,-0.4731,-0.389,-0.3549,-0.3574,-0.2248,0.0,0.0375,0.0578,0.0,0.0,0.0,0.0,0.0,0.0,0.0,0.0,0.0,0.0,0.0,0.0,0.0,0.0,0.0,0.0,0.0,0.0,0.0,0.0,0.0,0.0,0.5488,0.5904,0.7042,0.8146,0.0,0.945,1.0085,0.9932,1.008,0.0,0.0,0.0,0.0,0.0,0.0,0.0,1.8257,1.9862,2.1007,2.1601,2.1691,2.1768,2.1797,2.184,2.1618,2.1087,2.0398,1.9757,1.9152,1.7134,0.0,0.0,0.0,0.0,0.0,0.0,0.0,0.0,0.0,0.0,0.0,0.0,0.0,0.0,0.0,0.0,0.0,0.0,0.0,0.0,0.0,0.0,0.0,0.0,0.0,0.0,0.0,0.0,0.0,-0.0927,-0.095,-0.0977,-0.108,-0.0904,0.0,0.0,0.0,0.0,0.0,0.0,0.0,0.0,0.0,-0.269,-0.2849,-0.3318,-0.41,-0.4853,-0.5186,-0.5072,-0.5296,-0.5339,-0.5154,-0.4363,-0.3997,-0.3936,-0.3077,-0.2012,-0.0936,0.0153,0.1109,0.2029,0.0,0.0,0.0,0.0,0.4496,0.4365,0.3532,0.2369,0.0,0.0781,0.0,0.0,0.0,0.0,0.0,0.0,0.0,0.0,0.0,0.0,0.5422,0.6239,0.7432,0.8589,0.9316,1.0431,1.1221,0.0,1.083,1.1013,1.1173,0.0,0.0,0.0,0.0,1.7312,1.9134,2.0352,2.1183,2.1495,2.1708,2.1797,2.1797,2.213,2.2238,2.2048,2.2087,2.1856,2.1304,1.9822,1.8199,0.0,0.0,0.0,0.0,0.0,0.0,0.0,0.0,0.0,0.0,0.0,0.0,0.0,0.0,0.0,0.0,0.0,0.0,0.0,0.0,0.0,0.0,0.0,0.0,0.0,0.0,0.0,0.0,-0.126,-0.1462,-0.1621,-0.1716,-0.1453,0.0,0.0,0.0,0.0,0.0,0.0,-0.2551,-0.2445,-0.2823,-0.3741,-0.3952,-0.45,-0.5562,-0.5981,-0.625,-0.6367,-0.6178,-0.6076,-0.5883,-0.5078,-0.4646,-0.4584,-0.3773,-0.3086,-0.2442,-0.0458,0.0603,0.1131,0.2733,0.4149,0.5257,0.4685,0.4216,0.3788,0.3098,0.2004,0.0737,0.0162,-0.0361,-0.0783,-0.0632,0.0,0.0,0.0,0.0,0.2116,0.2647,0.3889,0.5155,0.6126,0.7403,0.858,0.9363,1.0891,1.1971,0.0,1.1913,1.2283,1.2604,0.0,0.0,0.0,0.0,1.833,1.9862,2.0845,2.1448,2.1509,2.1823,2.2044,2.2044,2.2446,2.2738,2.2815,2.3307,2.3386,2.2935,2.2062,2.0638,1.8626,0.0,0.0,0.0,0.0,0.0,0.0,0.0,0.0,0.0,0.0,0.0,0.0,0.0,0.0,0.0,0.0,0.0,0.0,0.0,0.0,0.0,0.0,0.0,0.0,0.0,0.0,0.0,0.0,0.0,-0.2708,-0.2747,0.0,0.0,0.0,0.0,-0.218,-0.2889,-0.3377,-0.3453,-0.4015,-0.4691,-0.5348,-0.5295,-0.5843,-0.7066,-0.7144,-0.7427,-0.8046,-0.809,-0.8001,-0.7797,-0.695,-0.6433,-0.6175,-0.486,-0.414,-0.3727,-0.1755,-0.006,0.1106,0.0463,0.2016,0.4559,0.3647,0.3134,0.2736,0.1222,-0.0429,-0.1716,-0.1344,-0.1754,-0.2393,-0.2288,-0.1709,0.0,0.0,0.0523,0.1641,0.1275,0.269,0.4339,0.4948,0.6152,0.7478,0.8598,1.035,1.1947,0.0,1.363,1.4665,1.5927,0.0,1.6788,1.8268,1.8839,1.9493,2.0619,2.129,2.182,2.2136,2.2456,2.2634,2.2634,2.266,2.2859,2.314,2.3277,2.3463,2.3728,2.3012,2.2123,2.1048,1.8735,0.0,0.0,0.0,0.0,0.0,0.0,0.0,0.0,0.0,0.0,0.0,0.0,0.0,0.0,0.0,0.0,0.0,0.0,0.0,0.0,0.0,0.0,0.0,0.0,0.0,0.0,0.0,0.0,-0.2585,-0.3039,0.0,-0.2452,-0.2892,-0.3311,-0.3478,-0.3947,-0.4381,-0.4775,-0.491,-0.5232,-0.5918,-0.565,-0.6262,-0.7817,-0.7695,-0.7997,-0.8647,-0.8546,-0.8306,-0.7962,-0.7111,-0.6593,-0.633,-0.5282,-0.4688,-0.448,-0.4129,-0.2362,0.0124,0.0,-0.0483,-0.0964,0.0362,0.0369,-0.0378,-0.0823,-0.2026,-0.3409,-0.3151,-0.3325,-0.3451,-0.2953,-0.256,-0.2242,-0.1848,-0.1307,-0.0625,0.0322,0.1295,0.2518,0.465,0.5942,0.7093,0.8595,0.9942,1.1323,1.3215,1.4533,1.559,1.6339,1.7518,1.8721,1.9775,2.0824,2.184,2.2736,2.2618,2.2582,2.2861,2.2609,2.2473,2.266,2.2989,2.3218,2.3374,2.3744,2.4022,2.4192,2.3821,2.3195,2.2318,2.088,1.8659,0.0,0.0,0.0,0.0,0.0,0.0,0.0,0.0,0.0,0.0,0.0,0.0,0.0,0.0,0.0,0.0,0.0,0.0,0.0,0.0,0.0,0.0,0.0,0.0,0.0,0.0,-0.3286,-0.2849,-0.3357,-0.3457,-0.2847,-0.3569,-0.4169,-0.4343,-0.4958,-0.5475,-0.5839,-0.5994,-0.6379,-0.7095,-0.6884,-0.7513,-0.9157,-0.8958,-0.9162,-0.9773,-0.9643,-0.9416,-0.9053,-0.8179,-0.7516,-0.705,-0.6443,-0.5834,-0.5294,-0.5916,-0.4763,-0.2534,-0.1605,-0.2343,-0.3819,-0.269,-0.2586,-0.3063,-0.2994,-0.3836,-0.4983,-0.513,-0.522,-0.5095,-0.4659,-0.4353,-0.4056,-0.3489,-0.2994,-0.2225,-0.0598,0.04,0.1663,0.4331,0.5668,0.6915,0.865,1.004,1.1589,1.3886,1.5229,1.6339,1.7349,1.8901,2.0203,2.0846,2.2013,2.3016,2.3687,2.3647,2.3684,2.399,2.3443,2.3128,2.3344,2.3413,2.3504,2.3556,2.3926,2.4229,2.4338,2.3897,2.3418,2.2923,2.1515,1.9731,1.7541,0.0,0.0,0.0,0.0,0.0,0.0,0.0,0.0,0.0,0.0,0.0,0.0,0.0,0.0,0.0,0.0,0.0,0.0,0.0,0.0,0.0,0.0,0.0,-0.3281,-0.3599,-0.3794,-0.364,-0.3845,-0.3956,-0.384,-0.4423,-0.4751,-0.4809,-0.5876,-0.6543,-0.6543,-0.7366,-0.819,-0.8991,-0.9002,-0.9678,-1.1011,-1.0805,-1.0949,-1.1436,-1.1443,-1.1368,-1.1162,-1.0245,-0.9335,-0.8428,-0.8348,-0.7495,-0.6369,-0.7011,-0.7091,-0.6639,-0.4645,-0.3613,-0.3496,-0.5264,-0.5579,-0.5109,-0.5348,-0.5858,-0.6572,-0.7228,-0.7488,-0.7488,-0.7428,-0.6976,-0.6326,-0.5536,-0.4348,-0.2954,-0.154,-0.0,0.167,0.3682,0.5282,0.685,0.8698,1.0608,1.2619,1.4625,1.5711,1.6974,1.9124,2.0418,2.1266,2.17,2.243,0.0,2.3351,2.4315,2.5068,2.5401,2.5009,2.473,2.4694,2.405,2.3674,2.3735,2.3858,2.4019,2.4229,2.3345,2.2886,2.2941,2.0659,1.953,1.963,0.0,0.0,0.0,0.0,0.0,0.0,0.0,0.0,0.0,0.0,0.0,0.0,0.0,0.0,0.0,0.0,0.0,0.0,0.0,0.0,0.0,-0.4708,-0.4998,-0.4415,-0.467,-0.4697,-0.4258,-0.4986,-0.5461,-0.5159,-0.5501,-0.6058,-0.6717,-0.6963,-0.7271,-0.7619,-0.8418,-0.8976,-0.9178,-0.9644,-1.0387,-1.1512,-1.116,-1.1307,-1.1961,-1.1821,-1.1567,-1.1155,-1.0648,-1.029,-0.9875,-0.9505,-0.9227,-0.9029,-0.8544,-0.8493,-0.8498,-0.7012,-0.6198,-0.5835,-0.6179,-0.622,-0.629,-0.7458,-0.7798,-0.7867,-0.8638,-0.8848,-0.8775,-0.8216,-0.7803,-0.7393,-0.663,-0.6007,-0.531,-0.3895,-0.2617,-0.1126,0.0622,0.2749,0.4781,0.6117,0.8409,1.094,1.3331,1.5866,1.8052,1.9636,2.1021,2.2251,2.333,2.4445,0.0,2.5715,2.5766,2.5865,2.6181,2.5659,2.518,2.4942,2.4947,2.482,2.4452,2.4604,2.4749,2.4847,2.4432,2.4124,2.3986,2.2203,2.1023,0.0,0.0,0.0,0.0,0.0,0.0,0.0,0.0,0.0,0.0,0.0,0.0,0.0,0.0,0.0,0.0,0.0,0.0,0.0,0.0,0.0,0.0,-0.5967,-0.6351,-0.6192,-0.6039,-0.5775,-0.5413,-0.6129,-0.6588,-0.6368,-0.6813,-0.7342,-0.7896,-0.7873,-0.815,-0.885,-0.9227,-0.9706,-1.0407,-1.0864,-1.1501,-1.2326,-1.211,-1.2116,-1.249,-1.2627,-1.2529,-1.2284,-1.2045,-1.1744,-1.1314,-1.1101,-1.0824,-1.0408,-1.0194,-1.0133,0.0,0.0,0.0,0.0,0.0,-0.8122,-0.8862,-0.9276,-0.9725,-1.0203,-1.0635,-1.071,-1.0635,-1.0203,-0.9783,-0.9297,-0.8398,-0.7562,-0.6643,-0.5126,-0.3975,-0.2593,-0.0426,0.1695,0.3779,0.5413,0.8203,1.1073,1.328,1.6224,0.0,2.018,2.1923,2.3488,2.465,2.5579,2.6337,2.6977,2.7046,2.7151,2.7442,2.6889,2.6294,2.5716,2.5653,0.0,0.0,0.0,2.4769,2.4441,2.4308,0.0,0.0,0.0,0.0,0.0,0.0,0.0,0.0,2.1063,2.062,0.0,0.0,0.0,0.0,0.0,0.0,0.0,0.0,0.0,0.0,0.0,0.0,0.0,0.0,0.0,0.0,-0.7317,-0.7689,-0.8373,-0.7681,-0.7035,-0.6822,-0.7281,-0.7582,-0.7514,-0.8195,-0.8609,-0.868,-0.8852,-0.9221,-0.9991,0.0,0.0,0.0,0.0,-1.2673,-1.32,-1.32,-1.3119,-1.2973,-1.3542,-1.376,-1.376,-1.3753,-1.3361,-1.2677,-1.2945,-1.2358,-1.123,-1.1842,-1.1781,-1.1137,-0.995,-0.9211,-0.8917,-0.9552,-1.0673,-1.1766,-1.1102,0.0,0.0,-1.281,-1.281,-1.2742,-1.2682,-1.2183,-1.1414,-1.0393,-0.9129,-0.7691,-0.5946,-0.4937,-0.363,-0.0942,0.0939,0.2787,0.5395,0.8567,1.156,1.3656,1.6371,1.8883,2.0748,2.2833,2.4585,2.5513,2.6133,2.6794,2.7575,2.8094,2.8529,2.8808,0.0,0.0,2.6895,2.6386,2.5823,2.5129,2.5124,2.4755,2.3879,2.3992,2.4036,2.3997,2.4695,2.5489,2.6365,2.7158,2.7576,2.7561,2.3521,2.2791,0.0,0.0,0.0,0.0,0.0,0.0,0.0,0.0,0.0,0.0,0.0,0.0,0.0,0.0,0.0,-0.8451,-0.886,-0.9415,-1.0434,-1.0024,-0.9056,-0.7578,-0.8548,-0.9141,-0.8703,-0.9127,-0.9486,-0.9785,-1.0183,-1.0444,-1.0592,-1.1519,-1.2145,-1.2437,-1.3011,-1.3346,-1.3419,-1.3273,-1.32,-1.3127,0.0,0.0,-1.3339,-1.4057,-1.4194,-1.3825,-1.4129,-1.3977,-1.339,-1.2945,-1.2439,-1.199,-1.0911,-1.0273,-1.0051,-1.1436,-1.2058,-1.239,-1.3415,-1.397,-1.4191,-1.4191,-1.3986,-1.363,-1.32,-1.2625,0.0,-1.0512,-1.0619,-1.0583,-0.8548,-0.8128,-0.7742,-0.5436,-0.3405,-0.1172,0.1857,0.4708,0.7918,1.2077,1.4809,1.7611,2.136,2.3163,2.439,2.5303,2.6762,2.7804,2.7987,2.8602,2.9042,2.9124,2.9156,2.8944,2.8265,2.8223,2.7965,2.7401,2.7325,2.6907,2.6053,2.6642,2.6967,2.6974,2.7127,2.7312,2.7496,2.7668,2.8089,2.867,2.7001,2.6469,0.0,0.0,0.0,0.0,0.0,0.0,0.0,0.0,0.0,0.0,0.0,-0.6995,-0.7407,0.0,-0.9277,-1.026,-1.0652,-1.1022,-1.1587,-1.1543,-1.0823,-0.9176,-0.9729,-1.0172,-0.9876,-1.046,-1.0839,-1.1059,-1.1323,-1.17,-1.215,-1.2512,-1.2886,-1.3193,-1.3492,-1.3572,-1.3492,-1.3768,-1.3833,-1.3768,-1.4609,-1.4903,-1.4625,-1.5062,-1.5133,-1.4911,-1.4705,-1.4425,-1.4057,-1.347,-1.3039,-1.2746,-1.2917,-1.2618,-1.2198,-1.2785,-1.344,-1.4083,-1.4243,-1.4537,-1.4903,-1.4697,-1.4482,-1.4338,-1.4386,-1.4235,-1.3803,-1.3041,-1.2926,-1.2753,-1.1598,-1.0689,-0.967,-0.8171,-0.5588,-0.3006,-0.1174,0.3017,0.7504,1.1347,1.5191,1.8924,2.232,2.4161,2.5562,2.6661,2.7561,2.8379,2.8966,2.9364,2.96,2.9607,2.9783,2.9608,2.8905,2.8597,2.8342,2.8067,2.8061,2.7814,2.7326,2.7694,2.7881,2.7845,2.825,2.845,2.845,2.8845,2.9461,3.0235,2.974,2.9494,0.0,0.0,0.0,0.0,0.0,0.0,0.0,0.0,-0.7833,-0.8065,-0.8619,-0.9369,-1.0096,-1.0591,-1.1128,-1.194,-1.2087,-1.2272,-1.2474,-1.2627,-1.2269,-1.1121,-1.1087,-1.1153,-1.1225,-1.1866,-1.2291,-1.2291,-1.2579,-1.2945,-1.3564,-1.3324,-1.339,-1.3863,-1.4068,-1.4091,-1.3945,-1.4704,-1.5025,-1.4896,-1.6031,-1.6431,-1.6166,-1.6086,-1.5902,-1.5621,-1.5117,-1.476,-1.4466,-1.4386,-1.4171,-1.4099,-1.5147,-1.5226,-1.4752,-1.445,-1.5021,-1.5965,-1.51,-1.5313,-1.5886,-1.5409,-1.5338,-1.5392,-1.5745,-1.5807,-1.5728,-1.5413,-1.5081,-1.4687,-1.4253,-1.2876,-1.134,-1.0489,-0.7559,-0.4817,-0.3966,0.139,0.6937,1.0039,1.5194,1.9877,2.2418,2.49,2.6842,2.7735,2.811,2.8703,2.9826,3.0047,3.0106,3.0105,3.0278,3.0111,2.9486,2.8924,2.8548,2.8392,2.8567,2.8552,2.8301,2.8432,2.8499,2.845,2.9071,2.9416,2.9416,3.0239,3.0956,3.1611,3.1765,3.1826,-1.0545,-1.0322,-0.9919,-0.9542,-0.967,-1.0095,0.0,0.0,-1.0216,-1.0506,-1.0815,-1.1033,-1.1132,-1.1581,-1.2201,-1.3048,-1.2767,-1.2812,-1.3897,-1.3678,-1.3461,-1.3546,-1.302,-1.2764,-1.3114,-1.3295,-1.3317,-1.3317,-1.3753,-1.3977,-1.376,-1.4057,-1.4281,-1.4353,-1.5008,-1.5446,-1.565,-1.6559,-1.7011,-1.6937,-1.7492,-1.724,-1.6396,-1.6622,-1.6223,-1.5267,-1.5781,-1.5974,-1.6035,-1.6968,-1.7104,-1.6858,-1.684,-1.7005,-1.7316,-1.7248,-1.7101,-1.7042,-1.7628,-1.8152,-1.8469,-1.7842,-1.7745,-1.7765,-1.6835,-1.6219,-1.586,-1.5263,-1.5957,-1.6522,-1.5309,-1.4806,-1.4435,-1.3588,-1.0991,-0.8232,-0.6555,-0.2256,0.2397,0.6015,1.1947,1.7307,2.0101,2.4223,2.7011,2.6736,2.7815,2.8934,2.9723,3.0189,3.0443,3.0433,3.0561,3.0648,3.0612,3.0481,3.0136,2.9472,3.0007,3.0035,2.9366,3.0022,3.0394,3.038,3.0472,3.0526,3.0526,3.1383,3.186,3.1971,3.2731,3.2959,-1.2787,-1.2825,0.0,0.0,-1.2464,-1.2915,-1.2785,-1.2546,-1.2402,-1.2547,-1.2745,-1.3051,-1.3498,-1.3926,-1.4498,0.0,-1.5272,-1.5244,-1.5438,-1.5392,-1.5168,-1.4751,-1.4632,-1.4394,-1.3803,-1.4106,-1.4322,-1.4322,-1.4832,-1.4982,-1.4625,-1.5458,-1.5719,-1.5429,-1.643,-1.6907,-1.6898,-1.7741,-1.8054,-1.7832,-1.8304,-1.823,-1.7541,-1.732,-1.6715,-1.5897,-1.6654,-1.7,-1.7063,-1.8232,-1.8434,-1.809,-1.8734,-1.8755,-1.8331,-1.7735,-1.7668,-1.7891,-1.8345,-1.8593,-1.8649,-1.8572,-1.8609,-1.8588,-1.817,-1.791,-1.7707,-1.7503,-1.8342,-1.9117,-1.816,-1.787,-1.7514,-1.6354,-1.4222,-1.1893,-0.9928,-0.6179,-0.1482,0.4401,0.907,1.4233,2.1414,2.4223,2.628,2.8762,3.0,3.0742,3.094,3.1173,3.1139,3.0665,3.0673,3.0703,3.0749,3.0674,3.0528,3.0261,3.0506,3.0515,3.0204,3.0524,3.0935,3.144,3.1425,3.1621,3.2109,3.2492,3.2949,3.342,3.3848,3.4277,-1.4562,0.0,0.0,-1.4551,-1.5137,-1.5572,-1.4382,-1.4347,-1.4521,-1.4439,-1.4631,-1.5068,-1.554,-1.5913,-1.6315,-1.6853,-1.7042,-1.7042,-1.6784,-1.6762,-1.6528,-1.5977,-1.6192,-1.6,-1.513,-1.5317,-1.5534,-1.5534,-1.606,-1.6263,-1.6042,-1.6766,-1.7115,-1.6879,-1.799,-1.8499,-1.8341,-1.9235,-1.9461,-1.9079,-1.9406,-1.9283,-1.8723,-1.7997,-1.7477,-1.7142,-1.8165,-1.8651,-1.8933,-1.9981,-2.0375,-2.0263,-2.073,-2.0855,-2.0649,-1.9542,-1.9065,-1.9054,-1.9367,-1.9586,-1.976,-1.9964,-2.0145,-2.0273,-2.0147,-2.0105,-2.0051,-2.0041,-2.0726,-2.126,-2.076,-2.0125,-1.9501,-1.8889,-1.6729,-1.4614,-1.3939,-1.048,-0.61,-0.1152,0.4198,1.027,1.7601,2.2164,2.5916,2.9401,3.1506,3.2547,3.214,3.2135,3.1953,3.1397,3.1116,3.1008,3.1042,3.0787,3.0716,3.1017,3.104,3.1137,3.1373,3.1393,3.1685,3.2316,3.2274,3.2561,3.3137,3.3402,3.3844,3.4431,3.4746,3.5234,0.0,0.0,-1.8131,-1.6588,-1.7346,-1.8065,-1.6504,-1.6401,-1.6598,-1.6312,-1.6549,-1.6844,-1.6844,-1.6853,-1.6922,-1.7042,-1.7101,-1.7316,-1.7891,-1.7521,-1.7324,-1.768,-1.7755,-1.77,-1.77,-1.7321,-1.7001,-1.7001,-1.745,-1.7806,-1.7981,-1.7889,-1.8119,-1.868,-1.9703,-2.0237,-2.0237,-2.1226,-2.1614,-2.1385,-2.0991,-2.0466,-1.961,-1.8658,-1.858,-1.9305,-2.0419,-2.1333,-2.2082,-2.2831,-2.3676,-2.4464,-2.2752,-2.3526,-2.5413,-2.3847,-2.2243,-2.0892,-2.1307,-2.2201,-2.3119,-2.2865,-2.3221,-2.3612,-2.2971,-2.278,-2.2733,-2.2493,-2.2445,-2.2445,-2.2445,-2.0854,-1.9738,-2.1323,-1.8258,-1.5774,-1.8751,-1.5151,-1.1831,-1.3575,-0.368,0.4975,0.4982,1.6773,2.6391,2.7095,3.1213,3.3875,3.2892,3.2829,3.2888,3.2936,3.2171,3.1753,3.1943,3.1119,3.0963,3.1804,3.1863,3.2237,3.3096,3.3122,3.3128,3.3172,3.3153,3.316,3.32,3.399,3.4413,3.4522,3.5295,3.5691,0.0,0.0,-1.9698,-1.9456,-1.946,-1.9371,-1.8858,-1.7849,-1.6973,-1.6833,-1.6248,-1.586,-1.6175,-1.6256,-1.6533,-1.752,-1.8425,-1.891,-1.8747,-1.902,-1.8931,-1.796,-1.8117,0.0,0.0,0.0,0.0,-1.8027,-1.8429,-1.8674,-1.8523,-1.9495,-2.0038,-2.0018,-2.1066,-2.1624,-2.1484,-2.18,-2.1807,-2.1502,-2.0799,-2.042,-2.0275,-1.9975,-2.018,-2.0771,-2.2172,-2.2905,-2.312,-2.419,-2.5078,-2.5695,-2.5098,-2.5498,-2.6264,-2.5769,-2.5204,-2.4664,-2.4577,-2.4761,-2.5027,-2.4945,-2.5015,-2.5007,-2.3917,-2.3436,-2.32,-2.2877,-2.3259,-2.3696,-2.3403,-2.3502,-2.367,-2.3196,-2.226,-2.1342,-2.1054,-1.9399,-1.7338,-1.5038,-1.1029,-0.4734,0.5545,1.2387,1.9813,2.9784,3.2807,3.3886,3.3625,3.3113,3.2761,3.2744,3.2396,3.218,3.219,3.1824,3.1737,3.2082,3.2192,3.234,3.2593,3.2832,3.3114,3.3522,3.3778,3.4133,3.4526,3.499,3.5214,3.5233,3.5538,3.569,-1.9324,-2.0447,-2.1355,-2.1455,-2.1269,-2.0838,-2.0083,-1.8878,-1.775,-1.7197,-1.6558,-1.6123,-1.6088,-1.6414,-1.6964,-1.7861,-1.8916,-1.9643,-1.976,-2.0295,-2.0369,-1.9563,-1.9962,-2.0136,0.0,0.0,0.0,-1.8854,-1.9561,-2.0,-2.0094,-2.1248,-2.2049,-2.2247,-2.272,-2.2894,-2.267,-2.2392,-2.2101,-2.1939,-2.0954,-2.0934,-2.1659,-2.1303,-2.1738,-2.2722,-2.3616,-2.4146,-2.4457,-2.538,-2.6258,-2.7113,-2.6806,-2.7405,-2.827,-2.7647,-2.7707,-2.794,-2.6856,-2.66,-2.668,-2.6868,-2.6733,-2.6398,-2.5701,-2.5188,-2.4842,-2.4592,-2.5011,-2.5411,-2.5052,-2.5521,-2.5861,-2.5011,-2.472,-2.4388,-2.3768,-2.3284,-2.2344,-2.0044,-1.6588,-1.0789,-0.0598,0.8097,1.7807,3.0073,3.2852,3.3691,3.3958,3.3681,3.3394,3.3223,3.2942,3.2724,3.2637,3.2354,3.2317,3.2638,3.2767,3.2918,3.3166,3.3446,3.3745,3.4091,3.4362,3.4711,3.51,3.5264,3.5393,3.5451,3.5504,3.5712,-2.124,-2.2423,-2.3192,-2.2704,-2.2694,-2.2323,-2.0384,-1.9532,-1.8753,-1.7471,-1.7452,-1.7363,-1.6451,0.0,-1.7946,-1.8006,-1.8731,-1.9652,-2.0905,-2.1365,-2.1764,0.0,0.0,0.0,0.0,0.0,0.0,-1.9866,0.0,-2.1908,-2.2753,-2.3142,-2.3963,-2.53,-2.4564,-2.4036,-2.3818,-2.2894,-2.2596,-2.2861,-2.1669,-2.2027,-2.3543,-2.2606,-2.3261,-2.5063,-2.4969,-2.5358,-2.6082,-2.6451,-2.7472,-2.868,-2.7929,-2.9212,-3.1349,-2.9667,-2.9846,-3.0572,-2.8319,-2.782,-2.8225,-2.8668,-2.8373,-2.7919,-2.8275,-2.7951,-2.7542,-2.7634,-2.759,-2.7509,-2.7408,-2.6872,-2.6409,-2.662,-2.5612,-2.5094,-2.6792,-2.6571,-2.6505,-2.7968,-1.9909,-1.2613,-1.1867,0.4551,2.0176,2.7941,3.1358,3.3268,3.3876,3.4414,3.4634,3.4285,3.3757,3.3369,3.3256,3.2713,3.2711,3.3469,3.3601,3.3942,3.4615,3.487,3.4889,3.4753,3.4851,3.4888,3.487,3.4889,3.4981,3.5184,3.5229,3.5768,-2.3277,-2.4137,-2.4618,-2.4915,-2.4024,-2.2874,-2.2108,-2.0379,-1.8588,-1.7401,-1.6466,-1.567,-1.4854,0.0,0.0,-1.7695,-1.9873,0.0,-2.3034,-2.4175,0.0,-2.5092,0.0,-2.5581,-2.5559,-2.6038,0.0,0.0,-2.4159,-2.4044,-2.4254,-2.4658,-2.5098,-2.5463,-2.4696,-2.4181,-2.3818,-2.3795,-2.4292,-2.5244,-2.4436,-2.4341,-2.4944,-2.4803,-2.555,-2.6928,-2.7167,-2.7762,-2.8474,-2.8217,-2.8793,-2.9771,-2.9482,-3.0527,-3.2104,-3.145,-3.1622,-3.2043,-3.1231,-3.0743,-3.0454,-3.0417,-3.0313,-3.0072,-2.9705,-2.9328,-2.9102,-2.9297,-2.883,-2.8351,-2.852,-2.8208,-2.7845,-2.7913,-2.7819,-2.7954,-2.8992,-2.6772,-2.4832,-2.5827,-1.6178,-0.6182,-0.0917,1.0087,2.0332,2.6748,2.9749,3.1742,3.3008,3.3792,3.4049,3.3658,3.367,3.3747,3.3855,3.3687,3.3626,3.3802,3.3915,3.4008,3.4087,3.4379,3.4423,3.4227,3.4551,3.4655,3.4449,3.4694,3.4851,3.4926,3.5571,3.6082,-2.4883,-2.5437,-2.571,-2.6065,-2.4956,-2.348,-2.2341,-2.0434,-1.8317,-1.6264,-1.5439,0.0,-1.3395,-1.4912,0.0,0.0,0.0,0.0,-2.4034,-2.5534,-2.6676,0.0,-2.7767,0.0,-2.7982,-2.833,-2.8493,0.0,-2.6953,-2.6125,-2.622,-2.6685,-2.7141,-2.7433,-2.6659,-2.5908,-2.5214,-2.5399,-2.6126,-2.7392,-2.6591,-2.6855,-2.8048,-2.7586,-2.8012,-2.9128,0.0,-2.924,-2.9549,-2.9652,-3.0079,-3.0793,-3.1129,-3.1804,-3.2641,-3.2342,-3.2287,-3.2327,-3.2342,-3.216,-3.1819,-3.1511,-3.1247,-3.0982,-3.0761,-3.0372,-3.0179,-3.0729,-3.0313,-2.9832,-3.0117,-2.9829,-2.9533,-3.0036,-3.0154,-3.0315,-3.0925,-2.7897,-2.4614,-2.3045,-1.4985,-0.6159,0.0985,0.9784,1.8065,2.4646,2.8338,3.0606,3.1384,3.2626,3.3291,3.2931,3.3259,3.3486,3.3393,3.3421,3.3468,3.3578,3.3689,3.3743,3.378,3.4037,3.4111,3.3998,3.4298,3.4348,3.4165,3.4371,3.4692,3.5155,3.5668,3.6438,-2.6321,-2.6579,-2.6654,-2.6616,-2.5558,-2.3953,-2.1874,-2.0047,-1.7906,-1.4903,0.0,-1.4086,-1.2374,-1.4672,-1.6837,-1.6965,0.0,-2.2377,-2.4557,-2.6272,-2.7777,-2.9131,-3.01,-3.0708,-3.0734,-3.0822,-3.1028,-3.1369,-2.9668,-2.8649,-2.8609,-2.9026,-2.9596,-3.0153,-2.9321,-2.8474,-2.7755,-2.7704,-2.8351,-2.9676,-2.8764,-2.9516,-3.1662,-3.051,-3.0482,-3.1373,-3.0733,-3.047,-3.0485,-3.1098,-3.157,-3.1875,-3.2617,-3.2986,-3.3093,-3.2803,-3.2492,-3.2256,-3.2602,-3.2765,-3.2695,-3.2272,-3.1763,-3.1451,-3.1856,-3.1576,-3.1328,-3.2127,-3.1983,-3.1629,-3.1966,-3.1542,-3.1229,-3.2187,-3.2233,-3.2141,-3.2552,-2.9558,-2.5184,-1.978,-1.4751,-0.8875,-0.0924,0.7153,1.5003,2.2483,2.6931,2.9518,2.9572,3.1313,3.2471,3.2262,3.2674,3.2849,3.2533,3.2627,3.2805,3.3111,3.3154,3.3243,3.3426,3.3606,3.377,3.3805,3.3947,3.3998,3.3921,3.4083,3.4617,3.5528,3.5843,3.685,-2.7867,-2.7853,-2.7565,-2.7321,-2.5872,-2.4085,-2.2434,-1.9836,0.0,0.0,-1.417,-1.3402,-1.291,-1.4833,-1.6916,-1.8131,0.0,0.0,0.0,0.0,-2.9852,0.0,0.0,0.0,0.0,0.0,0.0,0.0,0.0,-3.2835,-3.1339,-3.1332,-3.1287,-3.1157,-3.0437,-3.0577,-3.171,-3.1451,-3.198,-3.3349,-3.2672,-3.2457,-3.2657,-3.2044,-3.2244,-3.3057,-3.2777,0.0,-3.3924,-3.3774,-3.3639,-3.3585,-3.3479,-3.3649,-3.3935,-3.3366,-3.3435,-3.3678,-3.3277,-3.3487,-3.3729,-3.3224,-3.3287,-3.3604,-3.3655,-3.3843,-3.4103,-3.4263,-3.3834,-3.3373,-3.3403,-3.2904,-3.2403,-3.2591,-3.2754,-3.3,-3.3796,-3.1203,-2.5829,-1.61,-1.237,-0.7338,0.3632,0.9412,1.485,2.1872,2.5148,2.7459,2.9294,3.0808,3.1758,3.1862,3.2161,3.2431,3.266,3.266,3.2627,3.2613,3.253,3.2446,3.2431,3.2677,3.2805,3.2759,3.3321,3.3559,3.3437,3.4477,3.5063,3.5227,3.6693,3.7623,-2.8576,-2.8479,-2.8174,-2.7993,-2.6225,-2.4095,-2.2554,0.0,0.0,0.0,-1.3596,-1.2939,-1.2552,0.0,0.0,0.0,0.0,0.0,0.0,0.0,0.0,0.0,0.0,0.0,0.0,0.0,0.0,0.0,0.0,-3.462,-3.3441,-3.3579,-3.3565,-3.3338,-3.2971,-3.309,-3.3807,-3.376,-3.4237,-3.5348,-3.5087,-3.5053,-3.5237,-3.4981,-3.4987,-3.5205,-3.4831,-3.4868,-3.5199,-3.4764,-3.4638,-3.4624,-3.4622,-3.4781,-3.4971,-3.464,-3.4592,-3.4657,-3.4251,-3.4267,-3.4415,-3.4168,-3.4267,-3.4464,-3.4464,-3.4593,-3.488,-3.5161,-3.4801,-3.4396,-3.4672,-3.4119,-3.3678,-3.4276,-3.4743,-3.4026,-3.0236,-2.7787,-2.4686,-1.9119,-1.2192,-0.545,0.0312,0.7702,1.4754,2.0574,2.4103,2.6902,2.8964,3.0119,3.0982,3.1582,3.1806,3.1898,3.1774,3.1629,3.161,3.1773,3.1647,3.1666,3.1828,3.1899,3.2161,3.2652,3.3064,3.3544,3.4038,3.4776,3.5367,3.5765,3.6827,3.7606,-2.8726,-2.881,-2.8622,-2.8388,-2.6398,-2.4053,-2.2362,-1.9326,0.0,0.0,-1.3201,-1.2675,-1.2463,0.0,0.0,0.0,0.0,0.0,0.0,0.0,0.0,0.0,0.0,0.0,0.0,0.0,0.0,0.0,0.0,-3.5814,-3.5239,-3.5368,-3.5538,-3.5677,-3.56,-3.5591,-3.5608,-3.5783,-3.6202,-3.6791,-3.6852,-3.7092,-3.7524,-3.7488,-3.7325,-3.7064,-3.6663,-3.6365,-3.6143,-3.5762,-3.5623,-3.5761,-3.5942,-3.6019,-3.5985,-3.5882,-3.5664,-3.5369,-3.5018,-3.4958,-3.5005,-3.5081,-3.5035,-3.4958,-3.4958,-3.5052,-3.5191,-3.5616,-3.5436,-3.5237,-3.5732,-3.4645,-3.3685,-3.4762,-3.624,-3.5334,-2.7799,-2.6558,-2.5625,-2.1485,-1.3013,-0.5519,-0.2297,0.6587,1.4786,1.9389,2.345,2.6676,2.8628,2.9675,3.0695,3.1766,3.1768,3.1507,3.105,3.0828,3.0828,3.1106,3.0971,3.1083,3.1423,3.1402,3.1781,3.2698,3.3038,3.3646,3.4531,3.5049,3.5634,3.6275,3.6852,3.7468,-2.8088,-2.8767,-2.913,-2.7891,-2.6004,-2.3921,-2.1704,0.0,0.0,-1.4583,-1.333,-1.271,-1.3648,-1.4541,-1.5996,-1.8605,0.0,-2.1709,0.0,0.0,0.0,0.0,0.0,0.0,0.0,0.0,0.0,0.0,0.0,-3.7612,-3.6829,-3.6277,-3.6521,-3.7506,-3.7238,-3.7468,-3.8223,-3.8321,-3.8383,-3.8387,-3.8223,-3.8059,-3.7943,-3.7983,-3.8049,-3.8071,-3.7947,-3.7962,0.0,-3.7869,-3.7682,-3.7453,-3.7345,-3.7142,-3.6851,-3.6464,-3.6027,-3.561,-3.5352,-3.5386,-3.5616,-3.5942,-3.583,-3.5526,-3.5526,-3.5837,-3.6156,-3.6199,-3.6216,-3.6284,-3.6661,-3.365,-3.0725,-3.1702,-3.5356,-3.7111,-3.1542,-3.3925,-3.2645,-1.737,-1.4418,-1.0414,0.2332,0.9597,1.5005,1.9173,2.287,2.5895,2.8167,2.9884,3.1499,3.2993,3.2168,3.15,3.1462,3.1269,3.1151,3.119,3.1015,3.1016,3.1238,3.1437,3.1855,3.2408,3.316,3.3722,3.4077,3.5361,3.606,3.6149,3.7059,3.7506,-2.7875,-2.8679,-2.915,-2.863,-2.6684,-2.4388,-2.2527,0.0,-1.6222,-1.5111,-1.3686,-1.2975,-1.4093,-1.4163,-1.5152,-1.8358,-1.8779,-2.0115,-2.4159,0.0,0.0,0.0,0.0,0.0,0.0,0.0,0.0,0.0,0.0,-3.8659,-3.8401,-3.8141,-3.8172,-3.8637,-3.8516,-3.8623,-3.8952,-3.9036,-3.9107,-3.9207,-3.9122,-3.9104,-3.9133,-3.9139,-3.9081,-3.8951,-3.8813,-3.8729,0.0,-3.8538,-3.8334,-3.8144,-3.8315,-3.8255,-3.8004,-3.7796,-3.7628,-3.7399,-3.6978,-3.6938,-3.6993,-3.718,-3.7106,-3.6935,-3.679,-3.6539,-3.6409,-3.69,-3.6921,-3.6869,-3.7287,-3.6085,-3.4281,-3.2237,-3.5449,-3.773,-3.3143,-3.3769,-3.1968,-2.108,-1.4937,-0.8325,0.1865,0.9922,1.5798,1.8238,2.3308,2.7265,2.8297,3.0885,3.2547,3.236,3.2453,3.2369,3.1967,3.2169,3.2186,3.1785,3.1872,3.1918,3.1769,3.1707,3.1801,3.2158,3.2624,3.3271,3.401,3.4817,3.5361,3.5707,3.6411,3.6865,-2.709,-2.8003,-2.8458,-2.8181,-2.6552,-2.4507,0.0,-1.9509,-1.667,-1.5541,-1.4024,-1.3244,-1.4234,-1.4116,-1.4849,-1.7855,-1.8267,-1.9422,-2.3045,0.0,0.0,0.0,0.0,0.0,0.0,0.0,0.0,0.0,-3.9107,-3.9451,-3.951,-3.9534,-3.9467,-3.9321,-3.937,-3.9419,-3.9449,-3.9557,-3.9694,-3.9789,-3.9785,-3.9846,-3.9967,-3.9986,-3.9908,-3.975,-3.964,-3.9498,0.0,-3.926,-3.9089,-3.8933,-3.9199,-3.9183,-3.8973,-3.8941,-3.8813,-3.8601,-3.8297,-3.8123,-3.8031,-3.8113,-3.8095,-3.8027,-3.7993,-3.7397,-3.6869,-3.7434,-3.756,-3.7282,-3.6247,-3.7211,-3.7373,-3.3207,-3.595,-3.7805,-3.1661,-3.1492,-2.9569,-1.9571,-1.4498,-0.9497,-0.1951,0.4063,0.9439,1.3928,1.9783,2.4862,2.8236,3.1734,3.3594,3.2798,3.3573,3.365,3.2327,3.2613,3.2602,3.2085,3.2315,3.2321,3.2111,3.1919,3.1976,3.2296,3.2523,3.3067,3.3951,3.4301,3.4688,3.5144,3.5681,3.6281,-2.5506,-2.6574,-2.6937,-2.5821,-2.5163,-2.4081,0.0,-1.905,-1.7092,-1.5765,-1.4323,-1.3495,-1.4098,-1.462,-1.555,-1.7235,-1.8513,-2.0188,-2.2839,0.0,0.0,0.0,0.0,0.0,0.0,0.0,0.0,0.0,-3.9739,0.0,-3.9986,-4.0229,-4.0138,-3.9615,-3.9785,-3.9909,-4.0005,-4.0257,-4.0326,-4.0185,-4.0185,-4.0151,-4.0116,-4.0381,-4.0453,-4.0405,-4.0462,-4.05,0.0,-4.0404,-4.0252,-4.0072,-4.0091,-3.9871,-3.9603,-3.9667,-3.9312,-3.8813,-3.8883,-3.8628,-3.8334,-3.8593,-3.8559,-3.8477,-3.8934,-3.8536,-3.7902,-3.7902,-3.82,-3.7471,-3.3106,-3.5794,-3.8554,-3.4061,-3.6782,-3.7393,-2.6455,-2.7954,-2.6422,-0.9559,-1.3025,-1.645,-0.9079,-0.9559,-0.6822,0.5225,1.0588,1.7064,2.7646,3.2175,3.4554,3.5027,3.5917,3.5341,3.2562,3.2253,3.2148,3.2008,3.1868,3.1887,3.2088,3.212,3.2363,3.2964,3.3093,3.3423,3.3899,3.4119,3.4301,3.4431,3.5098,3.5916,-2.3064,-2.4099,-2.4859,-2.3884,-2.305,-2.2,-2.0201,-1.8449,-1.6795,-1.5488,-1.4313,-1.3733,-1.4469,-1.4332,-1.5306,-1.8944,-1.9487,-2.0453,0.0,0.0,0.0,0.0,0.0,0.0,0.0,0.0,0.0,-3.9842,-4.0189,-4.0385,-4.0395,-4.0491,-4.0468,-4.0277,-4.0345,-4.0396,-4.0408,-4.0439,-4.0526,-4.061,-4.0516,-4.0548,-4.0719,-4.0765,-4.0735,-4.0674,-4.0694,-4.0682,-4.0633,-4.0621,-4.0587,-4.0576,-4.0521,-4.0481,-4.041,-4.0294,-4.0123,-3.9948,-3.987,-3.9768,-3.9665,-3.9709,-3.9673,-3.9654,-3.981,-3.9039,-3.8193,-3.8479,-3.8812,-3.884,-3.7896,-3.8797,-3.9658,-3.8489,-3.9438,-3.9653,-3.6174,-3.3323,-2.9889,-2.4563,-2.1009,-1.7989,-1.5,-1.2017,-0.6267,0.4733,1.0675,1.756,2.7563,3.1796,3.4072,3.4397,3.5251,3.5574,3.5062,3.483,3.4432,3.3958,3.3646,3.3272,3.3006,3.2918,3.2782,3.2602,3.2641,3.2711,3.2888,3.3018,3.3423,3.4036,3.5237,3.5881,0.0,-2.168,-2.222,-2.1611,-2.1053,-2.031,-1.8895,-1.7609,-1.6393,-1.5322,-1.4364,-1.3852,-1.4308,-1.453,-1.5557,-1.8342,-1.9447,-2.0758,0.0,0.0,0.0,0.0,0.0,0.0,0.0,0.0,0.0,-4.0221,-4.0458,-4.0622,-4.0699,-4.071,-4.0729,-4.0757,-4.0699,-4.0699,-4.0757,-4.0704,-4.0757,-4.0877,-4.0791,-4.0847,-4.0994,-4.0965,-4.0889,-4.0791,-4.0845,-4.0821,0.0,-4.0762,-4.0781,-4.0808,-4.0773,-4.0753,-4.0727,-4.0701,-4.0624,-4.0537,-4.0526,-4.0482,-4.0441,-4.0342,-4.0284,-4.0249,-4.0303,-3.9677,-3.9033,-3.9317,-3.9524,-3.9757,-4.0213,-4.0292,-4.0309,-4.0543,-3.8898,-3.7273,-3.7278,-3.2427,-2.8123,-2.8163,-2.5493,-2.2975,-2.2285,-2.0887,-1.6166,-0.5358,0.3104,1.0808,1.7936,2.517,2.8515,2.5701,2.646,2.8587,3.205,3.4421,3.5528,3.5133,3.4848,3.4411,3.3742,3.3607,3.3192,3.2453,3.2398,3.2398,3.2398,3.2523,3.298,3.3665,3.4688,3.5283,0.0,-1.9178,-1.9241,-1.8991,-1.9083,-1.8845,-1.7393,-1.6607,0.0,-1.521,-1.4432,-1.3927,-1.3913,-1.5132,-1.6219,-1.6448,-1.8939,0.0,0.0,0.0,0.0,0.0,0.0,0.0,0.0,0.0,-4.0623,-4.0609,-4.0622,-4.071,-4.0894,-4.0921,-4.0945,-4.1019,-4.0894,-4.0885,-4.1,-4.1007,-4.1007,-4.0987,-4.1008,-4.0994,-4.0976,-4.0972,-4.0906,0.0,-4.0901,-4.0887,-4.0789,-4.084,-4.0831,-4.0805,-4.0865,-4.076,-4.0641,-4.0909,-4.0842,-4.0668,-4.0833,-4.0824,-4.0713,-4.0584,-4.0461,-4.0376,-4.0486,-4.0385,-4.0204,-4.0221,-4.0204,-4.0221,-4.0367,-4.0471,-4.0532,-4.0611,-3.6341,-3.2278,-3.2285,-2.746,-2.3287,-2.3727,-2.7328,-3.034,-3.0337,-3.397,-3.3056,-2.1718,-1.0205,-0.1495,0.2151,1.37,1.8851,1.1732,1.236,1.6389,2.4264,3.0946,3.4972,3.5633,3.5633,3.523,3.4339,3.4261,3.3678,3.2571,3.2437,3.2398,3.2398,3.2578,3.2926,3.3391,3.3767,3.4415,-1.435,0.0,-1.7191,-1.6474,-1.638,-1.6335,0.0,-1.5699,-1.5368,0.0,0.0,-1.4504,-1.5767,-1.5803,-1.6864,-2.0514,-2.1915,0.0,0.0,0.0,0.0,0.0,0.0,0.0,0.0,0.0,-4.083,-4.083,-4.0926,-4.0994,-4.105,-4.105,-4.1067,-4.1074,-4.1056,-4.0998,-4.0929,-4.0976,-4.0969,-4.0921,-4.0976,-4.092,-4.0777,-4.0757,-4.0704,-4.0574,-4.0604,-4.0604,-4.0559,-4.0539,-4.0598,-4.0711,-4.0679,-4.0731,-4.0844,-4.0903,-4.0914,-4.0917,-4.0954,-4.0991,-4.0998,-4.0909,-4.0866,-4.0848,-4.0867,-4.0557,-4.0221,-4.0326,-4.0274,-4.0274,-4.0549,-4.0646,-4.0713,-4.0869,-3.986,-3.8868,-3.8879,-3.386,-3.0802,-3.5645,-3.3298,-3.1817,-3.5833,-3.6542,-3.2454,-2.0359,-1.5099,-0.8569,0.262,0.7215,0.9873,1.0866,1.1326,1.2825,1.6016,2.287,2.969,3.6035,3.5894,3.5489,3.5273,3.4555,3.4086,3.3795,3.2855,3.2398,3.2398,3.3208,3.3471,3.3382,3.4496,3.4897,-1.2881,-1.4672,-1.6173,-1.6063,-1.6073,-1.6087,-1.6049,0.0,0.0,0.0,0.0,0.0,-1.6579,0.0,0.0,0.0,-2.3288,0.0,0.0,0.0,0.0,0.0,0.0,0.0,0.0,0.0,-4.096,-4.0993,-4.1056,-4.11,-4.109,-4.1094,-4.1097,-4.1108,-4.1045,-4.0996,-4.0947,-4.0976,-4.0964,-4.0894,-4.0914,-4.0857,-4.0752,-4.0626,-4.0565,-4.0546,-4.0431,-4.0383,-4.0396,-4.0362,-4.0417,-4.0515,-4.0564,-4.0557,-4.0552,-4.0765,-4.083,-4.0792,-4.0944,-4.1035,-4.1094,-4.1058,-4.1042,-4.1045,-4.1006,-4.08,-4.0568,-4.0655,-4.0599,-4.0558,-4.0703,-4.0771,-4.082,-4.0933,-3.8825,-3.7558,-4.04,-3.5985,-3.3288,-3.9514,-3.718,-3.5096,-3.8005,-3.6791,-3.3122,-2.6415,-1.9103,-1.2877,-0.8847,-0.2652,0.0959,-0.0074,0.0074,0.2307,0.7313,1.2165,1.8572,2.6943,3.0671,3.2415,3.2069,3.4406,3.5222,3.4197,3.3019,3.2398,3.2398,3.2926,3.3208,3.3245,3.4068,3.4513,-1.2926,-1.4628,-1.598,-1.6488,-1.6831,-1.7005,-1.6872,0.0,0.0,0.0,0.0,0.0,0.0,0.0,0.0,0.0,0.0,0.0,0.0,0.0,0.0,0.0,0.0,0.0,0.0,-4.1047,-4.1018,-4.1078,-4.1081,-4.1072,-4.1064,-4.1064,-4.1064,-4.1064,-4.0952,-4.0916,-4.096,-4.0949,-4.0937,-4.0852,-4.0781,-4.0738,-4.0726,-4.0467,-4.04,-4.0466,0.0,0.0,-4.0215,-4.0215,-4.0233,-4.027,-4.0403,-4.0279,-4.01,-4.0448,-4.0494,-4.0443,-4.0751,-4.0933,-4.103,-4.1015,-4.1054,-4.109,-4.103,-4.1023,-4.1012,-4.0987,-4.094,-4.0882,-4.0824,-4.0857,-4.0894,-4.0898,-3.6916,-3.4546,-3.9765,-3.6577,-3.4225,-3.9427,-3.9362,-3.8401,-3.8228,-3.6073,-3.4246,-3.3713,-2.3077,-1.7174,-2.2833,-1.3318,-0.7998,-1.3168,-1.3039,-0.9358,-0.1515,0.0908,0.5177,1.2702,2.222,2.7636,2.7826,3.3049,3.5371,3.4182,3.3196,3.261,3.2398,3.2547,3.2841,3.3303,3.3523,3.4034,-1.3654,-1.5763,-1.6904,-1.6011,-1.7015,-1.8012,-1.7157,0.0,0.0,0.0,0.0,0.0,0.0,0.0,0.0,0.0,0.0,0.0,0.0,0.0,0.0,0.0,0.0,0.0,-4.1103,-4.1045,-4.0994,-4.1012,-4.0962,-4.0929,-4.0929,-4.0929,-4.0929,-4.0932,-4.0902,-4.085,-4.0745,-4.0804,-4.0776,-4.0649,-4.0524,-4.0453,-4.0457,-4.023,-4.0062,-3.9918,0.0,-3.9895,-3.9807,-3.9807,-3.9935,-4.0118,-3.984,-3.9783,-3.9827,-3.9665,-3.9732,-3.9928,-4.0163,-4.0432,-4.0674,-4.0671,-4.0879,-4.1099,-4.1084,-4.1086,-4.1045,-4.0879,-4.0858,-4.089,-4.082,-4.085,-4.0898,-4.0906,-4.0179,-3.9746,-4.0694,-3.9639,-3.8801,-3.9852,-3.9349,-3.8407,-3.7392,-3.6464,-3.4903,-3.2052,-2.9085,-2.627,-2.3989,-2.0307,-1.7301,-1.5479,-1.4015,-1.2251,-0.9644,-0.7654,-0.5373,-0.243,1.2275,2.29,2.7399,2.8729,3.0799,3.3875,3.3942,3.3425,3.2398,3.3319,3.3748,3.3832,3.4643,3.4883,-1.2786,-1.5104,-1.6882,-1.7188,-1.8979,-2.0535,-2.0081,0.0,0.0,0.0,0.0,0.0,0.0,0.0,0.0,0.0,0.0,0.0,0.0,0.0,0.0,0.0,0.0,-4.0996,-4.0996,-4.0967,-4.0945,-4.0945,-4.0914,-4.0905,-4.0909,-4.0903,-4.0875,-4.0849,-4.0811,-4.0687,-4.0475,-4.0519,-4.0535,-4.0588,-4.0342,-4.0226,-4.0212,-3.9838,-3.9679,-3.9679,0.0,-3.9396,-3.9245,-3.9186,-3.9096,-3.904,-3.9093,-3.9066,-3.9059,-3.9182,-3.9354,-3.9575,-3.985,-4.0111,-4.0366,-4.0536,-4.0758,-4.0955,-4.1072,-4.1046,-4.0952,-4.0791,-4.0824,-4.0881,-4.0779,-4.0723,-4.0673,-4.0643,-4.0667,-4.0612,-4.0403,-4.0062,-3.9766,-3.9681,-3.8813,-3.7832,-3.702,-3.5776,-3.4037,-3.1561,-2.9355,-2.7027,-2.4484,-2.2041,-1.9899,-1.7995,-1.5822,-1.4149,-1.314,-1.0307,-0.5766,0.0568,0.9336,1.8513,2.7911,2.7917,3.0244,3.5683,3.4275,3.3294,3.2893,3.2732,3.2917,3.3479,3.4202,3.4707,-1.2189,-1.437,-1.6548,-1.8584,0.0,-2.2369,-2.2754,0.0,0.0,0.0,0.0,0.0,0.0,0.0,0.0,0.0,0.0,0.0,0.0,0.0,0.0,0.0,0.0,-4.0608,-4.0623,-4.0792,-4.089,-4.0883,-4.0864,-4.0758,-4.0548,-4.0548,-4.0408,-4.0149,-4.0294,-4.0268,-4.0005,-4.0156,-4.0281,-4.0399,-4.0062,-3.9946,-3.9946,-3.9494,-3.932,-3.9346,-3.9109,-3.8877,-3.8681,-3.8534,-3.8365,-3.8123,-3.8358,-3.8339,-3.8259,-3.8685,-3.8914,-3.9108,-3.9425,-3.973,-3.9982,-4.0242,-4.049,-4.071,-4.0837,-4.0807,-4.0725,-4.0564,-4.0615,-4.0723,-4.0643,-4.0533,-4.0431,-4.0334,-4.0367,-4.0296,-3.9908,-3.9683,-3.9482,-3.9226,-3.8209,-3.7161,-3.6593,-3.5082,-3.3259,-3.1324,-2.8884,-2.6672,-2.5083,-2.2802,-2.0979,-2.0101,-1.7775,-1.5978,-1.5165,-1.1617,-0.5916,0.2496,0.5214,1.2441,2.564,2.5517,2.8917,3.7005,3.4969,3.3763,3.3714,3.2929,3.2898,3.3604,3.407,3.4675,-1.3023,-1.4516,-1.6155,-1.9458,-2.0928,0.0,-2.3543,0.0,0.0,0.0,0.0,0.0,0.0,0.0,0.0,0.0,0.0,0.0,0.0,0.0,0.0,0.0,-3.9241,-3.9727,-3.9782,-4.0459,-4.0873,-4.0804,-4.0759,-4.0359,-3.9548,-3.9509,-3.9122,-3.8234,-3.8984,-3.9342,-3.9191,-3.9738,-3.9943,-3.9757,-3.9534,-3.9462,-3.9529,-3.9364,-3.9082,-3.8667,-3.8707,-3.8432,-3.795,-3.795,-3.7998,-3.8077,-3.7853,-3.772,-3.7667,-3.7911,-3.8165,-3.8415,-3.8683,-3.9072,-3.9444,-3.9475,-3.9872,-4.0323,-4.0226,-4.0246,-4.0284,-4.0024,-4.0099,-4.0255,-4.0312,-4.0315,-4.0281,-4.0137,-4.0119,-4.0043,-3.9702,-3.9221,-3.8785,-3.8534,-3.7647,-3.6649,-3.565,-3.504,-3.3675,-3.0895,-3.0259,-2.9115,-2.6445,-2.453,-2.2919,-2.1377,-1.9627,-1.7994,-1.6563,-1.3821,-1.0984,-0.8134,-0.4976,0.3057,1.7282,1.8009,2.3892,3.623,3.6496,3.6064,3.5076,3.5496,3.5484,3.5065,3.5345,3.5532,-1.1958,-1.4211,-1.6674,-1.9051,0.0,0.0,0.0,0.0,0.0,0.0,0.0,0.0,0.0,0.0,0.0,0.0,0.0,0.0,0.0,0.0,0.0,-3.8178,-3.8507,-3.8678,-3.8698,-3.8968,-3.9142,-3.9116,-3.9064,-3.8882,-3.8551,-3.8498,-3.83,-3.7947,-3.8274,-3.8309,-3.8116,-3.8211,-3.809,-3.7785,-3.8693,-3.9034,-3.8813,-3.8487,-3.8125,-3.7736,-3.7821,-3.756,-3.7102,-3.714,-3.7064,-3.6929,-3.7079,-3.7208,-3.7299,-3.7432,-3.7523,-3.7613,-3.805,-3.8382,-3.8662,-3.9088,-3.9498,-3.9871,-3.9947,-4.0003,-4.0024,-3.9888,-3.9823,-3.9882,-4.0062,-4.0082,-3.9984,-3.9738,-3.9652,-3.9515,-3.898,-3.8689,-3.8383,-3.7819,-3.7287,-3.6429,-3.4961,-3.4556,-3.3524,-3.0793,-3.0018,-2.908,-2.7258,-2.5368,-2.3906,-2.329,-2.0207,-1.7307,-1.4968,-1.3368,-1.1588,-0.9716,-0.6436,-0.0413,0.8867,1.1371,1.7975,2.9568,3.0242,3.2354,3.6201,3.5309,3.4964,3.5082,3.5199,3.566,-1.1729,-1.4212,-1.7025,0.0,0.0,0.0,0.0,0.0,0.0,0.0,0.0,0.0,0.0,0.0,0.0,0.0,0.0,0.0,0.0,0.0,-3.6704,-3.7308,-3.7546,-3.7681,-3.7681,-3.7912,-3.8053,-3.804,-3.7993,-3.7849,-3.7574,-3.7506,-3.736,-3.7083,-3.7332,-3.7362,-3.7147,-3.7116,-3.6963,-3.6689,-3.759,-3.7812,-3.7484,-3.7202,-3.6791,-3.6297,-3.6317,-3.6247,-3.6087,-3.6093,-3.6143,-3.6165,-3.6485,-3.6753,-3.6913,-3.7034,-3.7073,-3.7167,-3.7524,-3.7841,-3.8122,-3.8586,-3.9021,-3.9363,-3.9535,-3.9554,-3.9519,-3.9491,-3.9402,-3.932,-3.9529,-3.9687,-3.9705,-3.9402,-3.9301,-3.909,-3.8428,-3.8259,-3.8005,-3.714,-3.6711,-3.5976,-3.4316,-3.3774,-3.2867,-3.0719,-2.9605,-2.8525,-2.7165,-2.5673,-2.448,-2.3795,-2.0641,-1.7582,-1.5133,-1.4343,-1.3008,-1.0702,-0.8414,-0.3906,0.3163,0.5796,1.1808,2.1932,2.5098,2.9014,3.3966,3.5111,3.568,3.5675,3.5633,3.6195,-1.2805,-1.4662,0.0,0.0,0.0,0.0,0.0,0.0,0.0,0.0,0.0,0.0,0.0,0.0,0.0,0.0,0.0,0.0,0.0,0.0,-3.5515,-3.5591,-3.6299,-3.6787,-3.6787,-3.7519,-3.794,-3.7886,-3.7871,-3.749,-3.6619,-3.6581,-3.6201,-3.5331,-3.6077,-3.6449,-3.6365,-3.6707,-3.6849,-3.6758,-3.6174,-3.576,-3.5501,-3.5501,-3.5064,-3.4303,-3.4303,-3.4501,-3.4865,-3.4882,-3.5309,-3.6019,-3.6122,-3.6293,-3.6485,-3.6713,-3.6913,-3.7091,-3.7188,-3.7487,-3.7893,-3.7911,-3.8291,-3.8789,-3.8892,-3.8796,-3.87,-3.8773,-3.8695,-3.8609,-3.867,-3.91,-3.9433,-3.9227,-3.9082,-3.8796,-3.8135,-3.7984,-3.765,-3.6516,-3.5917,-3.5148,-3.3705,-3.2694,-3.169,-3.0495,-2.9254,-2.7815,-2.6052,-2.5697,-2.4696,-2.251,-2.0864,-1.9228,-1.7726,-1.7471,-1.5831,-1.2116,-1.2132,-0.8229,0.0612,0.1454,0.5649,1.3909,2.2183,2.6872,2.7807,3.5134,3.8132,3.7102,3.7044,3.7308,-1.2945,-1.5599,0.0,0.0,0.0,0.0,0.0,0.0,0.0,0.0,0.0,0.0,0.0,0.0,0.0,0.0,0.0,0.0,0.0,-3.5468,-3.5441,-3.5455,-3.5638,-3.5739,-3.5739,-3.5969,-3.6089,-3.6059,-3.6067,-3.5956,-3.5691,-3.564,-3.5493,-3.5234,-3.5284,-3.5268,-3.5191,-3.4988,-3.4784,-3.46,-3.4021,-3.4145,-3.4942,-3.4907,-3.4451,-3.3663,-3.3761,-3.3816,-3.3863,-3.4095,-3.4645,-3.5253,-3.5035,-3.522,-3.5599,-3.5776,-3.6097,-3.6527,-3.6816,-3.6995,-3.717,-3.7577,-3.7703,-3.7789,-3.7928,-3.7891,-3.7787,-3.7805,-3.7506,-3.7327,-3.7801,-3.7677,-3.7589,-3.8085,-3.7907,-3.7488,-3.7094,-3.6729,-3.6236,-3.5569,-3.5011,-3.4235,-3.287,-3.2124,-3.1405,-3.0464,-2.9268,-2.7736,-2.5636,-2.4457,-2.3316,-2.2113,-2.044,-1.8868,-1.7301,-1.6585,-1.5274,-1.3112,-1.2832,-1.0921,-0.6766,-0.5228,-0.1184,0.559,0.961,1.6914,2.7592,2.9947,3.3569,3.8282,3.7613,3.7998,-1.523,0.0,0.0,0.0,0.0,0.0,0.0,0.0,0.0,0.0,0.0,0.0,0.0,0.0,0.0,0.0,0.0,0.0,0.0,-3.5446,-3.5379,-3.5364,-3.5315,-3.53,-3.5304,-3.5304,-3.5304,-3.527,-3.5157,-3.5143,-3.5248,-3.5089,-3.5054,-3.5147,-3.5001,-3.4812,-3.4632,-3.4237,-3.3891,-3.3607,-3.3014,-3.3031,-3.3634,-3.3434,-3.3016,-3.2461,-3.2889,-3.2925,-3.2705,-3.3234,-3.3723,-3.4197,-3.3989,-3.4281,-3.483,-3.4925,-3.5374,-3.5915,-3.6182,-3.6474,-3.6816,-3.6995,-3.7038,-3.7079,-3.725,-3.7102,-3.697,-3.7177,-3.6858,-3.6492,-3.6788,-3.6399,-3.6139,-3.7035,-3.6955,-3.6539,-3.6079,-3.5701,-3.5313,-3.4653,-3.4268,-3.3671,-3.2555,-3.1777,-3.1145,-3.0673,-2.8898,-2.7126,-2.5869,-2.3806,-2.2349,-2.1811,-2.0285,-1.8559,-1.6675,-1.6198,-1.5213,-1.3476,-1.3555,-1.2772,-1.0707,-0.9183,-0.6609,-0.2643,0.2446,0.9538,1.8786,2.507,3.0285,3.4482,3.6838,3.8722,-1.8418,0.0,0.0,0.0,0.0,0.0,0.0,0.0,0.0,0.0,0.0,0.0,0.0,0.0,0.0,0.0,0.0,0.0,0.0,-3.5364,-3.5335,-3.5251,-3.5235,-3.5239,-3.5226,-3.5209,-3.5193,-3.5141,-3.4889,-3.4851,-3.5092,-3.4831,-3.4773,-3.5001,-3.5001,-3.4812,-3.4442,-3.4152,-3.3828,-3.3447,-3.2813,-3.2335,-3.1967,-3.1585,-3.124,-3.1026,-3.1844,-3.1959,-3.1636,-3.2266,-3.2643,-3.2822,-3.2934,-3.3356,-3.3941,-3.4088,-3.4537,-3.5143,-3.5211,-3.5848,-3.651,-3.6256,-3.634,-3.6568,-3.6636,-3.6411,-3.618,-3.6689,-3.6405,-3.5925,-3.5667,-3.5177,-3.4994,-3.5897,-3.6039,-3.5754,-3.5081,-3.4914,-3.4634,-3.3806,-3.362,-3.3344,-3.2477,-3.1595,-3.097,-3.0911,-2.8333,-2.6451,-2.6471,-2.3868,-2.1973,-2.1769,-2.043,-1.8559,-1.6191,-1.6296,-1.5726,-1.3808,-1.4314,-1.3795,-1.1843,-1.1063,-1.0371,-0.9492,-0.0941,0.4139,0.5659,1.9752,2.7042,2.8047,3.4729,3.8793,0.0,0.0,0.0,0.0,0.0,0.0,0.0,0.0,0.0,0.0,0.0,0.0,0.0,0.0,0.0,0.0,0.0,0.0,0.0,-3.5032,-3.4943,-3.4774,-3.4696,-3.4656,-3.4675,-3.4634,-3.4593,-3.4574,-3.4467,-3.4423,-3.4508,-3.4423,-3.4379,-3.4401,-3.4128,-3.3949,-3.3876,-3.3504,-3.3232,-3.3086,-3.2334,-3.1914,-3.175,-3.1511,-3.124,-3.0912,-3.112,-3.1283,-3.1413,-3.1173,-3.1244,-3.1529,-3.1162,-3.1341,-3.1835,-3.1982,-3.2526,-3.3271,-3.3927,-3.4427,-3.4837,-3.5467,-3.5554,-3.5498,-3.5671,-3.5448,-3.5224,-3.5299,-3.4816,-3.435,-3.4673,-3.4137,-3.3601,-3.384,-3.4039,-3.417,-3.4219,-3.4071,-3.3804,-3.336,-3.3251,-3.2895,-3.2007,-3.1379,-3.0732,-3.0021,-2.8376,-2.7258,-2.7271,-2.5028,-2.3169,-2.2467,-2.1441,-2.006,-1.8238,-1.7683,-1.696,-1.5809,-1.4977,-1.3704,-1.1992,-1.1901,-1.0869,-0.8544,-0.5955,-0.1211,0.559,0.9502,1.7269,2.8459,2.9831,3.4389,0.0,0.0,0.0,0.0,0.0,0.0,0.0,0.0,0.0,0.0,0.0,0.0,0.0,0.0,0.0,0.0,0.0,0.0,0.0,-3.4925,-3.4794,-3.4551,-3.4467,-3.4423,-3.4401,-3.4379,-3.4334,-3.4311,-3.4128,-3.4056,-3.4152,-3.4006,-3.3956,-3.4056,-3.388,-3.3733,-3.355,-3.335,-3.3129,-3.2948,-3.2144,-3.1511,-3.1123,-3.1083,-3.0982,-3.0773,-3.0593,-3.0481,-3.0417,-2.9966,-2.9974,-3.0242,-3.0037,-3.0273,-3.0842,-3.0892,-3.1453,-3.2259,-3.2649,-3.3425,-3.4231,-3.4509,-3.4738,-3.4947,-3.4944,-3.4913,-3.4739,-3.4545,-3.4202,-3.3866,-3.363,-3.3198,-3.2895,-3.2734,-3.3093,-3.3391,-3.3266,-3.3093,-3.2986,-3.2841,-3.2749,-3.2492,-3.1853,-3.1263,-3.0732,-3.0144,-2.8712,-2.7723,-2.7591,-2.5438,-2.3548,-2.2563,-2.1756,-2.0537,-1.8816,-1.7844,-1.7025,-1.6304,-1.5144,-1.388,-1.2516,-1.1809,-1.0154,-0.7383,-0.641,-0.3701,0.0886,0.8752,1.6338,2.3638,3.0571,3.6455,0.0,0.0,0.0,0.0,0.0,0.0,0.0,0.0,0.0,0.0,0.0,0.0,0.0,0.0,0.0,0.0,0.0,0.0,0.0,-3.4377,-3.4222,-3.3881,-3.3967,-3.4037,-3.3948,-3.4054,-3.4123,-3.4049,-3.3768,-3.3661,-3.3828,-3.3579,-3.3542,-3.375,-3.3768,-3.3607,-3.3332,-3.3302,-3.3142,-3.2787,-3.1967,-3.1201,-3.051,-3.0609,-3.0609,-3.051,-3.0182,-2.9717,-2.9225,-2.8982,-2.8931,-2.9027,-2.9193,-2.9531,-3.0022,-3.0074,-3.0582,-3.1277,-3.1373,-3.2327,-3.3544,-3.331,-3.3775,-3.4365,-3.4154,-3.4284,-3.4317,-3.3853,-3.3802,-3.3665,-3.2703,-3.2516,-3.2492,-3.2302,-3.2586,-3.2826,-3.2382,-3.2327,-3.2327,-3.2287,-3.2216,-3.1992,-3.1552,-3.0955,-3.0539,-3.0237,-2.8889,-2.7776,-2.7498,-2.5438,-2.3559,-2.2424,-2.168,-2.0615,-1.8975,-1.7666,-1.6772,-1.6378,-1.5311,-1.4139,-1.2869,-1.1375,-0.91,-0.6133,-0.4996,-0.4291,-0.3929,0.8927,1.6151,1.8389,3.0471,3.7787,0.0,0.0,0.0,0.0,0.0,0.0,0.0,0.0,0.0,0.0,0.0,0.0,0.0,0.0,0.0,0.0,0.0,0.0,0.0,-3.2259,-3.2015,-3.1678,-3.225,-3.2637,-3.2557,-3.3158,-3.3491,-3.3422,-3.3268,-3.319,-3.322,-3.319,-3.316,-3.322,-3.3129,-3.3086,-3.3073,-3.2993,-3.277,-3.2352,-3.1565,-3.0925,-3.0526,-3.0526,-3.03,-2.9941,-2.9837,-2.9393,-2.8654,-2.8701,-2.8493,-2.8191,-2.8437,-2.8532,-2.8511,-2.8624,-2.8836,-2.9186,-2.9829,-3.0498,-3.1177,-3.1678,-3.2515,-3.321,-3.265,-3.2946,-3.3303,-3.2734,-3.2656,-3.2602,-3.2437,-3.2437,-3.2453,-3.2398,-3.212,-3.1894,-3.1781,-3.1977,-3.2059,-3.1838,-3.1495,-3.1029,-3.0553,-3.0083,-2.9512,-2.8889,-2.7973,-2.7043,-2.6377,-2.5229,-2.3801,-2.2188,-2.1821,-2.1068,-1.9381,-1.7844,-1.7033,-1.7196,-1.5636,-1.3964,-1.2163,-1.0935,-0.8487,-0.4632,-0.4198,-0.3491,-0.2505,-0.0949,0.6374,1.8898,2.022,2.8085,0.0,0.0,0.0,0.0,0.0,0.0,0.0,0.0,0.0,0.0,0.0,0.0,0.0,0.0,0.0,0.0,0.0,0.0,0.0,-3.1834,-3.1555,-3.1146,-3.1402,-3.1565,-3.1454,-3.1588,-3.1715,-3.184,-3.1453,-3.1229,-3.1373,-3.1179,-3.1179,-3.1373,-3.1342,-3.1554,-3.2111,-3.1933,-3.1725,-3.1452,-3.1201,-3.0821,-3.0443,-3.0215,-2.9984,-2.981,-2.9528,-2.9012,-2.8352,-2.8238,-2.8073,-2.7905,-2.8186,-2.8235,-2.8235,-2.8348,-2.8525,-2.8732,-2.8819,-2.9434,-3.0179,-3.0253,-3.0851,-3.1596,-3.1701,-3.2066,-3.231,-3.1982,-3.2089,-3.213,-3.1694,-3.1595,-3.1709,-3.2007,-3.1667,-3.1263,-3.1073,-3.1291,-3.145,-3.1321,-3.0911,-3.0613,-3.0598,-3.0205,-2.9837,-2.967,-2.8492,-2.7445,-2.6883,-2.5569,-2.3959,-2.2124,-2.1832,-2.1145,-1.945,-1.7755,-1.6862,-1.7025,-1.547,-1.3971,-1.2863,-1.1381,-0.9187,-0.6295,-0.437,-0.2955,-0.2149,0.1727,0.6683,1.2492,2.0476,2.7888,0.0,0.0,0.0,0.0,0.0,0.0,0.0,0.0,0.0,0.0,0.0,0.0,0.0,0.0,0.0,0.0,0.0,0.0,0.0,0.0,-3.0736,-3.0297,-3.0395,-3.0438,-3.0237,-3.0158,-3.0221,-3.0391,-2.9919,-2.9723,-2.9869,-2.964,-2.9622,-2.9887,-2.9869,-3.0199,-3.0876,-3.0733,-3.0737,-3.0845,-3.0861,-3.0634,-3.0231,-2.9941,-2.9661,-2.9377,-2.9074,-2.8591,-2.8125,-2.7875,-2.769,-2.7524,-2.7825,-2.7875,-2.781,-2.8024,-2.8204,-2.8286,-2.8189,-2.8673,-2.9237,-2.9039,-2.9469,-3.0248,-3.0768,-3.1182,-3.1443,-3.1285,-3.1377,-3.1462,-3.0881,-3.0763,-3.0881,-3.1291,-3.1073,-3.0718,-3.0524,-3.0718,-3.0911,-3.0792,-3.0673,-3.0613,-3.0732,-3.0387,-3.0036,-2.9931,-2.8698,-2.7577,-2.687,-2.5569,-2.3959,-2.2059,-2.1832,-2.1145,-1.945,-1.7917,-1.6944,-1.678,-1.547,-1.4398,-1.3646,-1.1729,-0.9889,-0.8123,-0.4984,-0.3042,-0.2238,0.3117,0.6229,0.7581,2.0413,2.7396,0.0,0.0,0.0,0.0,0.0,0.0,0.0,0.0,0.0,0.0,0.0,0.0,0.0,0.0,0.0,0.0,0.0,0.0,0.0,0.0,-2.8619,-2.819,-2.8763,-2.9047,-2.8659,-2.9288,-2.969,-2.9555,-2.9522,-2.9522,-2.9522,-2.9522,-2.9488,-2.9522,-2.9522,-2.9523,-2.9489,-2.9692,-3.0185,-3.0982,-3.0593,-3.0215,-2.9853,-2.981,-2.9287,-2.84,-2.8336,-2.8076,-2.761,-2.7725,-2.7372,-2.6774,-2.7071,-2.6916,-2.6654,-2.7159,-2.7312,-2.7276,-2.8137,-2.8137,-2.7875,-2.8204,-2.8861,-2.9438,-2.947,-3.0008,-3.0597,-3.0616,-3.0418,-3.0133,-3.0072,-3.0119,-3.0225,-3.0271,-3.0329,-3.0312,-3.0312,-3.0539,-3.0673,-3.0219,-3.0762,-3.1102,-3.0687,-3.0355,-2.9651,-2.8312,-2.7644,-2.6773,-2.5382,-2.4838,-2.3875,-2.2188,-2.1897,-2.1145,-1.945,-1.8487,-1.7674,-1.7033,-1.6139,-1.5144,-1.4139,-1.1627,-0.9794,-0.8736,-0.6219,-0.4109,-0.2508,-0.328,0.0409,0.8135,1.5369,2.254,0.0,0.0,0.0,0.0,0.0,0.0,0.0,0.0,0.0,0.0,0.0,0.0,0.0,0.0,0.0,0.0,0.0,0.0,0.0,0.0,-2.8414,-2.7915,-2.8105,-2.8105,-2.7705,-2.7653,-2.7741,-2.8006,-2.7572,-2.74,-2.7708,-2.7486,-2.7486,-2.7708,-2.7607,-2.7725,-2.8039,-2.8515,-2.9085,-2.9708,-2.9316,-2.9329,-2.9661,-2.9088,-2.8622,-2.8288,-2.7978,-2.776,-2.7625,-2.7625,-2.7306,-2.6736,-2.6916,-2.6759,-2.651,-2.6797,-2.7004,-2.7122,-2.7137,-2.7137,-2.7071,-2.7034,-2.727,-2.7632,-2.815,-2.8213,-2.831,-2.9095,-2.8942,-2.8567,-2.8969,-2.9016,-2.9016,-2.9268,-2.956,-2.9837,-2.9837,-3.0083,-3.028,-3.0111,-3.0522,-3.0807,-3.0642,-3.0522,-3.0144,-2.9449,-2.8454,-2.7378,-2.6582,-2.5511,-2.4154,-2.2178,-2.1962,-2.1201,-1.945,-1.8487,-1.7674,-1.6862,-1.6139,-1.5318,-1.4307,-1.2504,-1.094,-0.9707,-0.8432,-0.6413,-0.3666,-0.4109,-0.2781,0.041,1.2541,1.963,-1.1655,0.0,0.0,0.0,0.0,0.0,0.0,0.0,0.0,0.0,0.0,0.0,0.0,0.0,0.0,0.0,0.0,0.0,0.0,0.0,0.0,-2.7297,-2.7437,-2.7382,-2.6841,-2.6539,-2.6454,-2.6758,-2.626,0.0,-2.6418,-2.6241,-2.6241,-2.6453,-2.6315,-2.6524,-2.7139,-2.7536,-2.8003,-2.845,-2.8249,-2.8259,-2.8529,-2.814,-2.7869,-2.7692,-2.7655,-2.7473,-2.7306,-2.7306,-2.6826,-2.6136,-2.6229,-2.6054,-2.5837,-2.6201,-2.6428,-2.6563,-2.6669,-2.6616,-2.6472,-2.6433,-2.6312,-2.6304,-2.7069,-2.6905,-2.6632,-2.7732,-2.7585,-2.7198,-2.7726,-2.7918,-2.8078,-2.8661,-2.9071,-2.9401,-2.954,-2.9865,-3.0111,-3.0233,-3.0507,-3.0747,-3.0866,-3.0747,-3.0447,-2.996,-2.8712,-2.7591,-2.6989,-2.5849,-2.4432,-2.2702,-2.2178,-2.1354,-1.9835,-1.8966,-1.8167,-1.7261,-1.6706,-1.5974,-1.5144,-1.293,-1.1375,-1.0585,-0.9056,-0.7305,-0.5176,-0.509,-0.4739,-0.3911,1.1192,2.0887,0.0,0.0,0.0,0.0,0.0,0.0,0.0,0.0,0.0,0.0,0.0,0.0,0.0,0.0,0.0,0.0,0.0,0.0,0.0,0.0,0.0,-2.6137,-2.6709,-2.6822,-2.6049,-2.5994,-2.5957,-2.5881,-2.5897,-2.5897,-2.5897,-2.5954,-2.599,-2.5974,-2.5811,-2.6043,-2.6753,-2.6753,-2.6976,-2.7368,-2.7483,-2.7148,-2.6409,-2.698,-2.6991,-2.6602,-2.726,-2.7225,-2.6654,-2.6669,-2.6028,-2.5005,-2.5005,-2.4821,-2.4567,-2.5287,-2.555,-2.5647,-2.6654,-2.6616,-2.6165,-2.6525,-2.6068,-2.5508,-2.63,-2.6123,-2.5824,-2.6639,-2.6316,-2.589,-2.6542,-2.6908,-2.7471,-2.8532,-2.8803,-2.8931,-2.9477,-2.9865,-3.0172,-3.0522,-3.0807,-3.1087,-3.1409,-3.0999,-3.0372,-2.958,-2.8363,-2.7217,-2.6483,-2.5664,-2.4659,-2.3588,-2.2627,-2.1583,-2.0537,-1.9942,-1.9222,-1.8301,-1.7925,-1.7286,-1.6394,-1.2717,-1.093,-1.1273,-0.8165,-0.6602,-0.6779,-0.6517,-0.5719,-0.3999,1.1129,2.6265,-1.0477,0.0,0.0,0.0,0.0,0.0,0.0,0.0,0.0,0.0,0.0,0.0,0.0,0.0,0.0,0.0,0.0,0.0,0.0,0.0,0.0,0.0,-2.5419,-2.5459,-2.524,-2.5165,-2.536,0.0,-2.5791,-2.5791,-2.5881,-2.5917,-2.5864,-2.5775,-2.5738,-2.5777,-2.5945,-2.5989,-2.6215,-2.659,-2.6344,-2.6275,-2.6394,-2.6153,-2.601,-2.5866,-2.6135,-2.5908,-2.5483,-2.6323,-2.6028,-2.5005,-2.5005,-2.4821,-2.4509,-2.4509,-2.4935,-2.5494,-2.555,-2.577,-2.5948,-2.5687,-2.5453,-2.5203,-2.5127,-2.4722,-2.4446,-2.5082,-2.4851,-2.4734,-2.5675,-2.6229,-2.6909,-2.7998,-2.8546,-2.8931,-2.9477,-2.9665,-2.9865,-3.0158,-3.0507,-3.0747,-3.0807,-3.0702,-3.0251,-2.9317,-2.8427,-2.7537,-2.6552,-2.5721,-2.4647,-2.2999,-2.2478,-2.1583,-2.001,-1.9548,-1.8816,-1.7432,-1.744,-1.687,-1.5499,-1.4126,-1.2571,-1.0844,-0.9735,-0.8265,-0.6257,-0.6517,-0.6163,-0.4709,1.0905,2.6243,0.0,0.0,0.0,0.0,0.0,0.0,0.0,-1.691,0.0,0.0,0.0,0.0,0.0,0.0,0.0,0.0,0.0,0.0,0.0,0.0,0.0,0.0,0.0,-2.4642,-2.4412,-2.4359,-2.4486,-2.4857,-2.4837,-2.4968,-2.5386,-2.5623,-2.5733,-2.5701,-2.568,-2.5621,-2.5616,-2.5546,-2.5532,-2.5575,-2.529,-2.5172,-2.5224,-2.5198,-2.5103,-2.4932,-2.5228,-2.5046,-2.4634,-2.5317,-2.5246,-2.462,-2.4434,-2.4261,-2.4118,-2.4176,-2.4421,-2.4721,-2.4948,-2.5048,-2.5077,-2.4781,-2.454,-2.431,-2.4066,-2.361,-2.3296,-2.3685,-2.3852,-2.4067,-2.477,-2.5356,-2.5987,-2.7079,-2.7588,-2.8042,-2.9079,-2.9275,-2.9463,-2.9988,-3.0294,-3.0462,-3.0582,-3.0462,-3.0068,-2.9129,-2.8298,-2.7471,-2.6552,-2.5499,-2.4337,-2.3147,-2.2253,-2.1364,-2.0255,-1.9784,-1.9213,-1.8407,-1.7925,-1.7277,-1.6386,-1.4699,-1.3087,-1.1616,-1.0159,-0.8348,-0.6257,-0.6605,-0.308,0.4237,1.345,2.5994,0.0,0.0,0.0,0.0,0.0,0.0,-1.6479,-1.6111,-1.5932,0.0,0.0,0.0,0.0,0.0,0.0,0.0,0.0,0.0,0.0,0.0,0.0,0.0,0.0,0.0,-2.3605,-2.3588,-2.3519,-2.3428,-2.3393,-2.3703,-2.4441,-2.5098,-2.5433,-2.5422,-2.5497,-2.5486,-2.5448,-2.5278,-2.4989,-2.4549,-2.4385,-2.4036,-2.3538,-2.4149,-2.413,-2.3714,-2.4346,-2.4323,-2.3879,-2.3838,-2.3894,-2.3995,-2.3582,-2.345,-2.3556,-2.3943,-2.3872,-2.3695,-2.4523,-2.4452,-2.3962,-2.3904,-2.3551,-2.3088,-2.3135,-2.2738,-2.2285,-2.242,-2.2885,-2.3441,-2.3716,-2.4165,-2.4845,-2.5961,-2.6336,-2.6843,-2.8315,-2.8684,-2.8994,-2.9789,-2.9988,-3.0097,-3.0312,-3.0144,-2.9637,-2.8812,-2.7986,-2.7149,-2.6346,-2.5052,-2.4036,-2.3599,-2.2178,-2.1221,-2.0944,-2.0401,-2.002,-2.002,-1.8727,-1.7917,-1.7755,-1.483,-1.3159,-1.2983,-0.9885,-0.7731,-0.6691,-0.6779,0.1432,1.7159,1.7053,2.5519,0.0,0.0,0.0,0.0,0.0,0.0,-1.4228,-1.4,-1.4598,0.0,0.0,0.0,0.0,0.0,0.0,0.0,0.0,0.0,0.0,0.0,0.0,0.0,0.0,0.0,-2.2801,-2.2818,-2.2865,-2.3016,-2.2776,-2.2802,-2.3219,-2.3941,-2.4173,-2.3795,-2.4579,-2.4918,-2.4655,-2.4719,-2.4558,-2.4204,-2.4261,-2.3867,-2.3024,-2.3155,-2.2942,-2.2433,-2.2693,-2.2738,-2.2634,-2.2309,-2.2693,-2.3522,-2.3463,-2.3125,-2.2786,-2.2763,-2.3053,-2.3374,-2.3433,-2.3669,-2.3904,-2.3433,-2.3207,-2.3027,-2.2531,-2.2037,-2.1514,-2.1112,-2.1169,-2.1522,-2.2015,-2.2733,-2.3607,-2.4705,-2.5703,-2.6609,-2.737,-2.7951,-2.8546,-2.8994,-2.9401,-2.9526,-2.9016,-2.8889,-2.8376,-2.7136,-2.7027,-2.6688,-2.5523,-2.5312,-2.4874,-2.3728,-2.3191,-2.2424,-2.1242,-2.0857,-2.0001,-1.8336,-1.7934,-1.7204,-1.5989,-1.5242,-1.4294,-1.3068,-1.024,-0.8607,-0.8436,-0.7746,0.0978,1.6869,1.6699,2.5281,0.0,0.0,0.0,-1.6873,0.0,0.0,0.0,-1.4601,-1.4536,-1.6572,-1.5642,0.0,0.0,0.0,0.0,0.0,0.0,0.0,0.0,0.0,0.0,0.0,0.0,0.0,-2.1826,-2.2018,-2.2069,-2.1911,-2.1873,-2.1916,-2.2097,-2.2807,-2.321,-2.3319,-2.3912,-2.4255,-2.4395,-2.4131,-2.3921,-2.3767,-2.3406,-2.295,-2.2512,-2.2512,-2.2235,-2.1746,-2.182,-2.1884,-2.1874,-2.148,-2.1668,-2.223,-2.2256,-2.2335,-2.2506,-2.2506,-2.2628,-2.275,-2.3027,-2.31,-2.3053,-2.2763,-2.2372,-2.2051,-2.1714,-2.1198,-2.0741,-2.0526,-2.0515,-2.0635,-2.1141,-2.1865,-2.2666,-2.357,-2.4718,-2.5794,-2.6647,-2.7288,-2.7894,-2.8481,-2.8753,-2.8867,-2.857,-2.8492,-2.8103,-2.6879,-2.6905,-2.6633,-2.5465,-2.517,-2.4576,-2.357,-2.2968,-2.2435,-2.169,-2.1318,-2.0459,-1.9027,-1.8238,-1.7286,-1.6064,-1.5673,-1.481,-1.3484,-1.101,-0.9634,-0.936,-0.8436,0.0525,1.6784,1.6221,2.4871,0.0,0.0,0.0,0.0,0.0,-1.6868,0.0,0.0,0.0,-1.7129,0.0,0.0,0.0,0.0,0.0,0.0,0.0,0.0,0.0,0.0,0.0,0.0,0.0,0.0,-2.0763,-2.0803,-2.0886,-2.0797,-2.055,-2.0518,-2.0988,-2.1686,-2.2325,-2.2827,-2.3194,-2.3634,-2.4173,-2.358,-2.3275,-2.3275,-2.2498,-2.2035,-2.1955,-2.1955,-2.1732,-2.1277,-2.1277,-2.1249,-2.1173,-2.0754,-2.0652,-2.0763,-2.0985,-2.1499,-2.2091,-2.2347,-2.2334,-2.2247,-2.275,-2.258,-2.2185,-2.2061,-2.1526,-2.0869,-2.0741,-2.0355,-1.9966,-1.9944,-1.9944,-2.0074,-2.0322,-2.1101,-2.1922,-2.2476,-2.3658,-2.4936,-2.5845,-2.6541,-2.7233,-2.8012,-2.8091,-2.8078,-2.8182,-2.8247,-2.7986,-2.696,-2.6837,-2.6564,-2.5664,-2.4933,-2.4276,-2.3559,-2.2734,-2.2295,-2.2295,-2.1766,-2.0991,-2.0197,-1.9027,-1.7827,-1.6706,-1.5824,-1.5061,-1.449,-1.2031,-1.057,-1.0277,-0.9126,-0.0609,1.4331,1.4963,2.3516,0.0,0.0,0.0,0.0,-2.0508,0.0,0.0,0.0,-1.563,-1.3555,0.0,0.0,0.0,0.0,0.0,0.0,0.0,0.0,0.0,0.0,0.0,0.0,0.0,0.0,-1.9684,-1.8647,-1.8682,-2.0338,-1.8299,-1.7789,-1.9777,-2.0645,-2.112,-2.124,-2.2293,-2.3047,-2.3436,-2.2979,-2.2844,-2.2934,-2.236,-2.186,-2.1458,-2.1458,-2.1229,-2.0799,-2.0799,-2.0562,-2.0144,-1.9756,-1.9599,-1.9793,-2.0712,-2.1043,-2.0991,-2.1584,-2.1874,-2.1987,-2.2247,-2.2247,-2.2061,-2.1463,-2.0752,-2.0096,-1.9431,-1.9309,-1.9243,-1.8664,-1.8731,-1.8998,-1.8998,-2.0096,-2.121,-2.1331,-2.2769,-2.4243,-2.4847,-2.5675,-2.6541,-2.7432,-2.7443,-2.7297,-2.7162,-2.7417,-2.7284,-2.6176,-2.6164,-2.6082,-2.5453,-2.5087,-2.4731,-2.4189,-2.3372,-2.3001,-2.315,-2.2446,-2.1441,-2.0051,-1.9816,-1.87,-1.655,-1.5748,-1.5665,-1.6139,-1.2886,-1.1519,-1.2008,-0.9648,-0.3716,0.5449,1.1784,1.995,0.0,0.0,0.0,0.0,0.0,0.0,-1.6766,0.0,-1.5586,0.0,0.0,0.0,0.0,0.0,0.0,0.0,-1.4255,0.0,0.0,0.0,0.0,0.0,0.0,0.0,-1.8663,-1.7277,-1.7165,-1.9155,-1.7527,-1.7202,-1.8841,-1.9641,-2.022,-2.0636,-2.1565,-2.2301,-2.2844,-2.2521,-2.2374,-2.242,-2.167,-2.1166,-2.0997,-2.0997,-2.0898,-2.0699,-2.0435,-2.0156,-1.994,-1.9303,-1.9078,-1.9136,-1.9745,-2.0288,-2.0862,-2.1219,-2.1675,-2.1987,-2.1663,-2.1526,-2.14,-2.0279,-1.9694,-1.9309,-1.8654,-1.8462,-1.8529,-1.8337,-1.8405,-1.8539,-1.8741,-1.989,-2.0846,-2.0613,-2.2027,-2.3462,-2.3695,-2.4657,-2.5594,-2.6155,-2.6527,-2.6552,-2.607,-2.6607,-2.6676,-2.5664,-2.5955,-2.5943,-2.5229,-2.4636,-2.436,-2.4345,-2.3139,-2.2606,-2.3276,-2.2134,-2.0914,-1.9806,-1.8541,-1.7594,-1.7033,-1.6312,-1.6476,-1.7448,-1.4052,-1.2699,-1.3613,-1.0768,-0.7705,-0.427,0.8958,1.9639,-2.3134,0.0,0.0,0.0,0.0,0.0,0.0,0.0,0.0,0.0,0.0,0.0,0.0,0.0,0.0,0.0,0.0,-1.3482,0.0,0.0,0.0,0.0,0.0,0.0,0.0,-1.5587,-1.5454,-1.77,0.0,-1.6318,-1.8293,-1.876,-1.9405,-2.0356,-2.0843,-2.1436,-2.226,-2.1996,-2.1881,-2.1908,-2.1082,-2.0699,-2.0699,-2.0699,-2.0649,-2.0485,-2.0156,-1.9888,-1.9643,-1.9052,-1.8744,-1.8726,-1.8861,-1.9494,-2.0369,-2.0673,-2.1073,-2.1339,-2.0951,-2.0677,-2.0344,-1.9299,-1.8844,-1.8664,-1.8144,-1.8008,-1.8144,-1.8279,-1.8337,-1.8405,-1.8808,-1.9694,-2.0515,-2.042,-2.1463,-2.2559,-2.2895,-2.3694,-2.4505,-2.4933,-2.5468,-2.5709,-2.53,-2.5767,-2.6045,-2.537,-2.5511,-2.5499,-2.5075,-2.4204,-2.3779,-2.4116,-2.2606,-2.1907,-2.2883,-2.1603,-2.0537,-1.9885,-1.8069,-1.7123,-1.7359,-1.6952,-1.7123,-1.8014,-1.5306,-1.4038,-1.4622,-1.1781,-1.0448,-1.0196,0.7125,1.844,0.0,0.0,0.0,-2.0466,0.0,0.0,0.0,0.0,-1.6855,0.0,0.0,0.0,0.0,0.0,-1.4544,-1.305,-1.3249,0.0,0.0,0.0,0.0,0.0,0.0,0.0,0.0,0.0,-1.3202,0.0,-1.4136,-1.4453,-1.8204,-1.8129,-1.8687,-2.0342,-2.0113,-2.0505,-2.17,-2.1405,-2.1319,-2.1423,-2.0947,-2.0699,-2.0699,-2.0699,-2.0435,-2.0042,-1.9991,-1.9552,-1.8851,-1.8798,-1.8637,-1.8422,-1.8583,-1.8693,-1.8862,-1.9791,-1.9834,-1.9525,-1.9997,-1.9628,-1.9044,-1.9044,-1.8596,-1.8008,-1.8008,-1.8144,-1.8337,-1.8482,-1.8482,-1.8617,-1.9008,-1.9452,-2.0031,-2.0869,-2.1135,-2.1475,-2.2747,-2.3013,-2.3264,-2.4181,-2.4413,-2.4564,-2.4933,-2.5052,-2.5122,-2.53,-2.4636,-2.4337,-2.4933,-2.4009,-2.3298,-2.3372,-2.1852,-2.1242,-2.2059,-2.1145,-2.0459,-2.0459,-1.9283,-1.8256,-1.7432,-1.7359,-1.7359,-1.744,-1.6398,-1.5464,-1.4622,-1.2511,-1.1187,-1.0196,0.6838,1.4838,0.0,0.0,-2.2883,-2.1025,0.0,0.0,0.0,0.0,0.0,0.0,0.0,0.0,0.0,0.0,-1.4658,-1.3529,-1.2557,-1.1477,0.0,0.0,0.0,0.0,0.0,0.0,0.0,0.0,0.0,0.0,-1.3764,0.0,-1.7781,-1.8001,-1.8499,-1.952,-1.9577,-1.9948,-2.0784,-2.0751,-2.0953,-2.1375,-2.0947,-2.0699,-2.0712,-2.0372,-2.0156,-1.9991,-1.9448,-1.9052,-1.8798,-1.8464,-1.8302,-1.8205,-1.841,-1.8077,-1.7573,-1.8838,-1.9373,-1.9378,-1.9403,-1.8921,-1.8327,-1.8327,-1.8202,-1.8008,-1.8008,-1.8076,-1.8144,-1.8347,-1.8347,-1.8472,-1.8808,-1.933,-1.977,-1.9781,-2.0107,-2.0529,-2.102,-2.1687,-2.2457,-2.3074,-2.3851,-2.4276,-2.379,-2.379,-2.4009,-2.4467,-2.4743,-2.4647,-2.3936,-2.3191,-2.2756,-2.2927,-2.1318,-2.0624,-2.1614,-2.0624,-1.9863,-1.9863,-1.9143,-1.8816,-1.9054,-1.8647,-1.8567,-1.8825,-1.7883,-1.6456,-1.4622,-1.3212,-1.1884,-1.0312,0.1183,0.9502,-2.297,-2.2957,0.0,-2.0982,-1.9914,0.0,-1.7042,0.0,0.0,0.0,0.0,0.0,0.0,0.0,-1.4961,-1.3574,-1.2191,-1.0788,0.0,-0.8865,0.0,0.0,0.0,0.0,0.0,0.0,-1.0866,-1.3025,-1.2802,0.0,0.0,-1.7179,-1.7762,-1.8701,-1.8821,-1.91,-1.971,-2.0024,-2.0408,-2.0823,-2.0581,-2.0435,-2.0435,-2.0016,-1.9695,-1.954,-1.9052,-1.8691,-1.853,-1.8193,-1.8139,-1.8205,-1.8367,-1.7755,-1.6906,-1.8034,-1.8534,-1.869,-1.8634,-1.8327,-1.8008,-1.8008,-1.8008,-1.8008,-1.8008,-1.8008,-1.8008,-1.8269,-1.8269,-1.8269,-1.8607,-1.8998,-1.932,-1.933,-1.9518,-1.9846,-2.0042,-2.0785,-2.1526,-2.2207,-2.3165,-2.3781,-2.3191,-2.3446,-2.3751,-2.3751,-2.4238,-2.4311,-2.3446,-2.2756,-2.2381,-2.2402,-2.1021,-2.0401,-2.1011,-2.0411,-1.9872,-1.9715,-1.9469,-1.9381,-1.9539,-1.9371,-1.9371,-1.939,-1.9036,-1.7438,-1.4698,-1.3948,-1.2547,-1.0433,-0.4663,0.3967]}]]